[[{"header":{"parameterUnit":"m.s-1","parameterCategory":1,"la1":31.0,"la2":29.5877,"lo1":-88.7671,"lo2":-86.6584,"dy":0.0162,"dx":0.0185,"nx":115,"ny":88,"refTime":"2023-05-16T06:00:00:Z","depth":0,"parameterNumber":2,"parameterNumberName":"U-component_of_WINDS"},"data":[0.0,0.0,0.0,0.0,0.0,0.0,0.0,0.0,0.0,0.0,0.0,0.0,0.0,0.0,0.0,0.0,0.0,0.0,0.0,0.0,0.0,0.0,0.0,0.0,0.0,0.0,0.0,0.0,0.0,0.0,0.0,0.0,0.0,0.0,0.0,0.0,0.0,0.0,0.0,0.0,0.0,0.0,0.0,0.0,0.0,0.0,0.0,0.0,0.0,0.0,0.0,0.0,0.0,0.0,0.0,0.0,0.0,0.0,0.0,0.0,0.0,0.0,0.0,0.0,0.0,0.0,0.0,0.0,0.0,0.0,0.0,0.0,0.0,0.0,0.0,0.0,0.0,0.0,0.0,0.0,0.0,0.0,0.0,0.0,0.0,0.0,0.0,0.0,0.0,0.0,0.0,0.0,0.0,0.0,0.0,0.0,0.0,0.0,0.0,0.0,0.0,0.0,0.0,0.0,0.0,0.0,0.0,0.0,0.0,0.0,0.0,0.0,0.0,0.0,0.0,0.0,0.0,0.0,0.0,0.0,0.0,0.0,0.0,0.0,0.0,0.0,0.0,0.0,0.0,0.0,0.0,0.0,0.0,0.0,0.0,0.0,0.0,0.0,0.0,0.0,0.0,0.0,0.0,0.0,0.0,0.0,0.0,0.0,0.0,0.0,0.0,0.0,0.0,0.0,0.0,0.0,0.0,0.0,0.0,0.0,0.0,0.0,0.0,0.0,0.0,0.0,0.0,0.0,0.0,0.0,0.0,0.0,0.0,0.0,0.0,0.0,0.0,0.0,0.0,0.0,0.0,0.0,0.0,0.0,0.0,0.0,0.0,0.0,0.0,0.0,0.0,0.0,0.0,0.0,0.0,0.0,0.0,0.0,0.0,0.0,0.0,0.0,0.0,0.0,0.0,0.0,0.0,0.0,0.0,0.0,0.0,0.0,0.0,0.0,0.0,0.0,0.0,0.0,0.0,0.0,0.0,0.0,0.0,0.0,0.0,0.0,0.0,0.0,0.0,0.0,0.0,0.0,0.0,0.0,0.0,0.0,0.0,0.0,0.0,0.0,0.0,0.0,0.0,0.0,0.0,0.0,0.0,0.0,0.0,0.0,0.0,0.0,0.0,0.0,0.0,0.0,0.0,0.0,0.0,0.0,0.0,0.0,0.0,0.0,0.0,0.0,0.0,0.0,0.0,0.0,0.0,0.0,0.0,0.0,0.0,0.0,0.0,0.0,0.0,0.0,0.0,0.0,0.0,0.0,0.0,0.0,0.0,0.0,0.0,0.0,0.0,0.0,0.0,0.0,0.0,0.0,0.0,0.0,0.0,0.0,0.0,0.0,0.0,0.0,0.0,0.0,0.0,0.0,0.0,0.0,0.0,0.0,0.0,0.0,0.0,0.0,0.0,0.0,0.0,0.0,0.0,0.0,0.0,0.0,0.0,0.0,0.0,0.0,0.0,0.0,0.0,0.0,0.0,0.0,0.0,0.0,0.0,0.0,0.0,0.0,0.0,0.0,0.0,0.0,0.0,0.0,0.0,0.0,0.0,0.0,0.0,0.0,0.0,0.0,0.0,0.0,0.0,0.0,0.0,0.0,0.0,0.0,0.0,0.0,0.0,0.0,0.0,0.0,0.0,0.0,0.0,0.0,0.0,0.0,0.0,0.0,0.0,0.0,0.0,0.0,0.0,0.0,0.0,0.0,0.0,0.0,0.0,0.0,0.0,0.0,0.0,0.0,0.0,0.0,0.0,0.0,0.0,0.0,0.0,0.0,0.0,0.0,0.0,0.0,0.0,0.0,0.0,0.0,0.0,0.0,0.0,0.0,0.0,0.0,0.0,0.0,0.0,0.0,0.0,0.0,0.0,0.0,0.0,0.0,0.0,0.0,0.0,0.0,0.0,0.0,0.0,0.0,0.0,0.0,0.0,0.0,0.0,0.0,0.0,0.0,0.0,0.0,0.0,0.0,0.0,0.0,0.0,0.0,0.0,0.0,0.0,0.0,0.0,0.0,0.0,0.0,0.0,0.0,0.0,0.0,0.0,0.0,0.0,0.0,0.0,0.0,0.0,0.0,0.0,0.0,0.0,0.0,0.0,0.0,0.0,0.0,0.0,0.0,0.0,0.0,0.0,0.0,0.0,0.0,0.0,0.0,0.0,0.0,0.0,0.0,0.0,0.0,0.0,0.0,0.0,0.0,0.0,0.0,0.0,0.0,0.0,0.0,0.0,0.0,0.0,0.0,0.0,0.0,0.0,0.0,0.0,0.0,0.0,0.0,0.0,0.0,0.0,0.0,0.0,0.0,0.0,0.0,0.0,0.0,0.0,0.0,0.0,0.0,0.0,0.0,0.0,0.0,0.0,0.0,0.0,0.0,0.0,0.0,0.0,0.0,0.0,0.0,0.0,0.0,0.0,0.0,0.0,0.0,0.0,0.0,0.0,0.0,0.0,0.0,0.0,0.0,0.0,0.0,0.0,0.0,0.0,0.0,0.0,0.0,0.0,0.0,0.0,0.0,0.0,0.0,0.0,0.0,0.0,0.0,0.0,0.0,0.0,0.0,0.0,0.0,0.0,0.0,0.0,0.0,0.0,0.0,0.0,0.0,0.0,0.0,0.0,0.0,0.0,0.0,0.0,0.0,0.0,0.0,0.0,0.0,0.0,0.0,0.0,0.0,0.0,0.0,0.0,0.0,0.0,0.0,0.0,0.0,0.0,0.0,0.0,0.0,0.0,0.0,0.0,0.0,0.0,0.0,0.0,0.0,0.0,0.0,0.0,0.0,0.0,0.0,0.0,0.0,0.0,0.0,0.0,0.0,0.0,0.0,0.0,0.0,0.0,0.0,0.0,0.0,0.0,0.0,0.0,0.0,0.0,0.0,0.0,0.0,0.0,0.0,0.0,0.0,0.0,0.0,0.0,0.0,0.0,0.0,0.0,0.0,0.0,0.0,0.0,0.0,0.0,0.0,0.0,0.0,0.0,0.0,0.0,0.0,0.0,0.0,0.0,0.0,0.0,0.0,0.0,0.0,0.0,0.0,0.0,0.0,0.0,0.0,0.0,0.0,0.0,0.0,0.0,0.0,0.0,0.0,0.0,0.0,0.0,0.0,0.0,0.0,0.0,0.0,0.0,0.0,0.0,0.0,0.0,0.0,0.0,0.0,0.0,0.0,0.0,0.0,0.0,0.0,0.0,0.0,0.0,0.0,0.0,0.0,0.0,0.0,0.0,0.0,0.0,0.0,0.0,0.0,0.0,0.0,0.0,0.0,0.0,0.0,0.0,0.0,0.0,0.0,0.0,0.0,0.0,0.0,0.0,0.0,0.0,0.0,0.0,0.0,0.0,0.0,0.0,0.0,0.0,0.0,0.0,0.0,0.0,0.0,0.0,0.0,0.0,0.0,0.0,0.0,0.0,0.0,0.0,0.0,0.0,0.0,0.0,0.0,0.0,0.0,0.0,0.0,0.0,0.0,0.0,0.0,0.0,0.0,0.0,0.0,0.0,0.0,0.0,0.0,0.0,0.0,0.0,0.0,0.0,0.0,0.0,0.0,0.0,0.0,0.0,0.0,0.0,0.0,0.0,0.0,0.0,0.0,0.0,0.0,0.0,0.0,0.0,0.0,0.0,0.0,0.0,0.0,0.0,0.0,0.0,0.0,0.0,0.0,0.0,0.0,0.0,0.0,0.0,0.0,0.0,0.0,0.0,0.0,0.0,0.0,0.0,0.0,0.0,0.0,0.0,0.0,0.0,0.0,0.0,0.0,0.0,0.0,0.0,0.0,0.0,0.0,0.0,0.0,0.0,0.0,0.0,0.0,0.0,0.0,0.0,0.0,0.0,0.0,0.0,0.0,0.0,0.0,0.0,0.0,0.0,0.0,0.0,0.0,0.0,0.0,0.0,0.0,0.0,0.0,0.0,0.0,0.0,0.0,0.0,0.0,0.0,0.0,0.0,0.0,0.0,0.0,0.0,0.0,0.0,0.0,0.0,0.0,0.0,0.0,0.0,0.0,0.0,0.0,0.0,0.0,0.0,0.0,0.0,0.0,0.0,0.0,0.0,0.0,0.0,0.0,0.0,0.0,0.0,0.0,0.0,0.0,0.0,0.0,0.0,0.0,0.0,0.0,0.0,0.0,0.0,0.0,0.0,0.0,0.0,0.0,0.0,0.0,0.0,0.0,0.0,0.0,0.0,0.0,0.0,0.0,0.0,0.0,0.0,0.0,0.0,0.0,0.0,0.0,0.0,0.0,0.0,0.0,0.0,0.0,0.0,0.0,3.2545,0.0,0.0,0.0,0.0,0.0,0.0,0.0,0.0,0.0,0.0,0.0,0.0,0.0,0.0,0.0,0.0,0.0,0.0,0.0,0.0,0.0,0.0,0.0,0.0,0.0,0.0,0.0,0.0,0.0,0.0,0.0,0.0,0.0,0.0,0.0,0.0,0.0,0.0,0.0,0.0,0.0,0.0,0.0,0.0,0.0,0.0,0.0,0.0,0.0,0.0,0.0,0.0,0.0,0.0,0.0,0.0,0.0,0.0,0.0,0.0,0.0,0.0,0.0,0.0,0.0,0.0,0.0,0.0,0.0,0.0,0.0,0.0,0.0,0.0,0.0,0.0,0.0,0.0,0.0,0.0,0.0,0.0,0.0,0.0,0.0,0.0,0.0,0.0,0.0,0.0,0.0,0.0,0.0,0.0,0.0,0.0,0.0,0.0,0.0,0.0,0.0,0.0,0.0,0.0,0.0,0.0,0.0,0.0,0.0,0.0,3.2519,3.2872,3.2904,3.2891,3.2891,0.0,0.0,0.0,0.0,0.0,0.0,0.0,0.0,0.0,0.0,0.0,0.0,0.0,0.0,0.0,0.0,0.0,0.0,0.0,0.0,0.0,0.0,0.0,0.0,0.0,0.0,0.0,0.0,0.0,0.0,0.0,0.0,0.0,0.0,0.0,0.0,0.0,0.0,0.0,0.0,0.0,0.0,0.0,0.0,0.0,0.0,0.0,0.0,0.0,0.0,0.0,0.0,0.0,0.0,0.0,0.0,0.0,0.0,0.0,0.0,0.0,0.0,0.0,0.0,0.0,0.0,0.0,0.0,0.0,0.0,0.0,0.0,0.0,0.0,0.0,0.0,0.0,0.0,0.0,0.0,0.0,0.0,0.0,0.0,0.0,0.0,0.0,0.0,0.0,0.0,0.0,0.0,0.0,0.0,0.0,0.0,0.0,0.0,0.0,0.0,0.0,0.0,0.0,0.0,0.0,0.0,0.0,0.0,0.0,0.0,0.0,0.0,3.3506,3.3377,3.3186,0.0,0.0,0.0,0.0,0.0,0.0,0.0,0.0,0.0,0.0,0.0,0.0,0.0,0.0,0.0,0.0,0.0,0.0,0.0,0.0,0.0,0.0,0.0,0.0,0.0,0.0,0.0,0.0,0.0,0.0,0.0,0.0,0.0,0.0,0.0,0.0,0.0,0.0,0.0,0.0,0.0,0.0,0.0,0.0,0.0,0.0,0.0,0.0,0.0,0.0,0.0,0.0,0.0,0.0,0.0,0.0,0.0,0.0,0.0,0.0,0.0,0.0,0.0,0.0,0.0,0.0,0.0,0.0,0.0,0.0,0.0,0.0,0.0,0.0,0.0,0.0,0.0,0.0,0.0,0.0,0.0,0.0,0.0,0.0,0.0,0.0,0.0,0.0,0.0,0.0,0.0,0.0,0.0,0.0,0.0,0.0,0.0,0.0,0.0,0.0,0.0,0.0,0.0,0.0,0.0,0.0,0.0,0.0,0.0,0.0,3.4447,3.5224,3.5243,0.0,3.4141,0.0,0.0,0.0,0.0,0.0,0.0,0.0,0.0,0.0,0.0,0.0,0.0,0.0,0.0,0.0,0.0,0.0,0.0,0.0,0.0,0.0,0.0,0.0,0.0,0.0,0.0,0.0,0.0,0.0,0.0,0.0,0.0,0.0,0.0,0.0,0.0,0.0,0.0,0.0,0.0,0.0,0.0,0.0,0.0,0.0,0.0,0.0,0.0,0.0,0.0,0.0,0.0,0.0,0.0,0.0,0.0,0.0,0.0,0.0,0.0,0.0,0.0,0.0,0.0,0.0,0.0,0.0,0.0,0.0,0.0,0.0,0.0,0.0,0.0,0.0,0.0,0.0,0.0,0.0,0.0,0.0,0.0,0.0,0.0,0.0,0.0,0.0,0.0,0.0,0.0,0.0,0.0,0.0,0.0,0.0,0.0,0.0,0.0,0.0,0.0,0.0,0.0,0.0,0.0,0.0,0.0,0.0,0.0,0.0,0.0,3.5147,3.5488,3.5507,3.5334,0.0,0.0,0.0,0.0,0.0,0.0,0.0,0.0,0.0,0.0,0.0,0.0,0.0,0.0,0.0,0.0,0.0,0.0,0.0,0.0,0.0,0.0,0.0,0.0,0.0,0.0,0.0,0.0,0.0,0.0,0.0,0.0,0.0,0.0,0.0,0.0,0.0,0.0,0.0,0.0,0.0,0.0,0.0,0.0,0.0,0.0,0.0,0.0,0.0,0.0,0.0,0.0,0.0,0.0,0.0,0.0,0.0,0.0,0.0,0.0,0.0,0.0,0.0,0.0,0.0,0.0,0.0,0.0,0.0,0.0,0.0,0.0,0.0,0.0,0.0,0.0,0.0,0.0,0.0,0.0,0.0,0.0,0.0,0.0,0.0,0.0,0.0,0.0,0.0,0.0,0.0,0.0,0.0,0.0,0.0,0.0,0.0,0.0,0.0,0.0,0.0,0.0,0.0,0.0,0.0,0.0,0.0,0.0,0.0,0.0,3.5507,3.5507,3.5507,3.5507,3.5507,3.5493,0.0,0.0,0.0,0.0,0.0,0.0,0.0,0.0,0.0,0.0,0.0,0.0,0.0,0.0,0.0,0.0,0.0,0.0,0.0,0.0,0.0,0.0,0.0,0.0,0.0,0.0,0.0,0.0,0.0,0.0,0.0,0.0,0.0,0.0,0.0,0.0,0.0,0.0,0.0,0.0,0.0,0.0,0.0,0.0,0.0,0.0,0.0,0.0,0.0,0.0,0.0,0.0,0.0,0.0,0.0,0.0,0.0,0.0,0.0,0.0,0.0,0.0,0.0,0.0,0.0,0.0,0.0,0.0,0.0,0.0,0.0,0.0,0.0,0.0,0.0,0.0,0.0,0.0,0.0,0.0,0.0,0.0,0.0,0.0,0.0,0.0,0.0,0.0,0.0,0.0,0.0,0.0,0.0,0.0,0.0,0.0,0.0,0.0,0.0,0.0,0.0,0.0,0.0,0.0,0.0,0.0,0.0,0.0,3.5507,3.5507,3.5507,3.5507,3.5507,3.5507,0.0,0.0,0.0,0.0,0.0,0.0,0.0,0.0,0.0,0.0,0.0,0.0,0.0,0.0,0.0,0.0,0.0,0.0,0.0,0.0,0.0,0.0,0.0,0.0,0.0,0.0,0.0,0.0,0.0,0.0,0.0,0.0,0.0,0.0,0.0,0.0,0.0,0.0,0.0,0.0,0.0,0.0,0.0,0.0,0.0,0.0,0.0,0.0,0.0,0.0,0.0,0.0,0.0,0.0,0.0,0.0,0.0,0.0,0.0,0.0,0.0,0.0,0.0,0.0,0.0,0.0,0.0,0.0,0.0,0.0,0.0,0.0,0.0,0.0,0.0,0.0,0.0,0.0,0.0,0.0,0.0,0.0,0.0,0.0,0.0,0.0,0.0,0.0,0.0,0.0,0.0,0.0,0.0,0.0,0.0,0.0,0.0,0.0,0.0,0.0,0.0,0.0,0.0,0.0,0.0,0.0,0.0,0.0,0.0,3.5507,3.5507,3.5507,3.5507,3.5507,3.5507,0.0,0.0,0.0,0.0,0.0,0.0,0.0,0.0,0.0,0.0,0.0,0.0,0.0,0.0,0.0,0.0,0.0,0.0,0.0,0.0,0.0,0.0,0.0,0.0,0.0,0.0,0.0,0.0,0.0,0.0,0.0,0.0,0.0,0.0,0.0,0.0,0.0,0.0,0.0,0.0,0.0,0.0,0.0,0.0,0.0,0.0,0.0,0.0,0.0,0.0,0.0,0.0,0.0,0.0,0.0,0.0,0.0,0.0,0.0,0.0,0.0,0.0,0.0,0.0,0.0,0.0,0.0,0.0,0.0,0.0,0.0,0.0,0.0,0.0,0.0,0.0,0.0,0.0,0.0,0.0,0.0,0.0,0.0,0.0,0.0,0.0,0.0,0.0,0.0,0.0,0.0,0.0,0.0,0.0,0.0,0.0,0.0,0.0,0.0,0.0,0.0,0.0,0.0,0.0,0.0,0.0,0.0,0.0,0.0,3.5507,0.0,3.5507,3.5507,3.5507,3.5507,0.0,0.0,0.0,0.0,0.0,0.0,0.0,0.0,0.0,0.0,0.0,0.0,0.0,0.0,0.0,0.0,0.0,0.0,0.0,0.0,0.0,0.0,0.0,0.0,0.0,0.0,0.0,0.0,0.0,0.0,0.0,0.0,0.0,0.0,0.0,0.0,0.0,0.0,0.0,0.0,0.0,0.0,0.0,0.0,0.0,0.0,0.0,0.0,0.0,0.0,0.0,0.0,0.0,0.0,0.0,0.0,0.0,0.0,0.0,0.0,0.0,0.0,0.0,0.0,0.0,0.0,0.0,0.0,0.0,0.0,0.0,0.0,0.0,0.0,0.0,0.0,0.0,0.0,0.0,0.0,0.0,0.0,0.0,0.0,0.0,0.0,0.0,0.0,0.0,0.0,0.0,0.0,0.0,0.0,0.0,0.0,0.0,0.0,0.0,0.0,0.0,0.0,0.0,0.0,0.0,0.0,0.0,0.0,3.5507,3.5507,3.5507,3.5507,3.5507,3.5507,3.5507,0.0,0.0,0.0,0.0,0.0,0.0,0.0,0.0,0.0,0.0,0.0,0.0,0.0,0.0,0.0,0.0,0.0,0.0,0.0,0.0,0.0,0.0,0.0,0.0,0.0,0.0,0.0,0.0,0.0,0.0,0.0,0.0,0.0,0.0,0.0,0.0,0.0,0.0,0.0,0.0,0.0,0.0,0.0,0.0,0.0,0.0,0.0,0.0,0.0,0.0,0.0,0.0,0.0,0.0,0.0,0.0,0.0,0.0,0.0,0.0,0.0,0.0,0.0,0.0,0.0,0.0,0.0,0.0,0.0,0.0,0.0,0.0,0.0,0.0,0.0,0.0,0.0,0.0,0.0,0.0,0.0,0.0,0.0,0.0,0.0,0.0,0.0,0.0,0.0,0.0,0.0,0.0,0.0,0.0,0.0,0.0,0.0,0.0,0.0,0.0,0.0,0.0,0.0,0.0,0.0,0.0,0.0,0.0,0.0,3.5507,3.5507,3.5507,3.5507,3.5507,3.5507,0.0,0.0,0.0,0.0,0.0,0.0,0.0,0.0,0.0,0.0,0.0,0.0,0.0,0.0,0.0,0.0,0.0,0.0,0.0,0.0,0.0,0.0,0.0,0.0,0.0,0.0,0.0,0.0,0.0,0.0,0.0,0.0,0.0,0.0,0.0,0.0,0.0,0.0,0.0,0.0,0.0,0.0,0.0,0.0,0.0,0.0,0.0,0.0,0.0,0.0,0.0,0.0,0.0,0.0,0.0,0.0,0.0,0.0,0.0,0.0,0.0,0.0,0.0,0.0,0.0,0.0,0.0,0.0,0.0,0.0,0.0,0.0,0.0,0.0,0.0,0.0,0.0,0.0,0.0,0.0,0.0,0.0,0.0,0.0,0.0,0.0,0.0,0.0,0.0,0.0,0.0,0.0,0.0,0.0,0.0,0.0,0.0,0.0,0.0,0.0,0.0,0.0,0.0,0.0,0.0,0.0,0.0,0.0,0.0,3.5507,3.5507,3.5507,3.5507,3.5507,3.5507,3.5507,0.0,0.0,0.0,0.0,0.0,0.0,0.0,0.0,0.0,0.0,0.0,0.0,0.0,0.0,0.0,0.0,0.0,0.0,0.0,0.0,0.0,0.0,0.0,0.0,0.0,0.0,0.0,0.0,0.0,0.0,0.0,0.0,0.0,0.0,0.0,0.0,0.0,0.0,0.0,0.0,0.0,0.0,0.0,0.0,0.0,0.0,0.0,0.0,0.0,0.0,0.0,0.0,0.0,0.0,0.0,0.0,0.0,0.0,0.0,0.0,0.0,0.0,0.0,0.0,0.0,0.0,0.0,0.0,0.0,0.0,0.0,0.0,0.0,0.0,0.0,0.0,0.0,0.0,0.0,0.0,0.0,0.0,0.0,0.0,0.0,0.0,0.0,0.0,0.0,0.0,0.0,0.0,0.0,0.0,0.0,0.0,0.0,0.0,0.0,0.0,0.0,0.0,0.0,0.0,0.0,0.0,0.0,0.0,3.5507,3.5507,3.5507,3.5507,3.5507,3.5493,0.0,0.0,0.0,0.0,0.0,0.0,0.0,0.0,0.0,0.0,0.0,0.0,0.0,0.0,0.0,0.0,0.0,0.0,0.0,0.0,0.0,0.0,0.0,0.0,0.0,0.0,0.0,0.0,0.0,0.0,0.0,0.0,0.0,0.0,0.0,0.0,0.0,0.0,0.0,0.0,0.0,0.0,0.0,0.0,0.0,0.0,0.0,0.0,0.0,0.0,0.0,0.0,0.0,0.0,0.0,0.0,0.0,0.0,0.0,0.0,0.0,0.0,0.0,0.0,0.0,0.0,0.0,0.0,0.0,0.0,0.0,0.0,0.0,0.0,0.0,0.0,0.0,0.0,0.0,0.0,0.0,0.0,0.0,0.0,0.0,0.0,0.0,0.0,0.0,0.0,0.0,0.0,0.0,0.0,0.0,0.0,0.0,0.0,0.0,0.0,0.0,0.0,0.0,0.0,0.0,0.0,0.0,0.0,0.0,3.5507,3.5507,3.5507,3.5507,3.5507,3.5417,0.0,0.0,0.0,0.0,0.0,0.0,0.0,0.0,0.0,0.0,0.0,0.0,0.0,0.0,0.0,0.0,0.0,0.0,0.0,0.0,0.0,0.0,0.0,0.0,0.0,0.0,0.0,0.0,0.0,0.0,0.0,0.0,0.0,0.0,0.0,0.0,0.0,0.0,0.0,0.0,0.0,0.0,0.0,0.0,0.0,0.0,0.0,0.0,0.0,0.0,0.0,0.0,0.0,0.0,0.0,0.0,0.0,0.0,0.0,0.0,0.0,0.0,0.0,0.0,0.0,0.0,0.0,0.0,0.0,0.0,0.0,0.0,0.0,0.0,0.0,0.0,0.0,0.0,0.0,0.0,0.0,0.0,0.0,0.0,0.0,0.0,0.0,0.0,0.0,0.0,0.0,0.0,0.0,0.0,0.0,0.0,0.0,0.0,0.0,0.0,0.0,0.0,0.0,0.0,0.0,0.0,0.0,0.0,3.5507,3.5507,3.5507,3.5507,3.5507,3.5507,3.5369,0.0,0.0,0.0,0.0,0.0,0.0,0.0,0.0,0.0,0.0,0.0,0.0,0.0,0.0,0.0,0.0,0.0,0.0,0.0,0.0,0.0,0.0,0.0,0.0,0.0,0.0,0.0,0.0,0.0,0.0,0.0,0.0,0.0,0.0,0.0,0.0,0.0,0.0,0.0,0.0,0.0,0.0,0.0,0.0,0.0,0.0,0.0,0.0,0.0,0.0,0.0,0.0,0.0,0.0,0.0,0.0,0.0,0.0,0.0,0.0,0.0,0.0,0.0,0.0,0.0,0.0,0.0,0.0,0.0,0.0,0.0,0.0,0.0,0.0,0.0,0.0,0.0,0.0,0.0,0.0,0.0,0.0,0.0,0.0,0.0,0.0,0.0,0.0,0.0,0.0,0.0,0.0,0.0,0.0,0.0,0.0,0.0,0.0,0.0,0.0,0.0,0.0,0.0,0.0,0.0,0.0,0.0,0.0,3.5507,3.5507,3.5507,3.5507,3.5507,3.5507,3.5369,0.0,0.0,0.0,0.0,0.0,0.0,0.0,0.0,0.0,0.0,0.0,0.0,0.0,0.0,0.0,0.0,0.0,0.0,0.0,0.0,0.0,0.0,0.0,0.0,0.0,0.0,0.0,0.0,0.0,0.0,0.0,0.0,0.0,0.0,0.0,0.0,0.0,0.0,0.0,0.0,0.0,0.0,0.0,0.0,0.0,0.0,0.0,0.0,0.0,0.0,0.0,0.0,0.0,0.0,0.0,0.0,0.0,0.0,0.0,0.0,0.0,0.0,0.0,0.0,0.0,0.0,0.0,0.0,0.0,0.0,0.0,0.0,0.0,0.0,0.0,0.0,0.0,0.0,0.0,0.0,0.0,0.0,0.0,0.0,0.0,0.0,0.0,0.0,0.0,0.0,0.0,0.0,0.0,0.0,0.0,0.0,0.0,0.0,0.0,0.0,0.0,0.0,0.0,0.0,0.0,0.0,0.0,0.0,3.5507,3.5507,3.5507,3.5507,3.5507,3.5507,3.5273,0.0,0.0,0.0,0.0,0.0,0.0,0.0,0.0,0.0,0.0,0.0,0.0,0.0,0.0,0.0,0.0,0.0,0.0,0.0,0.0,0.0,0.0,0.0,0.0,0.0,0.0,0.0,0.0,0.0,0.0,0.0,0.0,0.0,0.0,0.0,0.0,0.0,0.0,0.0,0.0,0.0,0.0,0.0,0.0,0.0,0.0,0.0,0.0,2.8784,0.0,0.0,0.0,0.0,0.0,0.0,0.0,0.0,0.0,0.0,0.0,0.0,0.0,0.0,0.0,0.0,0.0,0.0,0.0,0.0,0.0,0.0,0.0,0.0,0.0,0.0,0.0,0.0,0.0,0.0,0.0,0.0,0.0,0.0,0.0,0.0,0.0,0.0,0.0,0.0,0.0,0.0,0.0,0.0,0.0,0.0,0.0,0.0,0.0,0.0,0.0,0.0,0.0,0.0,0.0,0.0,0.0,0.0,0.0,3.5378,3.5488,3.5378,3.5378,3.5493,3.5383,3.5171,0.0,0.0,0.0,0.0,0.0,0.0,0.0,0.0,0.0,0.0,0.0,0.0,0.0,0.0,0.0,0.0,0.0,0.0,0.0,0.0,0.0,0.0,0.0,0.0,0.0,0.0,0.0,0.0,0.0,0.0,0.0,0.0,0.0,0.0,0.0,0.0,0.0,0.0,0.0,0.0,0.0,0.0,0.0,0.0,0.0,0.0,0.0,0.0,0.0,0.0,0.0,0.0,0.0,0.0,0.0,0.0,0.0,0.0,0.0,0.0,0.0,0.0,0.0,0.0,0.0,0.0,0.0,0.0,0.0,0.0,0.0,0.0,0.0,0.0,0.0,0.0,0.0,0.0,0.0,0.0,0.0,0.0,0.0,0.0,0.0,0.0,0.0,0.0,0.0,0.0,0.0,0.0,0.0,0.0,0.0,0.0,0.0,0.0,0.0,0.0,0.0,0.0,0.0,0.0,0.0,0.0,0.0,3.4901,3.5149,3.535,3.5147,3.5139,3.535,3.5155,3.5053,3.5016,0.0,0.0,0.0,0.0,0.0,0.0,0.0,0.0,0.0,0.0,0.0,0.0,0.0,0.0,0.0,0.0,0.0,0.0,0.0,0.0,0.0,0.0,0.0,0.0,0.0,0.0,0.0,0.0,0.0,0.0,0.0,0.0,0.0,0.0,0.0,0.0,0.0,0.0,3.119,3.119,0.0,0.0,0.0,0.0,0.0,0.0,0.0,0.0,2.8042,0.0,0.0,0.0,0.0,0.0,0.0,0.0,0.0,0.0,0.0,0.0,0.0,0.0,0.0,0.0,0.0,0.0,0.0,0.0,0.0,0.0,0.0,0.0,0.0,0.0,0.0,0.0,0.0,0.0,0.0,0.0,0.0,0.0,0.0,0.0,0.0,0.0,0.0,0.0,0.0,0.0,0.0,0.0,0.0,0.0,0.0,0.0,0.0,0.0,0.0,0.0,0.0,0.0,0.0,0.0,0.0,3.4276,3.4598,3.4786,3.484,3.48,3.4775,3.4832,3.4793,3.4754,3.4754,0.0,0.0,0.0,0.0,0.0,0.0,0.0,0.0,0.0,0.0,0.0,0.0,0.0,0.0,0.0,0.0,0.0,0.0,0.0,0.0,0.0,0.0,0.0,0.0,0.0,0.0,0.0,0.0,0.0,0.0,0.0,0.0,0.0,0.0,0.0,0.0,0.0,0.0,0.0,3.119,3.074,0.0,0.0,0.0,0.0,0.0,0.0,0.0,0.0,2.7735,0.0,0.0,0.0,0.0,0.0,0.0,0.0,0.0,0.0,0.0,0.0,0.0,0.0,0.0,0.0,0.0,0.0,0.0,0.0,0.0,0.0,0.0,0.0,0.0,0.0,0.0,0.0,0.0,0.0,0.0,0.0,0.0,0.0,0.0,0.0,0.0,0.0,0.0,0.0,0.0,0.0,0.0,0.0,0.0,0.0,0.0,0.0,0.0,0.0,0.0,0.0,0.0,0.0,0.0,0.0,3.42,3.4339,3.4523,3.4694,3.4976,3.5179,3.5334,3.5589,3.5754,0.0,0.0,0.0,0.0,0.0,0.0,0.0,0.0,0.0,0.0,0.0,0.0,0.0,0.0,0.0,0.0,0.0,0.0,0.0,0.0,0.0,0.0,0.0,0.0,0.0,0.0,0.0,0.0,0.0,0.0,0.0,0.0,0.0,0.0,0.0,0.0,0.0,0.0,0.0,0.0,3.119,3.0878,2.9995,0.0,0.0,0.0,0.0,0.0,0.0,2.781,2.7449,0.0,0.0,0.0,0.0,0.0,0.0,0.0,0.0,0.0,0.0,0.0,0.0,0.0,0.0,0.0,0.0,0.0,0.0,0.0,0.0,0.0,0.0,0.0,0.0,0.0,0.0,0.0,0.0,0.0,0.0,0.0,0.0,0.0,0.0,0.0,0.0,0.0,0.0,0.0,0.0,0.0,0.0,0.0,0.0,0.0,0.0,0.0,0.0,0.0,0.0,0.0,0.0,0.0,0.0,0.0,3.4373,3.4354,3.4559,3.5018,3.544,3.5772,3.5982,3.6408,3.6615,0.0,0.0,0.0,0.0,0.0,0.0,0.0,0.0,0.0,0.0,0.0,0.0,0.0,0.0,0.0,0.0,0.0,0.0,0.0,0.0,0.0,0.0,0.0,0.0,0.0,0.0,0.0,0.0,0.0,0.0,0.0,0.0,0.0,0.0,0.0,0.0,0.0,0.0,0.0,0.0,0.0,3.0781,3.0208,2.983,0.0,0.0,0.0,0.0,2.8708,2.8364,0.0,0.0,0.0,0.0,0.0,0.0,0.0,0.0,0.0,0.0,0.0,0.0,0.0,0.0,0.0,0.0,0.0,0.0,0.0,0.0,0.0,0.0,0.0,0.0,0.0,0.0,0.0,0.0,0.0,0.0,0.0,0.0,0.0,0.0,0.0,0.0,0.0,0.0,0.0,0.0,0.0,0.0,0.0,0.0,0.0,0.0,0.0,0.0,0.0,0.0,0.0,0.0,0.0,0.0,0.0,0.0,3.4897,3.4895,3.5303,3.6079,3.6186,3.6215,3.6248,3.6321,3.634,0.0,0.0,0.0,0.0,0.0,0.0,0.0,0.0,0.0,0.0,0.0,0.0,0.0,0.0,0.0,0.0,0.0,0.0,0.0,0.0,0.0,0.0,0.0,0.0,0.0,0.0,0.0,0.0,0.0,0.0,0.0,0.0,0.0,0.0,0.0,0.0,0.0,0.0,0.0,0.0,0.0,3.0166,2.9585,2.9934,3.0085,0.0,0.0,0.0,2.9495,2.9423,0.0,0.0,0.0,0.0,0.0,0.0,0.0,0.0,0.0,0.0,0.0,0.0,0.0,0.0,0.0,0.0,0.0,0.0,0.0,0.0,0.0,0.0,0.0,0.0,0.0,0.0,0.0,0.0,0.0,0.0,0.0,0.0,0.0,0.0,0.0,0.0,0.0,0.0,0.0,0.0,0.0,0.0,0.0,0.0,0.0,0.0,0.0,0.0,0.0,0.0,0.0,0.0,0.0,0.0,0.0,3.4642,3.5008,3.5487,3.5915,3.631,3.6758,3.6993,3.6989,3.7429,3.7668,0.0,0.0,0.0,0.0,0.0,0.0,0.0,0.0,0.0,0.0,0.0,0.0,0.0,0.0,0.0,0.0,0.0,0.0,0.0,0.0,0.0,0.0,0.0,0.0,0.0,0.0,0.0,0.0,0.0,0.0,0.0,0.0,0.0,0.0,0.0,0.0,0.0,0.0,0.0,0.0,0.0,0.0,2.995,2.9943,0.0,0.0,0.0,2.9723,3.0048,0.0,0.0,0.0,0.0,0.0,0.0,0.0,0.0,0.0,0.0,0.0,0.0,0.0,0.0,0.0,0.0,0.0,0.0,0.0,0.0,0.0,0.0,0.0,0.0,0.0,0.0,0.0,0.0,0.0,0.0,0.0,0.0,0.0,0.0,0.0,0.0,0.0,0.0,0.0,0.0,0.0,0.0,0.0,0.0,0.0,0.0,0.0,0.0,0.0,0.0,0.0,0.0,0.0,0.0,0.0,0.0,0.0,3.5653,3.6278,3.6685,3.69,3.7473,3.7821,3.7808,3.8377,0.0,0.0,0.0,0.0,0.0,0.0,0.0,0.0,0.0,0.0,0.0,0.0,0.0,0.0,0.0,0.0,0.0,0.0,0.0,0.0,0.0,0.0,0.0,0.0,0.0,0.0,0.0,3.119,0.0,0.0,0.0,0.0,0.0,0.0,0.0,0.0,0.0,0.0,0.0,0.0,0.0,0.0,2.9641,3.0339,3.0154,3.0335,0.0,0.0,3.0257,3.0715,3.0354,2.9737,0.0,0.0,0.0,0.0,0.0,0.0,0.0,0.0,0.0,0.0,0.0,0.0,0.0,0.0,0.0,0.0,0.0,0.0,0.0,0.0,0.0,0.0,0.0,0.0,0.0,0.0,0.0,0.0,0.0,0.0,0.0,0.0,0.0,0.0,0.0,0.0,0.0,0.0,0.0,0.0,0.0,0.0,0.0,0.0,0.0,0.0,0.0,0.0,0.0,0.0,0.0,0.0,0.0,0.0,0.0,3.7311,3.7403,3.7787,3.8493,3.8585,3.8634,3.8634,3.867,3.8707,0.0,0.0,0.0,0.0,0.0,0.0,0.0,0.0,0.0,0.0,0.0,0.0,0.0,0.0,0.0,0.0,0.0,0.0,0.0,0.0,0.0,0.0,0.0,0.0,0.0,0.0,0.0,0.0,0.0,0.0,0.0,0.0,0.0,0.0,0.0,0.0,0.0,0.0,0.0,0.0,0.0,2.9754,3.037,3.0923,3.1288,0.0,0.0,3.1362,3.1422,3.1377,3.0819,2.9189,0.0,0.0,0.0,0.0,0.0,0.0,0.0,0.0,0.0,0.0,0.0,0.0,0.0,0.0,0.0,0.0,0.0,0.0,0.0,0.0,0.0,0.0,0.0,0.0,0.0,0.0,0.0,0.0,0.0,0.0,0.0,0.0,0.0,0.0,0.0,0.0,0.0,0.0,0.0,0.0,0.0,0.0,0.0,0.0,0.0,0.0,0.0,0.0,0.0,0.0,0.0,0.0,0.0,3.7187,3.7514,3.7989,3.8389,3.8689,3.8707,3.8707,3.8707,3.8707,3.8707,0.0,0.0,0.0,0.0,0.0,0.0,0.0,0.0,0.0,0.0,0.0,0.0,0.0,0.0,0.0,0.0,0.0,0.0,0.0,0.0,0.0,0.0,0.0,0.0,0.0,0.0,0.0,0.0,3.119,3.0838,2.9865,0.0,0.0,0.0,0.0,0.0,0.0,0.0,0.0,0.0,0.0,2.9773,3.041,3.0697,0.0,0.0,3.1459,3.1467,3.1467,3.1102,3.0542,2.9915,2.9388,0.0,0.0,0.0,0.0,0.0,0.0,0.0,0.0,0.0,0.0,0.0,0.0,0.0,0.0,0.0,0.0,0.0,0.0,0.0,0.0,0.0,0.0,0.0,0.0,0.0,0.0,0.0,0.0,0.0,0.0,0.0,0.0,0.0,0.0,0.0,0.0,0.0,0.0,0.0,0.0,0.0,0.0,0.0,0.0,0.0,0.0,0.0,0.0,0.0,0.0,0.0,0.0,3.7856,3.786,3.8407,3.8707,3.8707,3.8707,3.8707,3.8707,3.8707,3.8707,0.0,0.0,0.0,0.0,0.0,0.0,0.0,0.0,0.0,0.0,0.0,0.0,0.0,0.0,0.0,0.0,0.0,0.0,0.0,0.0,0.0,0.0,0.0,0.0,0.0,0.0,0.0,0.0,3.0781,3.0251,2.9225,0.0,0.0,0.0,0.0,0.0,0.0,0.0,0.0,0.0,0.0,3.0088,3.0717,3.0821,3.0872,3.1087,3.1161,3.1029,3.0777,3.0495,3.0199,2.9939,0.0,0.0,0.0,0.0,0.0,0.0,0.0,0.0,0.0,0.0,0.0,0.0,0.0,0.0,0.0,0.0,0.0,0.0,0.0,0.0,0.0,0.0,0.0,0.0,0.0,0.0,0.0,0.0,0.0,0.0,0.0,0.0,0.0,0.0,0.0,0.0,0.0,0.0,0.0,0.0,0.0,0.0,0.0,0.0,0.0,0.0,0.0,0.0,0.0,0.0,0.0,0.0,0.0,0.0,3.867,3.867,3.8707,3.8707,3.8707,3.8707,3.8707,3.8707,3.8707,3.8707,0.0,0.0,0.0,0.0,0.0,0.0,0.0,0.0,0.0,0.0,0.0,0.0,0.0,0.0,0.0,0.0,0.0,0.0,0.0,0.0,0.0,0.0,0.0,0.0,0.0,0.0,3.0335,2.9805,2.918,0.0,0.0,0.0,0.0,0.0,0.0,0.0,0.0,0.0,0.0,3.0462,3.0746,3.1347,3.1495,3.119,3.045,3.0389,3.0072,2.9331,2.9743,2.9971,0.0,0.0,0.0,0.0,0.0,0.0,0.0,0.0,0.0,0.0,0.0,0.0,0.0,0.0,0.0,0.0,0.0,0.0,0.0,0.0,0.0,0.0,0.0,0.0,0.0,0.0,0.0,0.0,0.0,0.0,0.0,0.0,0.0,0.0,0.0,0.0,0.0,0.0,0.0,0.0,3.5899,3.614,0.0,0.0,0.0,0.0,0.0,0.0,0.0,0.0,0.0,0.0,0.0,0.0,3.8034,3.8658,3.8334,3.8365,3.8689,3.8707,3.8707,3.8707,3.8707,3.8707,3.8707,0.0,0.0,0.0,0.0,0.0,0.0,0.0,0.0,0.0,0.0,0.0,0.0,0.0,0.0,0.0,0.0,0.0,0.0,0.0,0.0,0.0,0.0,0.0,0.0,0.0,3.074,0.0,0.0,0.0,0.0,0.0,0.0,0.0,0.0,0.0,0.0,0.0,3.0021,3.0436,3.0896,3.127,3.1452,3.1467,3.1409,0.0,0.0,0.0,0.0,0.0,0.0,0.0,0.0,0.0,0.0,0.0,0.0,0.0,0.0,2.7211,2.5734,2.548,2.5206,2.4219,0.0,0.0,0.0,0.0,0.0,0.0,0.0,0.0,0.0,0.0,0.0,0.0,0.0,0.0,0.0,0.0,3.5605,0.0,0.0,0.0,0.0,0.0,0.0,0.0,0.0,3.6597,3.6707,3.6725,3.7004,3.7397,0.0,3.7911,3.7653,0.0,0.0,0.0,0.0,0.0,0.0,0.0,0.0,3.7966,3.8405,3.8272,3.8334,3.8689,3.8511,3.8423,3.8434,3.8241,3.8186,3.8168,3.835,3.835,0.0,0.0,0.0,0.0,0.0,0.0,0.0,0.0,0.0,0.0,0.0,0.0,0.0,0.0,0.0,0.0,0.0,0.0,0.0,0.0,0.0,0.0,0.0,3.0418,0.0,0.0,0.0,0.0,0.0,0.0,0.0,0.0,0.0,2.9311,2.9967,3.0584,3.0824,3.1198,3.1467,3.1467,0.0,0.0,0.0,0.0,0.0,0.0,0.0,2.8864,2.8588,2.7877,2.7248,2.6997,2.7131,2.7095,2.6602,0.0,0.0,2.5721,2.5538,2.5184,2.4199,2.4073,2.4322,2.4891,2.5046,2.5375,0.0,0.0,0.0,0.0,0.0,0.0,0.0,0.0,3.5603,3.5911,0.0,0.0,0.0,0.0,0.0,0.0,0.0,0.0,0.0,0.0,3.7184,3.7544,3.7588,3.8303,3.8689,3.8707,3.867,3.867,3.867,3.8689,0.0,0.0,0.0,0.0,0.0,0.0,3.8405,3.797,3.8387,3.8658,3.8652,3.8151,3.7896,3.7891,3.7441,3.7228,3.7228,3.7649,3.7685,3.7248,3.7169,0.0,0.0,0.0,0.0,0.0,0.0,0.0,0.0,0.0,0.0,0.0,0.0,0.0,0.0,0.0,0.0,0.0,0.0,0.0,0.0,3.0146,0.0,0.0,0.0,0.0,0.0,0.0,0.0,0.0,0.0,0.0,3.0524,3.057,3.0761,3.1407,0.0,0.0,0.0,0.0,3.1219,3.0464,3.0309,2.9769,2.8143,2.8454,2.8692,2.7861,0.0,0.0,2.7762,2.7027,2.6533,2.6521,2.6521,2.6521,2.6452,2.644,2.6121,2.5306,2.5746,2.6096,2.5387,2.5822,2.6414,3.7747,0.0,0.0,0.0,0.0,3.7445,3.7368,3.7296,3.7276,3.7348,3.7525,3.7516,0.0,0.0,0.0,0.0,0.0,0.0,3.801,3.8028,3.8267,3.8358,3.8358,3.8579,3.8707,3.8707,3.8707,3.8707,3.8707,3.8707,3.8627,3.8465,0.0,0.0,0.0,0.0,3.7505,3.8372,3.7913,3.7785,3.812,3.765,3.7395,3.7378,3.729,3.719,3.719,3.7323,3.7323,3.7193,3.6829,0.0,0.0,0.0,0.0,0.0,0.0,0.0,0.0,0.0,0.0,0.0,0.0,0.0,0.0,0.0,0.0,0.0,0.0,0.0,3.1358,3.1073,3.0862,0.0,0.0,0.0,0.0,0.0,0.0,0.0,0.0,0.0,3.123,3.1187,3.1289,0.0,0.0,3.1467,3.1467,3.1467,3.1409,3.1146,0.0,0.0,0.0,2.8736,2.7987,2.7721,2.7419,2.7117,2.685,2.6658,2.6521,2.6521,2.6521,2.6521,2.6521,2.6521,2.6414,2.6177,2.6308,2.6427,2.6189,2.6321,2.6521,3.959,3.9452,3.8641,3.8264,3.8215,3.8141,3.808,3.8007,3.8007,3.8176,3.8507,3.8517,3.8681,3.8946,3.8365,0.0,0.0,0.0,3.8707,3.8707,3.8707,3.8707,3.8707,3.8707,3.8707,3.8707,3.8707,3.8707,3.8707,3.8707,3.8707,3.8658,0.0,0.0,3.7791,3.7248,3.7248,3.7738,3.7433,3.7306,3.76,3.735,3.7112,3.6908,3.6898,3.6882,3.6882,3.6882,3.6882,3.6865,3.6577,3.6415,0.0,0.0,0.0,0.0,0.0,0.0,0.0,0.0,0.0,0.0,0.0,3.3609,0.0,0.0,0.0,0.0,3.2895,3.2636,3.2243,3.1783,0.0,0.0,0.0,0.0,0.0,0.0,0.0,3.0925,3.1237,3.1467,3.1467,3.1467,3.1467,3.1467,3.1467,3.1409,3.1087,0.0,3.0911,3.0584,3.0075,2.9636,2.9282,2.8372,2.7634,2.7275,2.6873,2.6521,2.6521,2.6521,2.6521,2.6521,2.6521,2.6521,2.6521,2.6521,2.6521,2.6521,2.6521,2.6521,2.6521,2.6521,2.6521,4.1191,4.1029,3.926,3.846,3.8412,3.826,3.8219,3.82,3.82,3.8638,3.9364,3.9403,3.9777,4.0386,3.9842,0.0,0.0,3.8803,3.8707,3.8707,3.8707,3.8707,3.8707,3.8707,3.8707,3.8707,3.8707,3.8707,3.8707,3.8664,3.8614,3.8609,3.8596,3.7895,3.6643,3.736,3.7342,3.6481,3.6931,3.7136,3.7079,3.7058,3.6847,3.635,3.6319,3.6333,3.635,3.6333,3.6333,3.6333,3.6339,3.6306,3.6324,0.0,0.0,0.0,0.0,0.0,0.0,0.0,0.0,0.0,0.0,0.0,0.0,0.0,0.0,0.0,3.3224,0.0,3.3345,3.2327,0.0,0.0,0.0,3.0582,3.0623,3.1135,3.1467,3.1467,0.0,0.0,0.0,0.0,3.1467,3.1467,3.1482,3.1161,3.0389,3.0269,2.995,2.9317,2.8997,2.8605,2.7983,2.7704,2.7331,2.6683,2.6521,2.6521,2.6521,2.6521,2.6521,2.6521,2.6521,2.6521,2.6521,2.6521,2.6521,2.6521,2.6521,2.6521,2.6521,2.6521,2.6521,4.1135,4.1006,4.044,4.0218,4.0174,4.0096,4.0004,3.9892,3.9912,4.0023,4.0215,4.0215,4.0076,3.98,3.9668,3.9301,3.8773,3.8719,3.8707,3.8707,3.8707,3.8707,3.8707,3.8707,3.8707,3.8707,3.8707,3.8707,3.8676,3.8271,3.8079,3.8083,3.7738,3.7542,3.7524,3.7002,3.6825,3.6999,3.6734,3.6376,3.5977,3.5968,3.5928,3.5797,3.5786,3.5783,3.5783,3.5783,3.5783,3.5766,3.5795,3.5788,3.5788,3.5671,0.0,0.0,0.0,0.0,0.0,0.0,0.0,0.0,0.0,3.5239,3.4903,0.0,3.4863,0.0,3.4994,3.4454,3.2934,3.301,0.0,0.0,3.1713,3.1498,3.2026,3.1747,3.1467,3.1467,3.1467,3.1467,3.1467,3.1467,3.1467,3.1467,3.0955,3.0524,3.0329,2.969,2.9504,2.9709,2.8809,2.7971,2.7683,2.7159,2.6772,2.6546,2.6521,2.6521,2.6521,2.6521,2.6521,2.6521,2.6521,2.6521,2.6521,2.6521,2.6521,2.6521,2.6521,2.6521,2.6521,2.6521,2.6521,4.1062,4.0977,4.0829,4.0765,4.0754,4.0658,4.0566,4.0489,4.0489,4.0489,4.0489,4.0489,4.0252,3.9811,3.9656,3.9352,3.8884,3.8762,3.8707,3.8707,3.8707,3.8707,3.8707,3.8707,3.8707,3.8707,3.8707,3.8574,3.8321,3.8043,3.777,3.7578,3.7097,3.6981,3.7193,3.6684,3.6457,3.6481,3.6214,3.5899,3.5622,3.5853,3.5949,3.5976,3.5985,3.5941,3.5985,3.5722,3.5639,3.5639,3.5639,3.5639,3.5639,3.5639,3.5639,0.0,0.0,0.0,0.0,0.0,0.0,0.0,0.0,0.0,0.0,0.0,3.5639,0.0,3.5639,0.0,3.362,3.355,3.3355,3.2641,3.1966,3.1625,3.2064,3.1754,3.1467,3.1467,3.1467,3.1467,3.1467,3.1467,3.1219,3.051,3.0018,2.9732,2.9676,2.9002,2.8492,2.8556,2.7786,2.7144,2.7124,2.6782,2.6521,2.6521,2.6521,2.6521,2.6521,2.6521,2.6521,2.6521,2.6521,2.6521,2.6521,2.6521,2.6521,2.6521,2.6521,2.6521,2.6521,2.6521,2.6521,4.0985,4.0947,4.0773,4.0696,4.0677,4.0527,4.0489,4.0489,4.0489,4.0489,4.0489,4.0489,4.0347,4.0023,3.9735,3.9408,3.9036,3.8803,3.8707,3.8707,3.8707,3.8707,3.8707,3.8707,3.8707,3.8707,3.8707,3.8419,3.7909,3.7848,3.7577,3.7076,3.6563,3.6291,3.6291,3.6308,3.6054,3.5622,3.5639,3.5639,3.5639,3.6067,3.6282,3.631,3.6285,3.6291,3.6308,3.5871,3.5639,3.5639,3.5639,3.5639,3.5639,3.5639,3.5639,0.0,3.5639,0.0,0.0,0.0,0.0,0.0,0.0,0.0,0.0,3.5509,3.5459,3.5346,3.5357,3.506,3.4422,3.3841,3.3182,3.2532,3.191,3.1467,3.1467,3.1467,3.1467,3.1467,3.1467,3.1482,3.1323,3.1351,3.0763,2.9414,2.8969,2.8837,2.8757,2.8117,2.7351,2.6726,2.6602,2.662,2.6577,2.6521,2.6521,2.6521,2.6521,2.6521,2.6521,2.6321,2.6321,2.6289,2.6057,2.6045,2.607,2.6164,2.6208,2.6002,2.6071,2.6296,2.644,2.6521,2.6521,4.0927,4.0831,4.0754,4.0658,4.0527,4.0489,4.0489,4.0489,4.0489,4.0489,4.0489,4.0489,4.0194,3.9698,3.9618,3.932,3.8792,3.8719,3.8707,3.8707,3.8707,3.8707,3.8707,3.8707,3.8707,3.8707,3.8707,3.8419,3.7889,3.752,3.7076,3.6557,3.6011,3.5756,0.0,0.0,0.0,0.0,3.5639,3.5639,3.5639,3.569,3.5723,3.574,3.5728,0.0,3.5739,3.565,3.5639,3.5639,3.5639,0.0,0.0,0.0,0.0,0.0,0.0,0.0,0.0,0.0,0.0,0.0,3.5537,3.5639,3.5622,3.5116,3.4594,3.4046,3.3956,3.3724,3.3045,3.2882,3.2477,3.1781,3.1582,3.1467,3.1467,3.1467,3.1467,3.1467,3.1467,3.1235,3.0639,3.0526,3.0116,2.9136,2.8407,2.798,2.7959,2.7297,2.6905,2.7284,2.6905,2.6521,2.6521,2.6521,2.6521,2.6521,2.6521,2.6465,2.644,2.5753,2.5347,2.5298,2.4625,2.414,2.4135,2.4707,2.5049,2.4255,2.4731,2.5517,2.6308,2.6452,2.6521,4.0835,0.0,4.0658,4.0546,0.0,0.0,4.0489,4.0489,4.0489,4.0489,4.0508,4.036,4.0041,3.9599,3.9414,3.9109,3.8707,3.8707,3.8707,3.8707,3.8707,3.8707,3.8707,3.8707,3.8707,3.8707,3.8707,3.8433,3.7879,3.7398,3.6921,3.6374,3.5854,3.5639,3.5639,3.5639,3.5639,3.5639,3.5639,3.5639,3.5639,3.5639,3.5639,3.5639,0.0,0.0,0.0,0.0,0.0,0.0,0.0,0.0,0.0,0.0,0.0,3.5639,3.5639,3.5639,3.5639,3.5639,3.5639,3.5639,3.5639,3.5639,3.5639,3.5005,3.4448,3.4124,3.3789,3.3326,3.2703,3.2602,3.2327,3.1582,3.1467,3.1467,3.1467,3.1467,3.1467,3.1467,3.1467,3.1205,3.0424,3.0284,2.9736,2.8573,2.7961,2.7522,2.7188,2.6794,2.6726,2.7027,2.6782,2.6521,2.6521,2.6521,2.6452,2.6521,2.6521,2.6258,2.5865,2.5314,2.4867,2.4411,2.3818,2.3486,2.3548,2.3963,2.4116,2.37,2.3933,2.4364,2.4929,2.5028,2.5018,4.0742,4.0696,4.0546,4.0489,4.0489,4.0489,4.0489,4.0489,0.0,0.0,0.0,4.0272,3.9951,3.9583,3.932,3.9017,3.8689,3.8707,3.8707,3.8707,3.8707,3.8707,3.8707,3.8707,3.8707,3.8707,3.8707,3.8438,3.7893,3.7413,3.6956,3.6385,3.5854,3.5639,3.5639,3.5639,3.5639,3.5639,3.5639,3.5639,3.5639,3.5639,3.5639,3.5639,3.5639,3.5639,3.5639,3.5639,3.5639,3.5639,3.5639,3.5639,3.5639,3.5639,3.5639,3.5639,3.5639,3.5639,3.5639,3.5639,3.5639,3.5639,3.5362,3.5249,3.5234,3.4756,3.4286,3.4094,3.356,3.2993,3.2443,3.2405,3.2176,3.1582,3.1467,3.1467,3.1467,3.1351,3.1248,3.1246,3.1113,3.0704,2.9918,2.975,2.9293,2.7906,2.7437,2.7194,2.6458,2.6383,2.6521,2.6521,2.6521,2.644,2.6214,2.6189,2.6189,2.5847,2.5889,2.5688,2.4969,2.4602,2.4119,2.3374,2.3134,2.2928,2.297,2.3073,2.3178,2.3021,2.3161,2.3161,2.2992,2.3018,2.3142,4.0703,4.0677,4.0546,4.0489,4.0489,4.0489,4.0489,4.0489,4.0489,4.0489,4.0489,4.0457,4.0127,3.9605,3.9551,3.9242,3.8707,3.8707,3.8707,0.0,3.8707,3.8707,3.8707,3.8707,3.8707,3.8707,3.8707,3.842,3.7898,3.7434,3.6908,3.6392,3.5871,3.5639,3.5639,3.5639,3.5639,3.5639,3.5639,3.5639,3.5639,3.5639,3.5639,3.5639,3.5639,3.5639,3.5639,3.5639,3.5639,3.5639,3.5639,3.5639,3.5639,3.5639,3.5639,3.5639,3.5639,3.5639,3.5622,3.5639,3.5639,3.5532,3.456,3.3877,3.3889,3.381,3.3242,3.2118,3.1953,3.1732,3.1687,3.167,3.164,3.1524,3.1467,3.1467,3.1467,3.0911,3.0542,3.0543,2.9798,2.908,2.842,2.8199,2.7851,2.699,2.6653,2.6295,2.5688,2.5955,2.6452,2.6521,2.6521,2.6096,2.5411,2.5188,2.4945,2.4056,2.4035,2.4105,2.3813,2.3145,2.2608,2.2264,2.1706,2.1188,2.1155,2.1669,2.1834,2.1473,2.1742,2.1988,2.1363,2.1191,2.1614,4.0658,4.0566,4.0508,4.0489,4.0489,4.0489,4.0489,4.0489,4.0489,4.0489,4.0489,4.0356,4.0139,3.986,3.9494,3.9197,3.8923,3.8762,3.8707,3.8707,3.8707,3.8707,3.8707,3.8707,3.8707,3.8707,3.8707,3.8433,3.7931,3.7432,3.6904,3.6392,3.5871,3.5639,3.5639,3.5639,3.5639,3.5639,3.5639,3.5639,3.5639,3.5639,3.5639,3.5639,3.5639,3.5639,3.5639,3.5639,3.5639,3.5639,3.5639,3.5639,3.5639,3.5639,3.5639,3.5639,3.5639,3.5639,3.5639,3.5253,3.4894,3.456,3.3937,3.3411,3.3048,3.3048,3.2787,3.2152,3.1732,3.1467,3.1467,3.1467,3.1467,3.1467,3.1467,3.1467,3.1409,3.0777,3.0283,3.0222,2.9501,2.865,2.7776,2.7702,2.7383,2.6596,2.6094,2.5523,2.5004,2.485,2.4908,2.49,2.4859,2.4707,2.4246,2.4167,2.3973,2.3514,2.3519,2.3253,2.2832,2.2211,2.187,2.1324,2.0857,2.0644,2.0576,2.0934,2.0934,2.0857,2.0844,2.0968,2.0692,2.0576,2.0966,4.062,4.0489,4.0489,4.0489,4.0489,4.0489,4.0489,4.0489,4.0489,4.0489,4.0473,4.0267,4.0151,4.0044,3.949,3.916,3.909,3.8833,3.8707,3.8707,3.8707,3.8707,3.8707,3.8707,3.8707,3.8707,3.8707,3.8419,3.7913,3.7438,3.6856,3.6266,3.581,3.5639,3.5639,3.5639,3.5639,3.5639,3.5639,3.5639,3.5639,3.5639,3.5639,3.5639,3.5639,3.5532,3.5424,3.5515,3.5515,3.5407,3.5515,3.5639,3.5639,3.5639,3.5526,3.538,3.5367,3.5325,3.5115,3.4544,3.3987,3.3633,3.3287,3.2977,3.2633,3.2473,3.2338,3.2258,3.182,3.1467,3.1467,3.1467,3.1467,3.1467,3.1351,3.1219,3.1146,3.0329,2.9699,2.9624,2.8949,2.8158,2.7647,2.7396,2.7043,2.6186,2.5501,2.4933,2.4409,2.3599,2.3195,2.2961,2.3201,2.3441,2.3217,2.3172,2.3043,2.2966,2.2755,2.2387,2.1814,2.1645,2.1466,2.0769,2.0644,2.0576,2.0576,2.0644,2.0644,2.0644,2.0692,2.0634,2.0634,2.0576,2.0654,4.0508,4.0489,4.0489,4.0489,4.0489,4.0489,4.0489,4.0489,4.0489,4.0489,4.0489,4.0473,4.0303,4.0079,3.9707,3.9389,3.9099,3.8815,3.8707,3.8707,3.8707,3.8707,3.8707,3.8707,3.8707,3.8707,3.8664,3.8373,3.7856,3.7365,3.6641,3.5756,3.5622,3.5639,3.5639,3.5639,3.5639,3.5639,3.5639,3.5639,3.5639,3.5639,3.5639,3.5639,3.5577,3.5316,3.4736,3.5253,3.5299,3.4783,3.5253,3.5577,3.5577,3.5577,3.5329,3.4745,3.4708,3.4424,3.385,3.3145,3.3039,3.3443,3.2407,3.2017,3.2458,3.1965,3.158,3.1599,3.1554,3.1467,3.1467,3.1467,3.1467,3.1351,3.0837,3.0404,3.0208,2.8925,2.7931,2.794,2.7433,2.6671,2.6734,2.6609,2.6186,2.5289,2.486,2.4192,2.2925,2.2328,2.1876,2.1501,2.2253,2.2852,2.2359,2.2105,2.1912,2.1158,2.0966,2.0976,2.0936,2.0839,2.0712,2.0702,2.0576,2.0576,2.0576,2.0576,2.0576,2.0576,2.0576,2.0576,2.0576,2.0576,2.0576,4.0489,4.0489,4.0489,4.0489,4.0489,4.0489,4.0489,4.0489,4.0489,4.0489,4.0489,4.0489,4.045,4.0303,3.9806,3.951,3.9383,3.8931,3.8707,3.8707,3.8707,3.8707,3.8707,3.8707,3.8707,3.8656,3.8384,3.7969,3.7415,3.6672,3.6,3.5684,3.5639,3.5639,3.5639,3.5639,3.5639,3.5639,3.5639,3.538,3.5116,3.538,3.5404,3.5051,3.4996,3.4688,3.4137,3.4301,3.4284,3.4037,3.4284,3.4399,3.4399,3.4442,3.4303,3.4034,3.4005,3.374,3.3033,3.2734,3.2532,3.2407,3.1838,3.1649,3.1916,3.1634,3.1467,3.1467,3.1467,3.1467,3.1467,3.1467,3.1351,3.0911,3.0464,3.0086,2.9566,2.8427,2.7709,2.7659,2.6971,2.6452,2.6383,2.5955,2.5195,2.4271,2.3682,2.2861,2.2113,2.1517,2.1011,2.0789,2.1308,2.1568,2.1286,2.1165,2.0978,2.075,2.0576,2.0576,2.0576,2.0576,2.0644,2.0576,2.0576,2.0576,2.0576,2.0576,2.0576,2.0576,2.0576,2.0576,2.0576,2.0576,2.0576,4.0489,4.0489,4.0489,4.0489,4.0489,4.0489,4.0489,4.0489,4.0489,4.0489,4.0489,4.0489,4.0444,4.0327,3.9838,3.9552,3.9408,3.8913,3.8707,3.8707,3.8707,3.8707,3.8707,3.8707,3.8707,3.8593,3.8144,3.7584,3.6943,3.6079,3.5639,3.5639,3.5639,3.5639,3.5639,3.5639,3.5639,3.5622,3.5442,3.509,3.4691,3.4889,3.4824,3.4355,3.4315,3.4021,3.3391,3.3479,3.3479,3.3339,3.3495,3.3582,3.3617,3.3615,3.3512,3.3307,3.3123,3.2806,3.2302,3.2272,3.2064,3.1582,3.1467,3.1467,3.1452,3.1304,3.1172,3.1099,3.0955,3.0807,3.1146,3.1161,3.0837,3.0086,2.9752,2.9317,2.8671,2.7855,2.7366,2.7288,2.6544,2.5943,2.5622,2.4979,2.423,2.3241,2.2488,2.1811,2.1593,2.1001,2.0644,2.0576,2.0644,2.0644,2.0576,2.0712,2.0576,2.0576,2.0576,2.0576,2.0576,2.0576,2.0576,2.0576,2.0576,2.0576,2.0576,2.0576,2.0576,2.0576,2.0576,2.0576,2.0576,2.0576,2.0576,4.0489,4.0489,4.0489,4.0489,4.0489,4.0489,4.0489,4.0489,4.0489,4.0489,4.0489,4.0489,4.0366,4.011,3.9739,3.9414,3.9144,3.8844,3.8707,3.8707,3.8707,3.8707,3.8707,3.8707,3.8707,3.8585,3.8067,3.7381,3.6452,3.5873,3.5639,3.5639,3.5639,3.5577,3.556,3.5532,3.556,3.538,3.4936,3.4578,3.4453,3.3981,3.3709,3.3571,3.3649,3.3339,3.2788,3.3235,3.3287,3.2641,3.3198,3.3531,3.3582,3.3518,3.3261,3.2645,3.2022,3.1599,3.1612,3.164,3.1509,3.1482,3.1394,3.1452,3.1203,3.0689,3.0367,3.0353,2.9695,2.9554,3.0108,3.0287,2.995,2.9129,2.8376,2.792,2.7789,2.7162,2.6577,2.6395,2.5684,2.4779,2.3863,2.3622,2.3113,2.2342,2.1977,2.1669,2.1011,2.0644,2.0644,2.0576,2.0576,2.0576,2.0576,2.0576,2.0576,2.0576,2.0576,2.0576,2.0576,2.0576,2.0576,2.0576,2.0576,2.0576,2.0576,2.0576,2.0576,2.0576,2.0576,2.0576,2.0576,2.0576,2.0576,4.0489,4.0489,4.0489,4.0489,4.0489,4.0489,4.0489,4.0489,4.0489,4.0489,4.0489,4.0489,4.0233,3.9773,3.9656,3.9414,3.9099,3.8815,3.8707,3.8707,3.8707,3.8707,3.8707,3.8707,3.8493,3.8162,3.7675,3.6902,3.6011,3.5677,3.5639,3.5639,3.5639,3.5407,3.5052,3.4941,3.4768,3.437,3.4074,3.3795,3.3383,3.3111,3.2715,3.2302,3.2734,3.2625,3.191,3.216,3.216,3.191,3.216,3.2241,3.2241,3.2256,3.2165,3.1892,3.1672,3.1467,3.1467,3.1467,3.1278,3.0777,3.0703,3.0482,2.9997,2.9622,2.9457,2.9434,2.9222,2.9026,2.8784,2.9123,2.9115,2.8312,2.7868,2.7484,2.704,2.6645,2.6296,2.5595,2.4659,2.3665,2.2851,2.2529,2.2187,2.1275,2.1148,2.0944,2.0722,2.0576,2.0576,2.0566,2.0576,2.0576,2.0576,2.0576,2.0576,2.0576,2.0576,2.0576,2.0576,2.0576,2.0576,2.0576,2.0576,2.0576,2.0576,2.0576,2.0576,2.0576,2.0576,2.0576,2.0576,2.0576,2.0576,4.0489,4.0489,4.0489,4.0489,4.0489,4.0489,4.0489,4.0489,4.0489,4.0489,4.0489,4.0489,4.0157,3.9668,3.9599,3.9358,3.8971,3.8773,3.8707,3.8707,3.8707,3.8707,3.8707,3.8707,3.842,3.784,3.7232,3.6454,3.5711,3.5639,3.5639,3.5639,3.5639,3.5253,3.4736,3.4592,3.4294,3.3689,3.3381,3.3019,3.2623,3.2397,3.2013,3.1642,3.1951,3.2023,3.1524,3.1467,3.1467,3.1467,3.1467,3.1467,3.1467,3.1467,3.1467,3.1482,3.1235,3.1102,3.1043,3.0851,3.045,2.995,2.9889,2.9591,2.9058,2.8731,2.8602,2.8544,2.8297,2.7877,2.7588,2.7815,2.7934,2.7417,2.7297,2.7108,2.6602,2.6521,2.582,2.4673,2.3646,2.264,2.1788,2.1599,2.1278,2.0634,2.0576,2.0576,2.0576,2.0576,2.0411,2.0157,2.0401,2.0062,1.9743,1.9531,2.0187,2.0391,2.0323,2.0401,2.0469,2.0479,2.0566,2.0566,2.0576,2.0576,2.0576,2.0576,2.0576,2.0576,2.0576,2.0576,2.0576,2.0576,2.0576,4.0489,4.0489,4.0489,4.0489,4.0489,4.0489,4.0489,4.0489,4.0489,4.0489,4.0489,4.0489,4.0157,3.969,3.9599,3.9275,3.8822,3.8707,3.8707,3.8707,3.8707,3.8707,3.8707,3.8707,3.8382,3.779,3.6835,3.6123,3.5639,3.5639,3.5639,3.5639,3.5515,3.5098,3.4592,3.4431,3.412,3.3457,3.2831,3.2554,3.2509,3.1953,3.1569,3.1524,3.1582,3.1582,3.1467,3.1467,3.1467,3.1467,3.1467,3.1467,3.1467,3.1422,3.1467,3.1249,3.0733,3.0349,3.0205,2.9566,2.9254,2.9002,2.9002,2.8925,2.8575,2.8098,2.7709,2.7588,2.7152,2.6571,2.6653,2.6589,2.6633,2.6521,2.6645,2.6589,2.6452,2.6346,2.5697,2.3845,2.2659,2.1669,2.0888,2.0722,2.0702,2.0644,2.0625,2.0664,2.0703,2.0742,2.0253,1.9771,1.9944,2.0023,1.903,1.8333,1.9375,2.0129,1.9991,1.9991,2.011,2.0178,2.0313,2.0411,2.0576,2.0576,2.0576,2.0576,2.0576,2.0576,2.0576,2.0654,2.0576,2.0576,2.0576,4.0489,4.0489,4.0489,4.0489,4.0489,4.0489,4.0489,4.0489,4.0489,4.0489,4.0489,4.0489,4.0157,3.9712,3.9599,3.9268,3.8719,3.8707,3.8707,3.8707,3.8707,3.8707,3.8707,3.8689,3.8256,3.7374,3.6345,3.5802,3.5656,3.5639,3.5639,3.5532,3.5144,3.4592,3.3937,3.3443,3.2879,3.2241,3.1967,3.1864,3.1835,3.1599,3.1467,3.1467,3.1467,3.1467,3.1467,3.1467,3.1467,3.1467,3.1467,3.1467,3.1407,3.0981,3.069,3.0567,2.9848,2.9422,2.9359,2.9129,2.8684,2.8233,2.8117,2.7789,2.7351,2.7113,2.6889,2.6889,2.665,2.6521,2.6383,2.5873,2.5816,2.6396,2.6452,2.6094,2.5438,2.4317,2.3269,2.2542,2.1628,2.0926,2.0693,2.0605,2.0654,2.0674,2.084,2.1016,2.1055,2.115,2.1465,2.114,2.0799,1.9824,1.8878,1.8074,1.8284,1.8892,1.8909,1.9334,1.9543,1.9631,1.9888,2.0165,2.0391,2.0547,2.0537,2.0673,2.0771,2.0673,2.0761,2.0673,2.0654,2.0654,2.0771,4.0489,4.0489,4.0489,4.0489,4.0489,4.0489,4.0489,4.0489,4.0489,4.0489,4.0489,4.0489,4.0157,3.969,3.9599,3.9268,3.875,3.8707,3.8707,3.8707,3.8707,3.8707,3.8634,3.8261,3.7887,3.7119,3.6096,3.5639,3.5639,3.5639,3.5639,3.5532,3.4941,3.4284,3.3582,3.2949,3.2216,3.164,3.1524,3.1467,3.1467,3.1467,3.1467,3.1424,3.1191,3.1057,3.1058,3.0777,3.0703,3.0881,3.0792,3.06,3.0498,3.0119,2.9803,2.967,2.9032,2.8538,2.8468,2.8182,2.7868,2.7364,2.7229,2.7108,2.6589,2.6521,2.6521,2.6521,2.6521,2.6364,2.588,2.5431,2.5242,2.5564,2.5384,2.5158,2.4292,2.3018,2.2226,2.2071,2.1501,2.1015,2.1056,2.1064,2.1064,2.1103,2.1299,2.1475,2.1432,2.1259,2.131,2.1024,2.003,1.9248,1.8674,1.8054,1.7419,1.7493,1.7557,1.8255,1.8745,1.8841,1.8976,1.9381,1.965,2.0141,2.0292,2.1016,2.1288,2.1083,2.0752,2.1181,2.1251,2.1263,2.1271,4.0489,4.0489,4.0489,4.0489,4.0489,4.0489,4.0489,4.0489,4.0489,4.0489,4.0489,4.0457,4.0138,3.9671,3.9552,3.9216,3.878,3.8707,3.8707,3.8707,3.8707,3.8658,3.8473,3.7747,3.728,3.6929,3.6054,3.5622,3.5639,3.5639,3.5577,3.5424,3.48,3.4186,3.3443,3.2841,3.2104,3.1582,3.1467,3.1467,3.1467,3.1467,3.1467,3.1439,3.078,3.0378,3.0326,2.9566,2.938,2.9972,2.9561,2.9231,2.9073,2.9001,2.8914,2.889,2.8092,2.7769,2.7496,2.7162,2.6714,2.6645,2.6645,2.6521,2.6521,2.6521,2.6521,2.6477,2.642,2.6064,2.537,2.4877,2.4618,2.4089,2.3921,2.3698,2.3468,2.2592,2.2189,2.2328,2.1838,2.1342,2.1753,2.1738,2.1792,2.1797,2.1836,2.1914,2.1777,2.1315,2.0482,1.9933,1.9462,1.8575,1.8065,1.7347,1.6684,1.6683,1.6718,1.729,1.8005,1.8102,1.83,1.8718,1.9071,1.9603,1.9952,2.0339,2.0719,2.0534,2.078,2.1527,2.1392,2.0869,2.0726,4.0489,4.0489,4.0489,4.0489,4.0489,4.0489,4.0489,4.0489,4.0489,4.0489,4.0473,4.0304,4.0002,3.9618,3.9333,3.9045,3.8762,3.8707,3.8707,3.8707,3.8707,3.8446,3.8085,3.7512,3.7,3.6596,3.5985,3.5639,3.5639,3.5566,3.5333,3.4847,3.4186,3.3547,3.2895,3.216,3.1739,3.1524,3.1467,3.1467,3.1467,3.1467,3.1467,3.1439,3.0686,3.0301,3.0129,2.8812,2.8427,2.924,2.9136,2.8982,2.883,2.8356,2.8067,2.7939,2.7357,2.6853,2.682,2.6658,2.6521,2.6521,2.6383,2.6521,2.6521,2.6521,2.6521,2.6407,2.6094,2.571,2.5321,2.4393,2.3534,2.2744,2.305,2.3328,2.3133,2.2573,2.2018,2.2056,2.1856,2.187,2.194,2.2026,2.1978,2.2035,2.2084,2.2259,2.1845,2.1117,2.0175,2.0041,1.9608,1.8352,1.743,1.6586,1.6051,1.6012,1.6053,1.6378,1.7117,1.7574,1.7963,1.839,1.8491,1.8904,1.8771,1.8922,1.9195,1.9861,1.9775,2.0009,1.9512,1.8975,1.9191,4.0489,4.0489,4.0489,4.0489,4.0489,4.0489,4.0489,4.0489,4.0489,4.0489,4.0441,4.0213,3.9905,3.9567,3.9237,3.898,3.8719,3.8707,3.8707,3.8658,3.8446,3.8183,3.7853,3.7422,3.6915,3.6388,3.5854,3.5622,3.552,3.5345,3.4934,3.4512,3.3633,3.2986,3.2641,3.1894,3.1467,3.1467,3.1467,3.1467,3.1467,3.1467,3.1249,3.0925,3.0187,2.954,2.8698,2.7683,2.7484,2.7855,2.7907,2.792,2.7947,2.7491,2.7156,2.7156,2.6759,2.6521,2.6521,2.6521,2.6521,2.6383,2.6164,2.5873,2.5812,2.5689,2.5517,2.5453,2.5303,2.506,2.4523,2.3577,2.2784,2.2399,2.2768,2.3103,2.2788,2.2241,2.208,2.2129,2.2133,2.2233,2.2349,2.2358,2.2361,2.2322,2.2016,2.2015,2.1802,2.0748,2.0034,1.9761,1.894,1.7609,1.713,1.6462,1.5987,1.5798,1.5825,1.594,1.636,1.7013,1.7037,1.734,1.7751,1.7965,1.7925,1.8192,1.9026,1.9373,1.8758,1.8619,1.8526,1.8037,1.8084,4.0489,4.0489,4.0489,4.0489,4.0489,4.0489,4.0473,4.0457,4.0441,4.0399,4.031,4.0101,3.9763,3.9547,3.9165,3.8923,3.8707,3.8707,3.8627,3.8465,3.8183,3.7843,3.7542,3.7201,3.6728,3.6232,3.5766,3.5543,3.5308,3.4874,3.4477,3.4034,3.3093,3.2586,3.2327,3.1796,3.1524,3.1467,3.1467,3.1392,3.1275,3.1202,3.0867,3.0086,2.931,2.817,2.7175,2.6589,2.6577,2.6521,2.6521,2.6645,2.6589,2.6533,2.6546,2.6559,2.6546,2.6521,2.6452,2.6383,2.6233,2.6107,2.5431,2.4945,2.4933,2.4732,2.4612,2.4602,2.4582,2.4275,2.3604,2.2859,2.2693,2.2617,2.2891,2.2715,2.2275,2.201,2.2162,2.2532,2.2524,2.2717,2.2931,2.2979,2.2775,2.2051,2.1669,2.1051,2.0534,1.962,1.9222,1.9131,1.794,1.6567,1.6466,1.6466,1.6082,1.5825,1.5825,1.5832,1.5832,1.6157,1.6042,1.6157,1.6795,1.7079,1.721,1.7817,1.8582,1.8481,1.7734,1.8279,1.8714,1.7961,1.7684,4.0489,4.0489,4.0489,4.0489,4.0489,4.0489,4.0372,4.0195,4.0214,4.0074,3.9787,3.9463,3.9303,3.9209,3.8939,3.8732,3.8689,3.8658,3.8496,3.8047,3.798,3.7433,3.6893,3.6622,3.6284,3.5882,3.5694,3.5299,3.4899,3.4577,3.403,3.3102,3.2772,3.2272,3.1796,3.1625,3.1467,3.1467,3.1452,3.1142,3.0689,3.0529,3.016,2.9293,2.841,2.7537,2.6782,2.6521,2.6521,2.6521,2.6521,2.6521,2.6521,2.6521,2.6521,2.6521,2.6521,2.6521,2.6383,2.5804,2.5312,2.5301,2.4757,2.4408,2.4396,2.4476,2.4579,2.461,2.4339,2.3886,2.327,2.3076,2.2969,2.2978,2.3047,2.3076,2.292,2.2804,2.2861,2.29,2.2978,2.3028,2.3057,2.2227,2.1922,2.1615,2.0845,2.0034,1.9222,1.8411,1.8133,1.8033,1.7304,1.6109,1.6109,1.6197,1.6015,1.5825,1.5825,1.5825,1.5825,1.5825,1.5825,1.5832,1.594,1.6298,1.6574,1.648,1.6965,1.6805,1.6819,1.7094,1.7246,1.702,1.7122,4.0489,4.0489,4.0489,4.0489,4.0489,4.0489,4.0336,4.0139,4.0101,3.991,3.9602,3.9252,3.9091,3.9081,3.8817,3.8707,3.8707,3.8707,3.8415,3.7946,3.7685,3.7135,3.6504,3.6125,3.5848,3.5571,3.5262,3.4864,3.4545,3.3966,3.3295,3.2633,3.2272,3.1894,3.1582,3.1467,3.1467,3.1407,3.1127,3.0717,3.0381,2.9889,2.9267,2.8454,2.7643,2.6905,2.6521,2.6521,2.6521,2.6521,2.6521,2.6521,2.6521,2.6521,2.6521,2.6521,2.6521,2.6164,2.5804,2.5312,2.4897,2.4599,2.3904,2.3744,2.3608,2.3774,2.3691,2.3703,2.3635,2.3388,2.3154,2.3135,2.3144,2.3144,2.3144,2.3144,2.3144,2.3144,2.3144,2.3144,2.3115,2.3047,2.2754,2.1896,2.141,2.1338,1.9497,1.868,1.8319,1.7591,1.6936,1.6655,1.6292,1.5825,1.5825,1.592,1.592,1.5825,1.5825,1.5825,1.5825,1.5825,1.5825,1.5832,1.5832,1.5832,1.6015,1.5825,1.5825,1.6123,1.6224,1.5927,1.5933,1.636,1.6367,4.0489,4.0489,4.0489,4.0489,4.0489,4.0438,4.0267,4.0022,3.9982,3.9671,3.9457,3.9152,3.8995,3.8983,3.8799,3.8676,3.8578,3.8515,3.8183,3.7542,3.7193,3.6764,3.6249,3.5864,3.5559,3.5425,3.4953,3.4588,3.3971,3.3201,3.2701,3.2348,3.1838,3.1582,3.1524,3.1467,3.1467,3.1422,3.0776,3.0264,2.99,2.9206,2.8409,2.7592,2.6977,2.6589,2.6521,2.6521,2.6521,2.6521,2.6521,2.6521,2.6521,2.6521,2.6521,2.6465,2.6308,2.5807,2.5206,2.4753,2.4317,2.3951,2.3253,2.2901,2.2981,2.2981,2.2958,2.2898,2.2994,2.3154,2.3144,2.3144,2.3144,2.3144,2.3144,2.3144,2.3144,2.3144,2.3144,2.3144,2.3144,2.3144,2.2549,2.1823,2.1401,2.0637,1.8788,1.7412,1.7131,1.6857,1.6386,1.6103,1.592,1.5832,1.5825,1.5825,1.5825,1.5825,1.5825,1.5825,1.5825,1.5825,1.5825,1.5825,1.5825,1.5825,1.5825,1.5825,1.5825,1.5825,1.5825,1.5825,1.5825,1.5825,1.5825,4.0489,4.0489,4.0489,4.0489,4.0473,4.0269,3.9983,3.9668,3.9414,3.909,3.8873,3.8773,3.878,3.8744,3.8744,3.8483,3.8117,3.7998,3.7578,3.6904,3.6603,3.6308,3.5854,3.5565,3.5279,3.4858,3.4514,3.3973,3.3244,3.2665,3.2258,3.1757,3.1582,3.1524,3.1467,3.1467,3.1394,3.1174,3.0484,2.9789,2.9159,2.8384,2.761,2.6891,2.6559,2.6533,2.6521,2.6521,2.6521,2.6521,2.6521,2.6521,2.6521,2.6521,2.6521,2.6352,2.5942,2.5433,2.4944,2.3918,2.3275,2.2888,2.2747,2.2615,2.2685,2.2847,2.2869,2.2977,2.2978,2.3144,2.3144,2.3144,2.3144,2.3144,2.3144,2.3144,2.3144,2.3144,2.3144,2.3144,2.3144,2.2891,2.2232,2.1329,2.0447,1.9422,1.7863,1.6756,1.6386,1.6197,1.6015,1.592,1.5825,1.5825,1.5825,1.5825,1.5825,1.5825,1.5825,1.5825,1.5825,1.5825,1.5825,1.5825,1.5825,1.5825,1.5825,1.5825,1.5825,1.5825,1.5825,1.5825,1.5825,1.5825,1.5825,4.0489,4.0508,4.0375,4.0285,4.0232,3.9963,3.9645,3.9339,3.9178,3.8961,3.8762,3.8707,3.8707,3.8645,3.8391,3.8018,3.7632,3.7542,3.7097,3.6498,3.6392,3.6097,3.5554,3.5296,3.4678,3.4134,3.3713,3.3316,3.2616,3.2185,3.1892,3.1599,3.1467,3.1467,3.1351,3.1029,3.097,3.069,2.9725,2.882,2.8344,2.7517,2.6866,2.6653,2.6521,2.6521,2.6521,2.6521,2.6521,2.6521,2.6521,2.6521,2.6521,2.6521,2.6521,2.6421,2.5975,2.5265,2.4792,2.3797,2.3367,2.2676,2.2557,2.2598,2.2803,2.2998,2.3135,2.3144,2.3144,2.3144,2.3144,2.3144,2.3144,2.3144,2.3144,2.3144,2.3144,2.3144,2.3144,2.3144,2.3144,2.2744,2.177,2.0814,1.953,1.8218,1.6842,1.6292,1.5825,1.5825,1.5825,1.5825,1.5825,1.5825,1.5825,1.5825,1.5825,1.5825,1.5825,1.5825,1.5825,1.5825,1.5825,1.5825,1.5825,1.5825,1.5825,1.5825,1.5825,1.5825,1.5825,1.5825,1.5825,1.5825,1.5825,4.043,4.0389,4.012,4.0002,3.9943,3.9645,3.9339,3.9125,3.9036,3.8913,3.8719,3.8676,3.8632,3.8427,3.8003,3.7522,3.7076,3.702,3.6666,3.6291,3.6182,3.5924,3.5346,3.4846,3.4234,3.342,3.3039,3.2542,3.2226,3.1838,3.1582,3.1467,3.1467,3.1467,3.1351,3.0777,3.0404,2.9789,2.8626,2.774,2.7336,2.6848,2.6521,2.6521,2.6521,2.6521,2.6521,2.6521,2.6521,2.6521,2.6521,2.6521,2.6521,2.6521,2.6521,2.6452,2.6119,2.5241,2.458,2.3666,2.3026,2.2547,2.2634,2.2822,2.2998,2.3096,2.3144,2.3144,2.3144,2.3144,2.3144,2.3144,2.3144,2.3144,2.3144,2.3144,2.3144,2.3144,2.3144,2.3144,2.3135,2.2498,2.1527,1.9895,1.8621,1.8041,1.6756,1.6197,1.5825,1.5825,1.5825,1.5825,1.5825,1.5825,1.5825,1.5825,1.5825,1.5825,1.5825,1.5825,1.5825,1.5825,1.5825,1.5825,1.5825,1.5825,1.5825,1.5825,1.5825,1.5825,1.5825,1.5825,1.5825,1.5825,1.5825,4.0148,4.0101,3.9797,3.9645,3.9599,3.9289,3.9152,3.9063,3.8826,3.8732,3.8634,3.8609,3.838,3.7917,3.7502,3.6978,3.6603,3.644,3.6249,3.5854,3.5677,3.5374,3.4811,3.4676,3.3806,3.2928,3.2631,3.2201,3.1856,3.1552,3.1467,3.1467,3.1467,3.1467,3.1278,3.051,3.0329,2.9972,2.8526,2.7362,2.6793,2.6552,2.6521,2.6521,2.6521,2.6521,2.6521,2.6521,2.6521,2.6521,2.6521,2.6521,2.6521,2.6521,2.6521,2.6005,2.5111,2.394,2.4006,2.3245,2.2675,2.2689,2.2832,2.3037,2.3115,2.3144,2.3144,2.3144,2.3144,2.3144,2.3144,2.3144,2.3144,2.3144,2.3144,2.3144,2.3144,2.3144,2.3144,2.2921,2.2814,2.2152,2.1283,1.9458,1.7792,1.7305,1.6756,1.6197,1.5825,1.5825,1.5825,1.5825,1.5825,1.5825,1.5825,1.5825,1.5825,1.5825,1.5825,1.5825,1.5825,1.5825,1.5825,1.5825,1.5825,1.5825,1.5825,1.5825,1.5825,1.5825,1.5825,1.5825,1.5825,1.5825,1.5825,3.9639,3.9775,3.9438,3.9333,3.9282,3.899,3.8884,3.8796,3.8442,3.8237,3.8193,3.7955,3.7557,3.7131,3.6835,3.6457,3.6054,3.5985,3.5854,3.5498,3.5253,3.4894,3.4477,3.3843,3.3026,3.2672,3.218,3.1862,3.1554,3.1467,3.1467,3.1467,3.1467,3.1204,3.0911,3.0011,2.9317,2.8616,2.7617,2.6848,2.6607,2.6521,2.6521,2.6521,2.6521,2.6521,2.6521,2.6521,2.6521,2.6521,2.6521,2.6521,2.6521,2.6521,2.6452,2.6339,2.4868,2.4209,2.4327,2.3328,2.2845,2.2781,2.3027,2.3115,2.3135,2.3144,2.3144,2.3144,2.3144,2.3144,2.3144,2.3144,2.3144,2.3144,2.3144,2.3144,2.3144,2.3144,2.3038,2.2814,2.2513,2.1731,2.0993,1.9674,1.7938,1.663,1.6386,1.6015,1.5825,1.5825,1.5825,1.5825,1.5825,1.5825,1.5825,1.5825,1.5825,1.5825,1.5825,1.5825,1.5825,1.5825,1.5825,1.5825,1.5825,1.5825,1.5825,1.5825,1.5825,1.5825,1.5825,1.5825,1.5825,1.5825,1.5825,3.9137,3.9371,3.9109,3.8999,3.8971,3.8664,3.8496,3.8415,3.7946,3.7733,3.7584,3.725,3.6802,3.644,3.6277,3.5968,3.5667,3.5639,3.547,3.5207,3.4847,3.4431,3.3841,3.3013,3.2582,3.2326,3.187,3.1539,3.1468,3.1338,3.1191,3.1482,3.1467,3.1087,3.0269,2.9504,2.8671,2.7537,2.6947,2.6564,2.6521,2.6521,2.6521,2.6521,2.6521,2.6521,2.6521,2.6521,2.6521,2.6521,2.6521,2.6521,2.6521,2.6521,2.6521,2.6169,2.4987,2.4355,2.4248,2.3742,2.3213,2.31,2.3144,2.3144,2.3144,2.3144,2.3144,2.3144,2.3144,2.3144,2.3144,2.3144,2.3144,2.3144,2.3144,2.3144,2.3144,2.3144,2.3135,2.3018,2.2444,2.1239,2.0542,1.9841,1.8392,1.636,1.5825,1.5825,1.5825,1.5825,1.5825,1.5825,1.5825,1.5825,1.5825,1.5825,1.5825,1.5825,1.5825,1.5825,1.5825,1.5825,1.5825,1.5825,1.5825,1.5825,1.5825,1.5825,1.5825,1.5825,1.5825,1.5825,1.5825,1.5825,1.5825,3.8738,3.8732,3.8732,3.8701,3.867,3.8183,3.798,3.7911,3.7433,3.7203,3.7093,3.6696,3.6397,3.6242,3.5836,3.5588,3.5577,3.5577,3.5161,3.4783,3.4528,3.3836,3.316,3.2619,3.2244,3.1743,3.1509,3.1509,3.1323,3.0855,3.0995,3.1352,3.1102,3.0837,3.0072,2.8939,2.7986,2.704,2.6521,2.6521,2.6521,2.6521,2.6521,2.6521,2.6521,2.6521,2.6521,2.6521,2.6521,2.6521,2.6521,2.6302,2.6233,2.6239,2.6227,2.5654,2.485,2.428,2.4168,2.3463,2.2893,2.2978,2.3144,2.3144,2.3144,2.3144,2.3144,2.3144,2.3144,2.3144,2.3144,2.3144,2.3144,2.3144,2.3144,2.3144,2.3144,2.3144,2.3135,2.3047,2.2482,2.1453,2.0317,1.9715,1.8282,1.636,1.5825,1.5825,1.5825,1.5825,1.5825,1.5825,1.5825,1.5825,1.5825,1.5825,1.5825,1.5825,1.5825,1.5825,1.5825,1.5825,1.5825,1.5825,1.5825,1.5825,1.5825,1.5825,1.5825,1.5825,1.5825,1.5825,1.5825,1.5825,1.5825,3.8496,3.8234,3.8183,3.8216,3.8183,3.798,3.772,3.7414,3.6921,3.6492,3.6225,3.5987,3.5904,3.5746,3.5278,3.5005,3.4941,3.4512,3.4235,3.3887,3.3479,3.3093,3.2548,3.2149,3.1758,3.1552,3.1467,3.1467,3.1395,3.0535,3.0477,3.0594,3.0222,2.9442,2.8684,2.8117,2.7229,2.685,2.6521,2.6521,2.6521,2.6521,2.6521,2.6521,2.6521,2.6521,2.6521,2.6521,2.6521,2.6521,2.6521,2.6164,2.5734,2.5681,2.5402,2.4921,2.4052,2.3863,2.378,2.3144,2.2695,2.3027,2.3144,2.3144,2.3144,2.3144,2.3144,2.3144,2.3144,2.3144,2.3144,2.3144,2.3144,2.3144,2.3144,2.3144,2.3144,2.3144,2.3135,2.3047,2.2677,2.1943,2.0759,1.9503,1.7893,1.636,1.6042,1.5825,1.5825,1.5825,1.5825,1.5825,1.5825,1.5825,1.5825,1.5825,1.5825,1.5825,1.5825,1.5825,1.5825,1.5825,1.5825,1.5825,1.5825,1.5825,1.5825,1.5825,1.5825,1.5825,1.5825,1.5825,1.5825,1.5825,1.5825,3.805,3.7685,3.7685,3.7685,3.7685,3.7524,3.7268,3.6904,3.6416,3.5985,3.5639,3.5622,3.5446,3.5185,3.488,3.4447,3.4284,3.3887,3.3531,3.3235,3.2949,3.2477,3.216,3.1823,3.1595,3.1452,3.1217,3.1114,3.1026,3.0035,2.9519,2.9156,2.8748,2.8051,2.7789,2.6973,2.6521,2.6521,2.6521,2.6521,2.6521,2.6521,2.6521,2.6521,2.6521,2.6521,2.6521,2.6521,2.6521,2.6521,2.6383,2.5955,2.5382,2.4886,2.4443,2.3794,2.3339,2.3265,2.3184,2.3026,2.2803,2.3096,2.3144,2.3144,2.3144,2.3144,2.3144,2.3144,2.3144,2.3144,2.3144,2.3144,2.3144,2.3144,2.3144,2.3144,2.3144,2.3144,2.3144,2.3047,2.2677,2.2296,2.0845,1.9461,1.7638,1.634,1.6035,1.5825,1.5825,1.5825,1.5825,1.5825,1.5825,1.5825,1.5825,1.5825,1.5825,1.5825,1.5825,1.5825,1.5825,1.5825,1.5825,1.5825,1.5825,1.5825,1.5825,1.5825,1.5825,1.5825,1.5825,1.5825,1.5825,1.5825,1.5825,3.7246,3.7228,3.7228,3.721,3.7097,3.6643,3.644,3.6374,3.5898,3.5633,3.5526,3.5498,3.5174,3.4693,3.4415,3.4053,3.3649,3.3443,3.313,3.2641,3.2477,3.212,3.1796,3.1524,3.1467,3.1304,3.0909,3.0542,3.0383,2.8949,2.8217,2.7867,2.7471,2.7095,2.755,2.6918,2.6533,2.6521,2.6521,2.6521,2.6521,2.6521,2.6521,2.6521,2.6521,2.6521,2.6521,2.6521,2.6521,2.6521,2.6521,2.5873,2.4933,2.4791,2.4284,2.3279,2.3171,2.3206,2.3236,2.3178,2.3114,2.3038,2.3144,2.3144,2.3144,2.3144,2.3144,2.3144,2.3144,2.3144,2.3144,2.3144,2.3144,2.3144,2.3144,2.3144,2.3144,2.3144,2.3144,2.3144,2.2931,2.2532,2.09,1.9274,1.7483,1.6298,1.592,1.5825,1.5825,1.5825,1.5825,1.5825,1.5825,1.5825,1.5825,1.5825,1.5825,1.5825,1.5825,1.5825,1.5825,1.5825,1.5825,1.5825,1.5825,1.5825,1.5825,1.5825,1.5825,1.5825,1.5825,1.5825,1.5825,1.5825,1.5825,3.6984,3.6661,3.6684,3.644,3.6207,3.6333,3.6224,3.5898,3.5677,3.5346,3.5009,3.4931,3.4545,3.4032,3.3519,3.3182,3.2933,3.2312,3.1951,3.1951,3.1894,3.1724,3.1524,3.1467,3.1452,3.1275,3.0719,3.0201,3.028,2.8439,2.7776,2.7549,2.6905,2.6714,2.6782,2.6602,2.6521,2.6521,2.6521,2.6521,2.6521,2.6521,2.6521,2.6521,2.6521,2.6521,2.6452,2.6452,2.6383,2.6302,2.6302,2.5499,2.4345,2.3973,2.324,2.2297,2.1919,2.2665,2.2924,2.3124,2.3115,2.3144,2.3144,2.3144,2.3144,2.3144,2.3144,2.3144,2.3144,2.3144,2.3144,2.3144,2.3144,2.3144,2.3144,2.3144,2.3144,2.3144,2.3144,2.3144,2.3038,2.197,2.0509,1.9447,1.7832,1.6588,1.6224,1.5927,1.5832,1.5825,1.5825,1.5825,1.5825,1.5825,1.5825,1.5825,1.5825,1.5825,1.5825,1.5825,1.5825,1.5825,1.5825,1.5825,1.5825,1.5825,1.5825,1.5825,1.5825,1.5825,1.5825,1.5825,1.5825,1.5825,1.5825,3.6437,3.6131,3.6139,3.5941,3.5711,3.5985,3.5793,3.5299,3.5035,3.4655,3.4305,3.4248,3.3864,3.3266,3.2812,3.2312,3.2216,3.1796,3.1524,3.1467,3.1524,3.1524,3.1524,3.1437,3.1275,3.101,3.0251,2.9681,2.9199,2.7945,2.7352,2.7066,2.6769,2.6589,2.6521,2.6521,2.6521,2.6521,2.6521,2.6521,2.6521,2.6521,2.6521,2.6521,2.6521,2.6521,2.6383,2.6245,2.6025,2.5943,2.5499,2.4767,2.3512,2.28,2.222,2.1429,2.1605,2.2428,2.29,2.3096,2.3144,2.3144,2.3144,2.3144,2.3144,2.3144,2.3144,2.3144,2.3144,2.3144,2.3144,2.3144,2.3144,2.3144,2.3144,2.3144,2.3144,2.3144,2.3144,2.3144,2.2824,2.1563,2.0473,1.9463,1.8326,1.734,1.6529,1.6224,1.592,1.5825,1.5825,1.5825,1.5825,1.5825,1.5825,1.5825,1.5825,1.5825,1.5825,1.5825,1.5825,1.5825,1.5825,1.5825,1.5825,1.5825,1.5825,1.5825,1.5825,1.5825,1.5825,1.5825,1.5825,1.5825,1.5825,3.5577,3.5577,3.556,3.5515,3.5515,3.5345,3.5052,3.4544,3.3937,3.3649,3.3557,3.3564,3.3197,3.266,3.2496,3.2176,3.1739,3.1524,3.1524,3.1467,3.1467,3.1467,3.1379,3.1276,3.0863,3.0162,2.9399,2.8661,2.7747,2.7143,2.6721,2.6589,2.6589,2.6521,2.6521,2.6521,2.6521,2.6521,2.6521,2.6521,2.6521,2.6521,2.6521,2.6521,2.6521,2.6521,2.6233,2.5804,2.53,2.485,2.4264,2.322,2.2403,2.2041,2.1621,2.1597,2.2089,2.2549,2.3018,2.3135,2.3144,2.3144,2.3144,2.3144,2.3144,2.3144,2.3144,2.3144,2.3144,2.3144,2.3144,2.3144,2.3144,2.3144,2.3144,2.3144,2.3144,2.3144,2.3144,2.3028,2.2814,2.2073,2.122,2.0113,1.9007,1.8226,1.7424,1.6871,1.648,1.5825,1.5825,1.5825,1.5825,1.5825,1.5825,1.5825,1.5825,1.5825,1.5825,1.5825,1.5825,1.5825,1.5825,1.5825,1.5825,1.5825,1.5825,1.5825,1.5825,1.5825,1.5825,1.5825,1.5825,1.5825,1.5825,3.5299,3.4894,3.4894,3.464,3.4153,3.3649,3.3598,3.3836,3.3633,3.3382,3.285,3.2877,3.2514,3.1862,3.1799,3.1712,3.1582,3.1467,3.1524,3.1467,3.1409,3.1087,3.0808,3.0632,3.009,2.9354,2.8553,2.8,2.7592,2.6891,2.6533,2.6521,2.6521,2.6521,2.6521,2.6521,2.6521,2.6521,2.6521,2.6521,2.6521,2.6521,2.6521,2.6521,2.6521,2.6521,2.6233,2.5441,2.5004,2.4779,2.3963,2.2999,2.2167,2.1988,2.1866,2.1839,2.2217,2.266,2.3008,2.3144,2.3144,2.3144,2.3144,2.3144,2.3144,2.3144,2.3144,2.3144,2.3144,2.3144,2.3144,2.3144,2.3144,2.3144,2.3144,2.3144,2.3144,2.3144,2.3135,2.3028,2.2804,2.2347,2.1536,2.0832,1.9735,1.9019,1.8308,1.7702,1.6943,1.6292,1.5825,1.5825,1.5825,1.5825,1.5825,1.5825,1.5825,1.5825,1.5825,1.5825,1.5825,1.5825,1.5825,1.5825,1.5825,1.5825,1.5825,1.5825,1.5825,1.5825,1.5825,1.5825,1.5825,1.5825,1.5825,3.5207,3.464,3.4592,3.4087,3.3235,3.2788,3.2734,3.2772,3.2756,3.2493,3.2214,3.2133,3.191,3.1597,3.1539,3.1524,3.1524,3.1467,3.1467,3.1467,3.1161,3.0777,3.0393,2.986,2.9259,2.8533,2.7996,2.7592,2.725,2.6891,2.6521,2.6521,2.6521,2.6521,2.6521,2.6521,2.6521,2.6521,2.6521,2.6521,2.6521,2.6521,2.6521,2.6521,2.6521,2.6452,2.6233,2.5288,2.4492,2.412,2.3231,2.2124,2.1558,2.1714,2.2132,2.2159,2.2505,2.2863,2.3038,2.3144,2.3144,2.3144,2.3144,2.3144,2.3144,2.3144,2.3144,2.3144,2.3144,2.3144,2.3144,2.3144,2.3144,2.3144,2.3144,2.3144,2.3144,2.3144,2.3038,2.3028,2.2698,2.2349,2.1803,2.1139,2.0624,2.0103,1.9307,1.8264,1.7404,1.6386,1.6015,1.5825,1.5825,1.5825,1.5825,1.5825,1.5825,1.5825,1.5825,1.5825,1.5825,1.5825,1.5825,1.5825,1.5825,1.5825,1.5825,1.5825,1.5825,1.5825,1.5825,1.5825,1.5825,1.5825,1.5825,3.5161,3.4496,3.4382,3.3531,3.2571,3.2492,3.2104,3.1524,3.1625,3.1509,3.1552,3.1509,3.1524,3.1467,3.1467,3.1467,3.1409,3.1351,3.1204,3.1351,3.0524,3.0011,2.9628,2.9247,2.8469,2.7876,2.7471,2.7143,2.6678,2.6521,2.6521,2.6521,2.6521,2.6521,2.6521,2.6521,2.6521,2.6521,2.6521,2.6521,2.6521,2.6521,2.6521,2.6521,2.6452,2.6383,2.5861,2.4838,2.3452,2.2787,2.1973,2.0867,2.1101,2.1479,2.2053,2.2471,2.2756,2.2931,2.3047,2.3135,2.3144,2.3144,2.3144,2.3144,2.3144,2.3144,2.3144,2.3144,2.3144,2.3144,2.3144,2.3144,2.3144,2.3144,2.3144,2.3144,2.3144,2.3144,2.3047,2.3038,2.2931,2.2678,2.2591,2.2054,2.178,2.1302,2.0133,1.8956,1.7948,1.685,1.6109,1.5825,1.5825,1.5825,1.5825,1.5825,1.5825,1.5825,1.5825,1.5825,1.5825,1.5825,1.5825,1.5825,1.5825,1.5825,1.5825,1.5825,1.5825,1.5825,1.5825,1.5825,1.5825,1.5825,1.5825,3.4911,3.3735,3.2703,3.2048,3.1796,3.1754,3.1682,3.1524,3.1467,3.1467,3.1467,3.1467,3.1439,3.141,3.1409,3.1336,3.1219,3.0777,3.0644,3.0329,2.9704,2.9052,2.8529,2.8217,2.7551,2.7005,2.6752,2.6772,2.6546,2.6521,2.6521,2.6521,2.6521,2.6521,2.6521,2.6521,2.6521,2.6521,2.6521,2.6521,2.6521,2.6521,2.6521,2.6521,2.6452,2.6025,2.5358,2.4325,2.3147,2.2253,2.1298,2.0906,2.1083,2.16,2.2041,2.2457,2.2911,2.3038,2.3144,2.3144,2.3144,2.3144,2.3144,2.3144,2.3144,2.3144,2.3144,2.3144,2.3144,2.3144,2.3144,2.3144,2.3144,2.3144,2.3144,2.3144,2.3144,2.3144,2.3144,2.3144,2.3144,2.3144,2.3144,2.3057,2.2969,2.1952,2.0404,1.9214,1.8488,1.7483,1.6292,1.592,1.5825,1.5825,1.5825,1.5825,1.5825,1.5825,1.5825,1.5825,1.5825,1.5825,1.5825,1.5825,1.5825,1.5825,1.5825,1.5825,1.5825,1.5825,1.5825,1.5825,1.5825,1.5825,1.5825,3.4087,3.3039,3.1951,3.1467,3.1467,3.1467,3.1467,3.1467,3.1467,3.1467,3.1467,3.1482,3.1323,3.1027,3.0939,3.0703,3.045,2.9936,2.9752,2.9442,2.8876,2.8298,2.7736,2.7392,2.7031,2.6577,2.6521,2.6533,2.6521,2.6521,2.6521,2.6521,2.6521,2.6521,2.6521,2.6521,2.6521,2.6521,2.6521,2.6521,2.6521,2.6521,2.6521,2.6521,2.6383,2.5873,2.5004,2.4036,2.3073,2.2113,2.1155,2.1131,2.138,2.1769,2.2207,2.264,2.3018,2.3144,2.3144,2.3144,2.3144,2.3144,2.3144,2.3144,2.3144,2.3144,2.3144,2.3144,2.3144,2.3144,2.3144,2.3144,2.3144,2.3144,2.3144,2.3144,2.3144,2.3144,2.3144,2.3144,2.3144,2.3144,2.3144,2.3144,2.296,2.2775,2.1123,1.9753,1.894,1.7755,1.6662,1.592,1.5825,1.5825,1.5825,1.5825,1.5825,1.5825,1.5825,1.5825,1.5825,1.5825,1.5825,1.5825,1.5825,1.5825,1.5825,1.5825,1.5825,1.5825,1.5825,1.5825,1.5825,1.5825,1.5825,3.3272,3.2547,3.1796,3.1467,3.1467,3.1467,3.1467,3.1467,3.1409,3.1306,3.1246,3.1116,3.0739,3.0473,3.0301,2.9651,2.9178,2.8989,2.8876,2.862,2.792,2.7537,2.7229,2.6905,2.6645,2.6508,2.6521,2.6521,2.6521,2.6521,2.6521,2.6521,2.6521,2.6521,2.6521,2.6521,2.6521,2.6521,2.6521,2.6521,2.6521,2.6521,2.6521,2.6521,2.6383,2.5873,2.4921,2.3975,2.2999,2.2035,2.1178,2.1318,2.1599,2.1949,2.2473,2.2891,2.3038,2.3144,2.3144,2.3144,2.3144,2.3144,2.3144,2.3144,2.3144,2.3144,2.3144,2.3144,2.3144,2.3144,2.3144,2.3144,2.3144,2.3144,2.3144,2.3144,2.3144,2.3144,2.3144,2.3144,2.3144,2.3144,2.3144,2.3144,2.296,2.2775,2.1952,2.0755,1.948,1.7848,1.6386,1.6015,1.5825,1.5825,1.5825,1.5825,1.5825,1.5825,1.5825,1.5825,1.5825,1.5825,1.5825,1.5825,1.5825,1.5825,1.5825,1.5825,1.5825,1.5825,1.5825,1.5825,1.5825,1.5825,1.5825,3.3197,3.2547,3.1796,3.1467,3.1467,3.1467,3.1467,3.1394,3.0822,3.0528,3.0426,2.9864,2.968,3.0277,3.0287,2.9704,2.8607,2.8233,2.7986,2.7802,2.7229,2.6918,2.6726,2.6658,2.6521,2.6521,2.6521,2.6521,2.6521,2.6521,2.6521,2.6521,2.6521,2.6521,2.6521,2.6521,2.6521,2.6521,2.6521,2.6521,2.6521,2.6521,2.6521,2.6521,2.6452,2.5346,2.4253,2.3672,2.2414,2.1476,2.1076,2.1342,2.1749,2.215,2.2591,2.291,2.3144,2.3144,2.3144,2.3144,2.3144,2.3144,2.3144,2.3144,2.3144,2.3144,2.3144,2.3144,2.3144,2.3144,2.3144,2.3144,2.3144,2.3144,2.3144,2.3144,2.3144,2.3144,2.3144,2.3144,2.3144,2.3144,2.3144,2.3144,2.3144,2.2589,2.1587,2.0395,1.9579,1.794,1.6386,1.6015,1.5825,1.5825,1.5825,1.5825,1.5825,1.5825,1.5825,1.5825,1.5825,1.5825,1.5825,1.5825,1.5825,1.5825,1.5825,1.5825,1.5825,1.5825,1.5825,1.5825,1.5825,1.5825,1.5825]},{"header":{"parameterUnit":"m.s-1","parameterCategory":1,"la1":31.0,"la2":29.5877,"lo1":-88.7671,"lo2":-86.6584,"dy":0.0162,"dx":0.0185,"nx":115,"ny":88,"refTime":"2023-05-16T06:00:00:Z","depth":0,"parameterNumber":3,"parameterNumberName":"V-component_of_WINDS"},"data":[0.0,0.0,0.0,0.0,0.0,0.0,0.0,0.0,0.0,0.0,0.0,0.0,0.0,0.0,0.0,0.0,0.0,0.0,0.0,0.0,0.0,0.0,0.0,0.0,0.0,0.0,0.0,0.0,0.0,0.0,0.0,0.0,0.0,0.0,0.0,0.0,0.0,0.0,0.0,0.0,0.0,0.0,0.0,0.0,0.0,0.0,0.0,0.0,0.0,0.0,0.0,0.0,0.0,0.0,0.0,0.0,0.0,0.0,0.0,0.0,0.0,0.0,0.0,0.0,0.0,0.0,0.0,0.0,0.0,0.0,0.0,0.0,0.0,0.0,0.0,0.0,0.0,0.0,0.0,0.0,0.0,0.0,0.0,0.0,0.0,0.0,0.0,0.0,0.0,0.0,0.0,0.0,0.0,0.0,0.0,0.0,0.0,0.0,0.0,0.0,0.0,0.0,0.0,0.0,0.0,0.0,0.0,0.0,0.0,0.0,0.0,0.0,0.0,0.0,0.0,0.0,0.0,0.0,0.0,0.0,0.0,0.0,0.0,0.0,0.0,0.0,0.0,0.0,0.0,0.0,0.0,0.0,0.0,0.0,0.0,0.0,0.0,0.0,0.0,0.0,0.0,0.0,0.0,0.0,0.0,0.0,0.0,0.0,0.0,0.0,0.0,0.0,0.0,0.0,0.0,0.0,0.0,0.0,0.0,0.0,0.0,0.0,0.0,0.0,0.0,0.0,0.0,0.0,0.0,0.0,0.0,0.0,0.0,0.0,0.0,0.0,0.0,0.0,0.0,0.0,0.0,0.0,0.0,0.0,0.0,0.0,0.0,0.0,0.0,0.0,0.0,0.0,0.0,0.0,0.0,0.0,0.0,0.0,0.0,0.0,0.0,0.0,0.0,0.0,0.0,0.0,0.0,0.0,0.0,0.0,0.0,0.0,0.0,0.0,0.0,0.0,0.0,0.0,0.0,0.0,0.0,0.0,0.0,0.0,0.0,0.0,0.0,0.0,0.0,0.0,0.0,0.0,0.0,0.0,0.0,0.0,0.0,0.0,0.0,0.0,0.0,0.0,0.0,0.0,0.0,0.0,0.0,0.0,0.0,0.0,0.0,0.0,0.0,0.0,0.0,0.0,0.0,0.0,0.0,0.0,0.0,0.0,0.0,0.0,0.0,0.0,0.0,0.0,0.0,0.0,0.0,0.0,0.0,0.0,0.0,0.0,0.0,0.0,0.0,0.0,0.0,0.0,0.0,0.0,0.0,0.0,0.0,0.0,0.0,0.0,0.0,0.0,0.0,0.0,0.0,0.0,0.0,0.0,0.0,0.0,0.0,0.0,0.0,0.0,0.0,0.0,0.0,0.0,0.0,0.0,0.0,0.0,0.0,0.0,0.0,0.0,0.0,0.0,0.0,0.0,0.0,0.0,0.0,0.0,0.0,0.0,0.0,0.0,0.0,0.0,0.0,0.0,0.0,0.0,0.0,0.0,0.0,0.0,0.0,0.0,0.0,0.0,0.0,0.0,0.0,0.0,0.0,0.0,0.0,0.0,0.0,0.0,0.0,0.0,0.0,0.0,0.0,0.0,0.0,0.0,0.0,0.0,0.0,0.0,0.0,0.0,0.0,0.0,0.0,0.0,0.0,0.0,0.0,0.0,0.0,0.0,0.0,0.0,0.0,0.0,0.0,0.0,0.0,0.0,0.0,0.0,0.0,0.0,0.0,0.0,0.0,0.0,0.0,0.0,0.0,0.0,0.0,0.0,0.0,0.0,0.0,0.0,0.0,0.0,0.0,0.0,0.0,0.0,0.0,0.0,0.0,0.0,0.0,0.0,0.0,0.0,0.0,0.0,0.0,0.0,0.0,0.0,0.0,0.0,0.0,0.0,0.0,0.0,0.0,0.0,0.0,0.0,0.0,0.0,0.0,0.0,0.0,0.0,0.0,0.0,0.0,0.0,0.0,0.0,0.0,0.0,0.0,0.0,0.0,0.0,0.0,0.0,0.0,0.0,0.0,0.0,0.0,0.0,0.0,0.0,0.0,0.0,0.0,0.0,0.0,0.0,0.0,0.0,0.0,0.0,0.0,0.0,0.0,0.0,0.0,0.0,0.0,0.0,0.0,0.0,0.0,0.0,0.0,0.0,0.0,0.0,0.0,0.0,0.0,0.0,0.0,0.0,0.0,0.0,0.0,0.0,0.0,0.0,0.0,0.0,0.0,0.0,0.0,0.0,0.0,0.0,0.0,0.0,0.0,0.0,0.0,0.0,0.0,0.0,0.0,0.0,0.0,0.0,0.0,0.0,0.0,0.0,0.0,0.0,0.0,0.0,0.0,0.0,0.0,0.0,0.0,0.0,0.0,0.0,0.0,0.0,0.0,0.0,0.0,0.0,0.0,0.0,0.0,0.0,0.0,0.0,0.0,0.0,0.0,0.0,0.0,0.0,0.0,0.0,0.0,0.0,0.0,0.0,0.0,0.0,0.0,0.0,0.0,0.0,0.0,0.0,0.0,0.0,0.0,0.0,0.0,0.0,0.0,0.0,0.0,0.0,0.0,0.0,0.0,0.0,0.0,0.0,0.0,0.0,0.0,0.0,0.0,0.0,0.0,0.0,0.0,0.0,0.0,0.0,0.0,0.0,0.0,0.0,0.0,0.0,0.0,0.0,0.0,0.0,0.0,0.0,0.0,0.0,0.0,0.0,0.0,0.0,0.0,0.0,0.0,0.0,0.0,0.0,0.0,0.0,0.0,0.0,0.0,0.0,0.0,0.0,0.0,0.0,0.0,0.0,0.0,0.0,0.0,0.0,0.0,0.0,0.0,0.0,0.0,0.0,0.0,0.0,0.0,0.0,0.0,0.0,0.0,0.0,0.0,0.0,0.0,0.0,0.0,0.0,0.0,0.0,0.0,0.0,0.0,0.0,0.0,0.0,0.0,0.0,0.0,0.0,0.0,0.0,0.0,0.0,0.0,0.0,0.0,0.0,0.0,0.0,0.0,0.0,0.0,0.0,0.0,0.0,0.0,0.0,0.0,0.0,0.0,0.0,0.0,0.0,0.0,0.0,0.0,0.0,0.0,0.0,0.0,0.0,0.0,0.0,0.0,0.0,0.0,0.0,0.0,0.0,0.0,0.0,0.0,0.0,0.0,0.0,0.0,0.0,0.0,0.0,0.0,0.0,0.0,0.0,0.0,0.0,0.0,0.0,0.0,0.0,0.0,0.0,0.0,0.0,0.0,0.0,0.0,0.0,0.0,0.0,0.0,0.0,0.0,0.0,0.0,0.0,0.0,0.0,0.0,0.0,0.0,0.0,0.0,0.0,0.0,0.0,0.0,0.0,0.0,0.0,0.0,0.0,0.0,0.0,0.0,0.0,0.0,0.0,0.0,0.0,0.0,0.0,0.0,0.0,0.0,0.0,0.0,0.0,0.0,0.0,0.0,0.0,0.0,0.0,0.0,0.0,0.0,0.0,0.0,0.0,0.0,0.0,0.0,0.0,0.0,0.0,0.0,0.0,0.0,0.0,0.0,0.0,0.0,0.0,0.0,0.0,0.0,0.0,0.0,0.0,0.0,0.0,0.0,0.0,0.0,0.0,0.0,0.0,0.0,0.0,0.0,0.0,0.0,0.0,0.0,0.0,0.0,0.0,0.0,0.0,0.0,0.0,0.0,0.0,0.0,0.0,0.0,0.0,0.0,0.0,0.0,0.0,0.0,0.0,0.0,0.0,0.0,0.0,0.0,0.0,0.0,0.0,0.0,0.0,0.0,0.0,0.0,0.0,0.0,0.0,0.0,0.0,0.0,0.0,0.0,0.0,0.0,0.0,0.0,0.0,0.0,0.0,0.0,0.0,0.0,0.0,0.0,0.0,0.0,0.0,0.0,0.0,0.0,0.0,0.0,0.0,0.0,0.0,0.0,0.0,0.0,0.0,0.0,0.0,0.0,0.0,0.0,0.0,0.0,0.0,0.0,0.0,0.0,0.0,0.0,0.0,0.0,0.0,0.0,0.0,0.0,0.0,0.0,0.0,0.0,0.0,0.0,0.0,0.0,0.0,0.0,0.0,0.0,0.0,0.0,0.0,0.0,0.0,0.0,0.0,0.0,0.0,0.0,0.0,0.0,0.0,0.0,0.0,0.0,0.0,0.0,0.0,0.0,0.0,0.0,0.0,0.0,0.0,0.0,0.0,0.0,0.0,0.0,0.0,0.0,0.0,0.0,0.0,0.0,0.0,0.0,0.0,0.0,0.0,0.0,0.0,0.0,0.0,0.0,0.0,-0.5739,0.0,0.0,0.0,0.0,0.0,0.0,0.0,0.0,0.0,0.0,0.0,0.0,0.0,0.0,0.0,0.0,0.0,0.0,0.0,0.0,0.0,0.0,0.0,0.0,0.0,0.0,0.0,0.0,0.0,0.0,0.0,0.0,0.0,0.0,0.0,0.0,0.0,0.0,0.0,0.0,0.0,0.0,0.0,0.0,0.0,0.0,0.0,0.0,0.0,0.0,0.0,0.0,0.0,0.0,0.0,0.0,0.0,0.0,0.0,0.0,0.0,0.0,0.0,0.0,0.0,0.0,0.0,0.0,0.0,0.0,0.0,0.0,0.0,0.0,0.0,0.0,0.0,0.0,0.0,0.0,0.0,0.0,0.0,0.0,0.0,0.0,0.0,0.0,0.0,0.0,0.0,0.0,0.0,0.0,0.0,0.0,0.0,0.0,0.0,0.0,0.0,0.0,0.0,0.0,0.0,0.0,0.0,0.0,0.0,0.0,-0.588,-0.5796,-0.595,-0.6022,-0.58,0.0,0.0,0.0,0.0,0.0,0.0,0.0,0.0,0.0,0.0,0.0,0.0,0.0,0.0,0.0,0.0,0.0,0.0,0.0,0.0,0.0,0.0,0.0,0.0,0.0,0.0,0.0,0.0,0.0,0.0,0.0,0.0,0.0,0.0,0.0,0.0,0.0,0.0,0.0,0.0,0.0,0.0,0.0,0.0,0.0,0.0,0.0,0.0,0.0,0.0,0.0,0.0,0.0,0.0,0.0,0.0,0.0,0.0,0.0,0.0,0.0,0.0,0.0,0.0,0.0,0.0,0.0,0.0,0.0,0.0,0.0,0.0,0.0,0.0,0.0,0.0,0.0,0.0,0.0,0.0,0.0,0.0,0.0,0.0,0.0,0.0,0.0,0.0,0.0,0.0,0.0,0.0,0.0,0.0,0.0,0.0,0.0,0.0,0.0,0.0,0.0,0.0,0.0,0.0,0.0,0.0,0.0,0.0,0.0,0.0,0.0,0.0,-0.6134,-0.6186,-0.5926,0.0,0.0,0.0,0.0,0.0,0.0,0.0,0.0,0.0,0.0,0.0,0.0,0.0,0.0,0.0,0.0,0.0,0.0,0.0,0.0,0.0,0.0,0.0,0.0,0.0,0.0,0.0,0.0,0.0,0.0,0.0,0.0,0.0,0.0,0.0,0.0,0.0,0.0,0.0,0.0,0.0,0.0,0.0,0.0,0.0,0.0,0.0,0.0,0.0,0.0,0.0,0.0,0.0,0.0,0.0,0.0,0.0,0.0,0.0,0.0,0.0,0.0,0.0,0.0,0.0,0.0,0.0,0.0,0.0,0.0,0.0,0.0,0.0,0.0,0.0,0.0,0.0,0.0,0.0,0.0,0.0,0.0,0.0,0.0,0.0,0.0,0.0,0.0,0.0,0.0,0.0,0.0,0.0,0.0,0.0,0.0,0.0,0.0,0.0,0.0,0.0,0.0,0.0,0.0,0.0,0.0,0.0,0.0,0.0,0.0,-0.6307,-0.629,-0.6294,0.0,-0.602,0.0,0.0,0.0,0.0,0.0,0.0,0.0,0.0,0.0,0.0,0.0,0.0,0.0,0.0,0.0,0.0,0.0,0.0,0.0,0.0,0.0,0.0,0.0,0.0,0.0,0.0,0.0,0.0,0.0,0.0,0.0,0.0,0.0,0.0,0.0,0.0,0.0,0.0,0.0,0.0,0.0,0.0,0.0,0.0,0.0,0.0,0.0,0.0,0.0,0.0,0.0,0.0,0.0,0.0,0.0,0.0,0.0,0.0,0.0,0.0,0.0,0.0,0.0,0.0,0.0,0.0,0.0,0.0,0.0,0.0,0.0,0.0,0.0,0.0,0.0,0.0,0.0,0.0,0.0,0.0,0.0,0.0,0.0,0.0,0.0,0.0,0.0,0.0,0.0,0.0,0.0,0.0,0.0,0.0,0.0,0.0,0.0,0.0,0.0,0.0,0.0,0.0,0.0,0.0,0.0,0.0,0.0,0.0,0.0,0.0,-0.6276,-0.6257,-0.6261,-0.623,0.0,0.0,0.0,0.0,0.0,0.0,0.0,0.0,0.0,0.0,0.0,0.0,0.0,0.0,0.0,0.0,0.0,0.0,0.0,0.0,0.0,0.0,0.0,0.0,0.0,0.0,0.0,0.0,0.0,0.0,0.0,0.0,0.0,0.0,0.0,0.0,0.0,0.0,0.0,0.0,0.0,0.0,0.0,0.0,0.0,0.0,0.0,0.0,0.0,0.0,0.0,0.0,0.0,0.0,0.0,0.0,0.0,0.0,0.0,0.0,0.0,0.0,0.0,0.0,0.0,0.0,0.0,0.0,0.0,0.0,0.0,0.0,0.0,0.0,0.0,0.0,0.0,0.0,0.0,0.0,0.0,0.0,0.0,0.0,0.0,0.0,0.0,0.0,0.0,0.0,0.0,0.0,0.0,0.0,0.0,0.0,0.0,0.0,0.0,0.0,0.0,0.0,0.0,0.0,0.0,0.0,0.0,0.0,0.0,0.0,-0.6261,-0.6261,-0.6261,-0.6261,-0.6261,-0.6338,0.0,0.0,0.0,0.0,0.0,0.0,0.0,0.0,0.0,0.0,0.0,0.0,0.0,0.0,0.0,0.0,0.0,0.0,0.0,0.0,0.0,0.0,0.0,0.0,0.0,0.0,0.0,0.0,0.0,0.0,0.0,0.0,0.0,0.0,0.0,0.0,0.0,0.0,0.0,0.0,0.0,0.0,0.0,0.0,0.0,0.0,0.0,0.0,0.0,0.0,0.0,0.0,0.0,0.0,0.0,0.0,0.0,0.0,0.0,0.0,0.0,0.0,0.0,0.0,0.0,0.0,0.0,0.0,0.0,0.0,0.0,0.0,0.0,0.0,0.0,0.0,0.0,0.0,0.0,0.0,0.0,0.0,0.0,0.0,0.0,0.0,0.0,0.0,0.0,0.0,0.0,0.0,0.0,0.0,0.0,0.0,0.0,0.0,0.0,0.0,0.0,0.0,0.0,0.0,0.0,0.0,0.0,0.0,-0.6261,-0.6261,-0.6261,-0.6261,-0.6261,-0.6261,0.0,0.0,0.0,0.0,0.0,0.0,0.0,0.0,0.0,0.0,0.0,0.0,0.0,0.0,0.0,0.0,0.0,0.0,0.0,0.0,0.0,0.0,0.0,0.0,0.0,0.0,0.0,0.0,0.0,0.0,0.0,0.0,0.0,0.0,0.0,0.0,0.0,0.0,0.0,0.0,0.0,0.0,0.0,0.0,0.0,0.0,0.0,0.0,0.0,0.0,0.0,0.0,0.0,0.0,0.0,0.0,0.0,0.0,0.0,0.0,0.0,0.0,0.0,0.0,0.0,0.0,0.0,0.0,0.0,0.0,0.0,0.0,0.0,0.0,0.0,0.0,0.0,0.0,0.0,0.0,0.0,0.0,0.0,0.0,0.0,0.0,0.0,0.0,0.0,0.0,0.0,0.0,0.0,0.0,0.0,0.0,0.0,0.0,0.0,0.0,0.0,0.0,0.0,0.0,0.0,0.0,0.0,0.0,0.0,-0.6261,-0.6261,-0.6261,-0.6261,-0.6261,-0.6261,0.0,0.0,0.0,0.0,0.0,0.0,0.0,0.0,0.0,0.0,0.0,0.0,0.0,0.0,0.0,0.0,0.0,0.0,0.0,0.0,0.0,0.0,0.0,0.0,0.0,0.0,0.0,0.0,0.0,0.0,0.0,0.0,0.0,0.0,0.0,0.0,0.0,0.0,0.0,0.0,0.0,0.0,0.0,0.0,0.0,0.0,0.0,0.0,0.0,0.0,0.0,0.0,0.0,0.0,0.0,0.0,0.0,0.0,0.0,0.0,0.0,0.0,0.0,0.0,0.0,0.0,0.0,0.0,0.0,0.0,0.0,0.0,0.0,0.0,0.0,0.0,0.0,0.0,0.0,0.0,0.0,0.0,0.0,0.0,0.0,0.0,0.0,0.0,0.0,0.0,0.0,0.0,0.0,0.0,0.0,0.0,0.0,0.0,0.0,0.0,0.0,0.0,0.0,0.0,0.0,0.0,0.0,0.0,0.0,-0.6261,0.0,-0.6261,-0.6261,-0.6261,-0.6261,0.0,0.0,0.0,0.0,0.0,0.0,0.0,0.0,0.0,0.0,0.0,0.0,0.0,0.0,0.0,0.0,0.0,0.0,0.0,0.0,0.0,0.0,0.0,0.0,0.0,0.0,0.0,0.0,0.0,0.0,0.0,0.0,0.0,0.0,0.0,0.0,0.0,0.0,0.0,0.0,0.0,0.0,0.0,0.0,0.0,0.0,0.0,0.0,0.0,0.0,0.0,0.0,0.0,0.0,0.0,0.0,0.0,0.0,0.0,0.0,0.0,0.0,0.0,0.0,0.0,0.0,0.0,0.0,0.0,0.0,0.0,0.0,0.0,0.0,0.0,0.0,0.0,0.0,0.0,0.0,0.0,0.0,0.0,0.0,0.0,0.0,0.0,0.0,0.0,0.0,0.0,0.0,0.0,0.0,0.0,0.0,0.0,0.0,0.0,0.0,0.0,0.0,0.0,0.0,0.0,0.0,0.0,0.0,-0.6261,-0.6261,-0.6261,-0.6261,-0.6261,-0.6261,-0.6261,0.0,0.0,0.0,0.0,0.0,0.0,0.0,0.0,0.0,0.0,0.0,0.0,0.0,0.0,0.0,0.0,0.0,0.0,0.0,0.0,0.0,0.0,0.0,0.0,0.0,0.0,0.0,0.0,0.0,0.0,0.0,0.0,0.0,0.0,0.0,0.0,0.0,0.0,0.0,0.0,0.0,0.0,0.0,0.0,0.0,0.0,0.0,0.0,0.0,0.0,0.0,0.0,0.0,0.0,0.0,0.0,0.0,0.0,0.0,0.0,0.0,0.0,0.0,0.0,0.0,0.0,0.0,0.0,0.0,0.0,0.0,0.0,0.0,0.0,0.0,0.0,0.0,0.0,0.0,0.0,0.0,0.0,0.0,0.0,0.0,0.0,0.0,0.0,0.0,0.0,0.0,0.0,0.0,0.0,0.0,0.0,0.0,0.0,0.0,0.0,0.0,0.0,0.0,0.0,0.0,0.0,0.0,0.0,0.0,-0.6261,-0.6261,-0.6261,-0.6261,-0.6261,-0.6261,0.0,0.0,0.0,0.0,0.0,0.0,0.0,0.0,0.0,0.0,0.0,0.0,0.0,0.0,0.0,0.0,0.0,0.0,0.0,0.0,0.0,0.0,0.0,0.0,0.0,0.0,0.0,0.0,0.0,0.0,0.0,0.0,0.0,0.0,0.0,0.0,0.0,0.0,0.0,0.0,0.0,0.0,0.0,0.0,0.0,0.0,0.0,0.0,0.0,0.0,0.0,0.0,0.0,0.0,0.0,0.0,0.0,0.0,0.0,0.0,0.0,0.0,0.0,0.0,0.0,0.0,0.0,0.0,0.0,0.0,0.0,0.0,0.0,0.0,0.0,0.0,0.0,0.0,0.0,0.0,0.0,0.0,0.0,0.0,0.0,0.0,0.0,0.0,0.0,0.0,0.0,0.0,0.0,0.0,0.0,0.0,0.0,0.0,0.0,0.0,0.0,0.0,0.0,0.0,0.0,0.0,0.0,0.0,0.0,-0.6261,-0.6261,-0.6261,-0.6261,-0.6261,-0.6261,-0.6261,0.0,0.0,0.0,0.0,0.0,0.0,0.0,0.0,0.0,0.0,0.0,0.0,0.0,0.0,0.0,0.0,0.0,0.0,0.0,0.0,0.0,0.0,0.0,0.0,0.0,0.0,0.0,0.0,0.0,0.0,0.0,0.0,0.0,0.0,0.0,0.0,0.0,0.0,0.0,0.0,0.0,0.0,0.0,0.0,0.0,0.0,0.0,0.0,0.0,0.0,0.0,0.0,0.0,0.0,0.0,0.0,0.0,0.0,0.0,0.0,0.0,0.0,0.0,0.0,0.0,0.0,0.0,0.0,0.0,0.0,0.0,0.0,0.0,0.0,0.0,0.0,0.0,0.0,0.0,0.0,0.0,0.0,0.0,0.0,0.0,0.0,0.0,0.0,0.0,0.0,0.0,0.0,0.0,0.0,0.0,0.0,0.0,0.0,0.0,0.0,0.0,0.0,0.0,0.0,0.0,0.0,0.0,0.0,-0.6261,-0.6261,-0.6261,-0.6261,-0.6261,-0.6338,0.0,0.0,0.0,0.0,0.0,0.0,0.0,0.0,0.0,0.0,0.0,0.0,0.0,0.0,0.0,0.0,0.0,0.0,0.0,0.0,0.0,0.0,0.0,0.0,0.0,0.0,0.0,0.0,0.0,0.0,0.0,0.0,0.0,0.0,0.0,0.0,0.0,0.0,0.0,0.0,0.0,0.0,0.0,0.0,0.0,0.0,0.0,0.0,0.0,0.0,0.0,0.0,0.0,0.0,0.0,0.0,0.0,0.0,0.0,0.0,0.0,0.0,0.0,0.0,0.0,0.0,0.0,0.0,0.0,0.0,0.0,0.0,0.0,0.0,0.0,0.0,0.0,0.0,0.0,0.0,0.0,0.0,0.0,0.0,0.0,0.0,0.0,0.0,0.0,0.0,0.0,0.0,0.0,0.0,0.0,0.0,0.0,0.0,0.0,0.0,0.0,0.0,0.0,0.0,0.0,0.0,0.0,0.0,0.0,-0.6261,-0.6261,-0.6261,-0.6261,-0.6261,-0.6644,0.0,0.0,0.0,0.0,0.0,0.0,0.0,0.0,0.0,0.0,0.0,0.0,0.0,0.0,0.0,0.0,0.0,0.0,0.0,0.0,0.0,0.0,0.0,0.0,0.0,0.0,0.0,0.0,0.0,0.0,0.0,0.0,0.0,0.0,0.0,0.0,0.0,0.0,0.0,0.0,0.0,0.0,0.0,0.0,0.0,0.0,0.0,0.0,0.0,0.0,0.0,0.0,0.0,0.0,0.0,0.0,0.0,0.0,0.0,0.0,0.0,0.0,0.0,0.0,0.0,0.0,0.0,0.0,0.0,0.0,0.0,0.0,0.0,0.0,0.0,0.0,0.0,0.0,0.0,0.0,0.0,0.0,0.0,0.0,0.0,0.0,0.0,0.0,0.0,0.0,0.0,0.0,0.0,0.0,0.0,0.0,0.0,0.0,0.0,0.0,0.0,0.0,0.0,0.0,0.0,0.0,0.0,0.0,-0.6261,-0.6261,-0.6261,-0.6261,-0.6261,-0.6261,-0.6795,0.0,0.0,0.0,0.0,0.0,0.0,0.0,0.0,0.0,0.0,0.0,0.0,0.0,0.0,0.0,0.0,0.0,0.0,0.0,0.0,0.0,0.0,0.0,0.0,0.0,0.0,0.0,0.0,0.0,0.0,0.0,0.0,0.0,0.0,0.0,0.0,0.0,0.0,0.0,0.0,0.0,0.0,0.0,0.0,0.0,0.0,0.0,0.0,0.0,0.0,0.0,0.0,0.0,0.0,0.0,0.0,0.0,0.0,0.0,0.0,0.0,0.0,0.0,0.0,0.0,0.0,0.0,0.0,0.0,0.0,0.0,0.0,0.0,0.0,0.0,0.0,0.0,0.0,0.0,0.0,0.0,0.0,0.0,0.0,0.0,0.0,0.0,0.0,0.0,0.0,0.0,0.0,0.0,0.0,0.0,0.0,0.0,0.0,0.0,0.0,0.0,0.0,0.0,0.0,0.0,0.0,0.0,0.0,-0.6261,-0.6261,-0.6261,-0.6261,-0.6261,-0.6261,-0.6795,0.0,0.0,0.0,0.0,0.0,0.0,0.0,0.0,0.0,0.0,0.0,0.0,0.0,0.0,0.0,0.0,0.0,0.0,0.0,0.0,0.0,0.0,0.0,0.0,0.0,0.0,0.0,0.0,0.0,0.0,0.0,0.0,0.0,0.0,0.0,0.0,0.0,0.0,0.0,0.0,0.0,0.0,0.0,0.0,0.0,0.0,0.0,0.0,0.0,0.0,0.0,0.0,0.0,0.0,0.0,0.0,0.0,0.0,0.0,0.0,0.0,0.0,0.0,0.0,0.0,0.0,0.0,0.0,0.0,0.0,0.0,0.0,0.0,0.0,0.0,0.0,0.0,0.0,0.0,0.0,0.0,0.0,0.0,0.0,0.0,0.0,0.0,0.0,0.0,0.0,0.0,0.0,0.0,0.0,0.0,0.0,0.0,0.0,0.0,0.0,0.0,0.0,0.0,0.0,0.0,0.0,0.0,0.0,-0.6261,-0.6261,-0.6261,-0.6261,-0.6261,-0.6261,-0.7176,0.0,0.0,0.0,0.0,0.0,0.0,0.0,0.0,0.0,0.0,0.0,0.0,0.0,0.0,0.0,0.0,0.0,0.0,0.0,0.0,0.0,0.0,0.0,0.0,0.0,0.0,0.0,0.0,0.0,0.0,0.0,0.0,0.0,0.0,0.0,0.0,0.0,0.0,0.0,0.0,0.0,0.0,0.0,0.0,0.0,0.0,0.0,0.0,-1.8249,0.0,0.0,0.0,0.0,0.0,0.0,0.0,0.0,0.0,0.0,0.0,0.0,0.0,0.0,0.0,0.0,0.0,0.0,0.0,0.0,0.0,0.0,0.0,0.0,0.0,0.0,0.0,0.0,0.0,0.0,0.0,0.0,0.0,0.0,0.0,0.0,0.0,0.0,0.0,0.0,0.0,0.0,0.0,0.0,0.0,0.0,0.0,0.0,0.0,0.0,0.0,0.0,0.0,0.0,0.0,0.0,0.0,0.0,0.0,-0.6318,-0.6257,-0.6318,-0.6318,-0.6338,-0.6718,-0.7476,0.0,0.0,0.0,0.0,0.0,0.0,0.0,0.0,0.0,0.0,0.0,0.0,0.0,0.0,0.0,0.0,0.0,0.0,0.0,0.0,0.0,0.0,0.0,0.0,0.0,0.0,0.0,0.0,0.0,0.0,0.0,0.0,0.0,0.0,0.0,0.0,0.0,0.0,0.0,0.0,0.0,0.0,0.0,0.0,0.0,0.0,0.0,0.0,0.0,0.0,0.0,0.0,0.0,0.0,0.0,0.0,0.0,0.0,0.0,0.0,0.0,0.0,0.0,0.0,0.0,0.0,0.0,0.0,0.0,0.0,0.0,0.0,0.0,0.0,0.0,0.0,0.0,0.0,0.0,0.0,0.0,0.0,0.0,0.0,0.0,0.0,0.0,0.0,0.0,0.0,0.0,0.0,0.0,0.0,0.0,0.0,0.0,0.0,0.0,0.0,0.0,0.0,0.0,0.0,0.0,0.0,0.0,-0.7339,-0.6594,-0.7192,-0.6912,-0.6751,-0.6791,-0.7553,-0.8012,-0.8084,0.0,0.0,0.0,0.0,0.0,0.0,0.0,0.0,0.0,0.0,0.0,0.0,0.0,0.0,0.0,0.0,0.0,0.0,0.0,0.0,0.0,0.0,0.0,0.0,0.0,0.0,0.0,0.0,0.0,0.0,0.0,0.0,0.0,0.0,0.0,0.0,0.0,0.0,-1.8008,-1.8008,0.0,0.0,0.0,0.0,0.0,0.0,0.0,0.0,-2.1909,0.0,0.0,0.0,0.0,0.0,0.0,0.0,0.0,0.0,0.0,0.0,0.0,0.0,0.0,0.0,0.0,0.0,0.0,0.0,0.0,0.0,0.0,0.0,0.0,0.0,0.0,0.0,0.0,0.0,0.0,0.0,0.0,0.0,0.0,0.0,0.0,0.0,0.0,0.0,0.0,0.0,0.0,0.0,0.0,0.0,0.0,0.0,0.0,0.0,0.0,0.0,0.0,0.0,0.0,0.0,0.0,-0.9345,-0.7354,-0.7951,-1.1153,-0.9651,-0.8832,-0.8846,-0.8998,-0.9069,-0.9069,0.0,0.0,0.0,0.0,0.0,0.0,0.0,0.0,0.0,0.0,0.0,0.0,0.0,0.0,0.0,0.0,0.0,0.0,0.0,0.0,0.0,0.0,0.0,0.0,0.0,0.0,0.0,0.0,0.0,0.0,0.0,0.0,0.0,0.0,0.0,0.0,0.0,0.0,0.0,-1.8008,-1.8654,0.0,0.0,0.0,0.0,0.0,0.0,0.0,0.0,-2.2761,0.0,0.0,0.0,0.0,0.0,0.0,0.0,0.0,0.0,0.0,0.0,0.0,0.0,0.0,0.0,0.0,0.0,0.0,0.0,0.0,0.0,0.0,0.0,0.0,0.0,0.0,0.0,0.0,0.0,0.0,0.0,0.0,0.0,0.0,0.0,0.0,0.0,0.0,0.0,0.0,0.0,0.0,0.0,0.0,0.0,0.0,0.0,0.0,0.0,0.0,0.0,0.0,0.0,0.0,0.0,-1.0783,-0.8881,-0.9331,-1.2201,-1.1618,-1.0923,-1.0132,-1.0373,-1.0506,0.0,0.0,0.0,0.0,0.0,0.0,0.0,0.0,0.0,0.0,0.0,0.0,0.0,0.0,0.0,0.0,0.0,0.0,0.0,0.0,0.0,0.0,0.0,0.0,0.0,0.0,0.0,0.0,0.0,0.0,0.0,0.0,0.0,0.0,0.0,0.0,0.0,0.0,0.0,0.0,-1.8008,-1.8462,-1.9759,0.0,0.0,0.0,0.0,0.0,0.0,-2.313,-2.3135,0.0,0.0,0.0,0.0,0.0,0.0,0.0,0.0,0.0,0.0,0.0,0.0,0.0,0.0,0.0,0.0,0.0,0.0,0.0,0.0,0.0,0.0,0.0,0.0,0.0,0.0,0.0,0.0,0.0,0.0,0.0,0.0,0.0,0.0,0.0,0.0,0.0,0.0,0.0,0.0,0.0,0.0,0.0,0.0,0.0,0.0,0.0,0.0,0.0,0.0,0.0,0.0,0.0,0.0,0.0,-1.2172,-1.0749,-1.0813,-1.2573,-1.2899,-1.2492,-1.1431,-1.183,-1.2074,0.0,0.0,0.0,0.0,0.0,0.0,0.0,0.0,0.0,0.0,0.0,0.0,0.0,0.0,0.0,0.0,0.0,0.0,0.0,0.0,0.0,0.0,0.0,0.0,0.0,0.0,0.0,0.0,0.0,0.0,0.0,0.0,0.0,0.0,0.0,0.0,0.0,0.0,0.0,0.0,0.0,-1.8586,-1.9431,-2.0216,0.0,0.0,0.0,0.0,-2.3144,-2.3071,0.0,0.0,0.0,0.0,0.0,0.0,0.0,0.0,0.0,0.0,0.0,0.0,0.0,0.0,0.0,0.0,0.0,0.0,0.0,0.0,0.0,0.0,0.0,0.0,0.0,0.0,0.0,0.0,0.0,0.0,0.0,0.0,0.0,0.0,0.0,0.0,0.0,0.0,0.0,0.0,0.0,0.0,0.0,0.0,0.0,0.0,0.0,0.0,0.0,0.0,0.0,0.0,0.0,0.0,0.0,0.0,-1.2272,-1.2101,-1.2588,-1.3759,-1.2903,-1.2647,-1.3193,-1.322,-1.3227,0.0,0.0,0.0,0.0,0.0,0.0,0.0,0.0,0.0,0.0,0.0,0.0,0.0,0.0,0.0,0.0,0.0,0.0,0.0,0.0,0.0,0.0,0.0,0.0,0.0,0.0,0.0,0.0,0.0,0.0,0.0,0.0,0.0,0.0,0.0,0.0,0.0,0.0,0.0,0.0,0.0,-1.9497,-2.0333,-2.096,-2.1658,0.0,0.0,0.0,-2.3252,-2.3091,0.0,0.0,0.0,0.0,0.0,0.0,0.0,0.0,0.0,0.0,0.0,0.0,0.0,0.0,0.0,0.0,0.0,0.0,0.0,0.0,0.0,0.0,0.0,0.0,0.0,0.0,0.0,0.0,0.0,0.0,0.0,0.0,0.0,0.0,0.0,0.0,0.0,0.0,0.0,0.0,0.0,0.0,0.0,0.0,0.0,0.0,0.0,0.0,0.0,0.0,0.0,0.0,0.0,0.0,0.0,-1.2523,-1.2311,-1.2654,-1.325,-1.4029,-1.3561,-1.3373,-1.3554,-1.3716,-1.3803,0.0,0.0,0.0,0.0,0.0,0.0,0.0,0.0,0.0,0.0,0.0,0.0,0.0,0.0,0.0,0.0,0.0,0.0,0.0,0.0,0.0,0.0,0.0,0.0,0.0,0.0,0.0,0.0,0.0,0.0,0.0,0.0,0.0,0.0,0.0,0.0,0.0,0.0,0.0,0.0,0.0,0.0,-2.0971,-2.1655,0.0,0.0,0.0,-2.4831,-2.4991,0.0,0.0,0.0,0.0,0.0,0.0,0.0,0.0,0.0,0.0,0.0,0.0,0.0,0.0,0.0,0.0,0.0,0.0,0.0,0.0,0.0,0.0,0.0,0.0,0.0,0.0,0.0,0.0,0.0,0.0,0.0,0.0,0.0,0.0,0.0,0.0,0.0,0.0,0.0,0.0,0.0,0.0,0.0,0.0,0.0,0.0,0.0,0.0,0.0,0.0,0.0,0.0,0.0,0.0,0.0,0.0,0.0,-1.2538,-1.2936,-1.3534,-1.4072,-1.4104,-1.3953,-1.3761,-1.3968,0.0,0.0,0.0,0.0,0.0,0.0,0.0,0.0,0.0,0.0,0.0,0.0,0.0,0.0,0.0,0.0,0.0,0.0,0.0,0.0,0.0,0.0,0.0,0.0,0.0,0.0,0.0,-1.8008,0.0,0.0,0.0,0.0,0.0,0.0,0.0,0.0,0.0,0.0,0.0,0.0,0.0,0.0,-2.1339,-2.1841,-2.262,-2.3382,0.0,0.0,-2.5501,-2.6349,-2.581,-2.551,0.0,0.0,0.0,0.0,0.0,0.0,0.0,0.0,0.0,0.0,0.0,0.0,0.0,0.0,0.0,0.0,0.0,0.0,0.0,0.0,0.0,0.0,0.0,0.0,0.0,0.0,0.0,0.0,0.0,0.0,0.0,0.0,0.0,0.0,0.0,0.0,0.0,0.0,0.0,0.0,0.0,0.0,0.0,0.0,0.0,0.0,0.0,0.0,0.0,0.0,0.0,0.0,0.0,0.0,0.0,-1.3121,-1.3153,-1.3474,-1.4105,-1.4139,-1.4062,-1.4062,-1.4075,-1.4088,0.0,0.0,0.0,0.0,0.0,0.0,0.0,0.0,0.0,0.0,0.0,0.0,0.0,0.0,0.0,0.0,0.0,0.0,0.0,0.0,0.0,0.0,0.0,0.0,0.0,0.0,0.0,0.0,0.0,0.0,0.0,0.0,0.0,0.0,0.0,0.0,0.0,0.0,0.0,0.0,0.0,-2.2728,-2.3304,-2.3835,-2.4226,0.0,0.0,-2.6433,-2.6483,-2.6445,-2.6438,-2.6514,0.0,0.0,0.0,0.0,0.0,0.0,0.0,0.0,0.0,0.0,0.0,0.0,0.0,0.0,0.0,0.0,0.0,0.0,0.0,0.0,0.0,0.0,0.0,0.0,0.0,0.0,0.0,0.0,0.0,0.0,0.0,0.0,0.0,0.0,0.0,0.0,0.0,0.0,0.0,0.0,0.0,0.0,0.0,0.0,0.0,0.0,0.0,0.0,0.0,0.0,0.0,0.0,0.0,-1.3352,-1.3192,-1.3546,-1.3878,-1.4082,-1.4088,-1.4088,-1.4088,-1.4088,-1.4088,0.0,0.0,0.0,0.0,0.0,0.0,0.0,0.0,0.0,0.0,0.0,0.0,0.0,0.0,0.0,0.0,0.0,0.0,0.0,0.0,0.0,0.0,0.0,0.0,0.0,0.0,0.0,0.0,-1.8008,-1.8529,-1.9955,0.0,0.0,0.0,0.0,0.0,0.0,0.0,0.0,0.0,0.0,-2.4218,-2.4735,-2.4969,0.0,0.0,-2.6164,-2.6521,-2.6521,-2.7037,-2.7259,-2.6583,-2.8133,0.0,0.0,0.0,0.0,0.0,0.0,0.0,0.0,0.0,0.0,0.0,0.0,0.0,0.0,0.0,0.0,0.0,0.0,0.0,0.0,0.0,0.0,0.0,0.0,0.0,0.0,0.0,0.0,0.0,0.0,0.0,0.0,0.0,0.0,0.0,0.0,0.0,0.0,0.0,0.0,0.0,0.0,0.0,0.0,0.0,0.0,0.0,0.0,0.0,0.0,0.0,0.0,-1.3685,-1.35,-1.3884,-1.4088,-1.4088,-1.4088,-1.4088,-1.4088,-1.4088,-1.4088,0.0,0.0,0.0,0.0,0.0,0.0,0.0,0.0,0.0,0.0,0.0,0.0,0.0,0.0,0.0,0.0,0.0,0.0,0.0,0.0,0.0,0.0,0.0,0.0,0.0,0.0,0.0,0.0,-1.8586,-1.9365,-2.0846,0.0,0.0,0.0,0.0,0.0,0.0,0.0,0.0,0.0,0.0,-2.5247,-2.5774,-2.5862,-2.6135,-2.6786,-2.685,-2.6973,-2.7229,-2.7458,-2.7552,-2.7315,0.0,0.0,0.0,0.0,0.0,0.0,0.0,0.0,0.0,0.0,0.0,0.0,0.0,0.0,0.0,0.0,0.0,0.0,0.0,0.0,0.0,0.0,0.0,0.0,0.0,0.0,0.0,0.0,0.0,0.0,0.0,0.0,0.0,0.0,0.0,0.0,0.0,0.0,0.0,0.0,0.0,0.0,0.0,0.0,0.0,0.0,0.0,0.0,0.0,0.0,0.0,0.0,0.0,0.0,-1.4075,-1.4075,-1.4088,-1.4088,-1.4088,-1.4088,-1.4088,-1.4088,-1.4088,-1.4088,0.0,0.0,0.0,0.0,0.0,0.0,0.0,0.0,0.0,0.0,0.0,0.0,0.0,0.0,0.0,0.0,0.0,0.0,0.0,0.0,0.0,0.0,0.0,0.0,0.0,0.0,-1.9233,-2.0009,-2.091,0.0,0.0,0.0,0.0,0.0,0.0,0.0,0.0,0.0,0.0,-2.5561,-2.5799,-2.642,-2.6427,-2.6756,-2.7537,-2.7604,-2.792,-2.8698,-2.7615,-2.7105,0.0,0.0,0.0,0.0,0.0,0.0,0.0,0.0,0.0,0.0,0.0,0.0,0.0,0.0,0.0,0.0,0.0,0.0,0.0,0.0,0.0,0.0,0.0,0.0,0.0,0.0,0.0,0.0,0.0,0.0,0.0,0.0,0.0,0.0,0.0,0.0,0.0,0.0,0.0,0.0,-1.3066,-1.2975,0.0,0.0,0.0,0.0,0.0,0.0,0.0,0.0,0.0,0.0,0.0,0.0,-1.556,-1.4166,-1.4142,-1.4058,-1.4082,-1.4088,-1.4088,-1.4088,-1.4088,-1.4088,-1.4088,0.0,0.0,0.0,0.0,0.0,0.0,0.0,0.0,0.0,0.0,0.0,0.0,0.0,0.0,0.0,0.0,0.0,0.0,0.0,0.0,0.0,0.0,0.0,0.0,0.0,-1.8654,0.0,0.0,0.0,0.0,0.0,0.0,0.0,0.0,0.0,0.0,0.0,-2.5868,-2.5652,-2.5925,-2.6239,-2.6508,-2.6521,-2.6589,0.0,0.0,0.0,0.0,0.0,0.0,0.0,0.0,0.0,0.0,0.0,0.0,0.0,0.0,-3.1028,-3.2064,-3.2613,-3.2998,-3.3488,0.0,0.0,0.0,0.0,0.0,0.0,0.0,0.0,0.0,0.0,0.0,0.0,0.0,0.0,0.0,0.0,-0.7406,0.0,0.0,0.0,0.0,0.0,0.0,0.0,0.0,-1.332,-1.336,-1.3367,-1.3286,-1.3519,0.0,-1.3239,-1.3149,0.0,0.0,0.0,0.0,0.0,0.0,0.0,0.0,-1.5726,-1.4838,-1.4309,-1.4142,-1.4082,-1.4112,-1.4461,-1.514,-1.5257,-1.5235,-1.5228,-1.4817,-1.4817,0.0,0.0,0.0,0.0,0.0,0.0,0.0,0.0,0.0,0.0,0.0,0.0,0.0,0.0,0.0,0.0,0.0,0.0,0.0,0.0,0.0,0.0,0.0,-1.91,0.0,0.0,0.0,0.0,0.0,0.0,0.0,0.0,0.0,-2.5256,-2.605,-2.6353,-2.598,-2.6294,-2.6521,-2.6521,0.0,0.0,0.0,0.0,0.0,0.0,0.0,-2.8864,-2.8339,-2.912,-2.9736,-2.9462,-3.0132,-3.0896,-3.1424,0.0,0.0,-3.2048,-3.182,-3.1803,-3.2704,-3.3593,-3.363,-3.1859,-3.1488,-3.1475,0.0,0.0,0.0,0.0,0.0,0.0,0.0,0.0,-0.6278,-0.6332,0.0,0.0,0.0,0.0,0.0,0.0,0.0,0.0,0.0,0.0,-1.3534,-1.3572,-1.3681,-1.3941,-1.4082,-1.4088,-1.4075,-1.4075,-1.4075,-1.4082,0.0,0.0,0.0,0.0,0.0,0.0,-1.4838,-1.602,-1.4831,-1.4166,-1.4068,-1.4074,-1.5119,-1.7268,-1.736,-1.7261,-1.7261,-1.6273,-1.6191,-1.7172,-1.5301,0.0,0.0,0.0,0.0,0.0,0.0,0.0,0.0,0.0,0.0,0.0,0.0,0.0,0.0,0.0,0.0,0.0,0.0,0.0,0.0,-1.9671,0.0,0.0,0.0,0.0,0.0,0.0,0.0,0.0,0.0,0.0,-2.6302,-2.6458,-2.6506,-2.6471,0.0,0.0,0.0,0.0,-2.6782,-2.755,-2.7895,-2.8498,-2.9917,-2.9594,-2.9582,-3.1078,0.0,0.0,-3.0297,-3.0955,-3.1482,-3.1467,-3.1467,-3.1467,-3.1524,-3.1509,-3.1546,-3.153,-3.1652,-3.1516,-3.149,-3.1464,-3.148,-0.0741,0.0,0.0,0.0,0.0,-0.6518,-0.6505,-0.6576,-0.6573,-0.6502,-0.628,-0.6784,0.0,0.0,0.0,0.0,0.0,0.0,-1.3834,-1.3841,-1.3928,-1.3961,-1.3961,-1.4041,-1.4088,-1.4088,-1.4088,-1.4088,-1.4088,-1.4088,-1.425,-1.4573,0.0,0.0,0.0,0.0,-1.6698,-1.4922,-1.5801,-1.5651,-1.4158,-1.4077,-1.5873,-1.9562,-1.8087,-1.7342,-1.7342,-1.7009,-1.7009,-1.7245,-1.5255,0.0,0.0,0.0,0.0,0.0,0.0,0.0,0.0,0.0,0.0,0.0,0.0,0.0,0.0,0.0,0.0,0.0,0.0,0.0,-1.9881,-2.0959,-2.161,0.0,0.0,0.0,0.0,0.0,0.0,0.0,0.0,0.0,-2.6438,-2.6519,-2.6488,0.0,0.0,-2.6521,-2.6521,-2.6521,-2.6589,-2.6837,0.0,0.0,0.0,-2.9757,-3.0542,-2.9857,-3.0451,-3.1058,-3.1161,-3.1351,-3.1467,-3.1467,-3.1467,-3.1467,-3.1467,-3.1467,-3.148,-3.1474,-3.1492,-3.1495,-3.1489,-3.1507,-3.1467,0.0,-0.0258,-0.3806,-0.5463,-0.5797,-0.6383,-0.6629,-0.6702,-0.6702,-0.6646,-0.6444,-0.6619,-0.682,-0.7218,-0.8946,0.0,0.0,0.0,-1.4088,-1.4088,-1.4088,-1.4088,-1.4088,-1.4088,-1.4088,-1.4088,-1.4088,-1.4088,-1.4088,-1.4088,-1.4088,-1.4166,0.0,0.0,-1.6041,-1.7172,-1.7172,-1.6116,-1.5986,-1.5835,-1.5383,-1.5375,-1.6621,-1.9111,-1.8397,-1.7989,-1.7989,-1.7989,-1.7989,-1.798,-1.6285,-1.5928,0.0,0.0,0.0,0.0,0.0,0.0,0.0,0.0,0.0,0.0,0.0,-1.96,0.0,0.0,0.0,0.0,-2.0555,-2.0195,-2.0344,-2.1337,0.0,0.0,0.0,0.0,0.0,0.0,0.0,-2.5493,-2.6095,-2.6521,-2.6521,-2.6521,-2.6521,-2.6521,-2.6521,-2.6589,-2.6905,0.0,-2.7108,-2.7417,-2.6961,-2.7038,-2.8525,-3.0292,-3.1097,-3.016,-3.0778,-3.1467,-3.1467,-3.1467,-3.1467,-3.1467,-3.1467,-3.1467,-3.1467,-3.1467,-3.1467,-3.1467,-3.1467,-3.1467,-3.1467,-3.1467,-3.1467,-0.018,-0.0716,-0.2745,-0.4042,-0.4801,-0.6145,-0.6739,-0.6736,-0.6736,-0.6726,-0.6764,-0.6771,-0.7014,-0.7485,-0.9657,0.0,0.0,-1.3646,-1.4088,-1.4088,-1.4088,-1.4088,-1.4088,-1.4088,-1.4088,-1.4088,-1.4088,-1.4088,-1.4088,-1.4264,-1.4341,-1.4243,-1.4334,-1.5794,-1.847,-1.6927,-1.6919,-1.8789,-1.5867,-1.5382,-1.7488,-1.7577,-1.7476,-1.7338,-1.8505,-1.9116,-1.9125,-1.9116,-1.9116,-1.9116,-1.8118,-1.761,-1.7618,0.0,0.0,0.0,0.0,0.0,0.0,0.0,0.0,0.0,0.0,0.0,0.0,0.0,0.0,0.0,-2.2728,0.0,-2.0234,-2.1295,0.0,0.0,0.0,-2.5661,-2.5582,-2.6126,-2.6521,-2.6521,0.0,0.0,0.0,0.0,-2.6521,-2.6521,-2.6533,-2.685,-2.7604,-2.7736,-2.8051,-2.8684,-2.7638,-2.7623,-2.9746,-3.0904,-3.1441,-3.138,-3.1467,-3.1467,-3.1467,-3.1467,-3.1467,-3.1467,-3.1467,-3.1467,-3.1467,-3.1467,-3.1467,-3.1467,-3.1467,-3.1467,-3.1467,-3.1467,-3.1467,-0.2156,-0.5307,-0.4072,-0.4671,-0.6543,-0.689,-0.6964,-0.7034,-0.7037,-0.6967,-0.7001,-0.7001,-0.8063,-0.9831,-1.0351,-1.1735,-1.373,-1.3997,-1.4088,-1.4088,-1.4088,-1.4088,-1.4088,-1.4088,-1.4088,-1.4088,-1.4088,-1.4088,-1.4173,-1.5755,-1.6163,-1.5387,-1.6116,-1.6519,-1.6511,-1.7649,-1.806,-1.7747,-1.6934,-1.7644,-1.9737,-1.9835,-1.9003,-1.7363,-1.9229,-2.0245,-2.0245,-2.0245,-2.0245,-2.0235,-1.9944,-1.9837,-1.9837,-2.0285,0.0,0.0,0.0,0.0,0.0,0.0,0.0,0.0,0.0,-2.0448,-2.0559,0.0,-2.0434,0.0,-2.1131,-2.1634,-2.2529,-2.29,0.0,0.0,-2.5453,-2.5965,-2.5247,-2.5938,-2.6521,-2.6521,-2.6521,-2.6521,-2.6521,-2.6521,-2.6521,-2.6521,-2.7027,-2.7484,-2.767,-2.8298,-2.8492,-2.8193,-2.831,-2.8839,-3.0079,-3.0969,-3.1485,-3.1497,-3.1467,-3.1467,-3.1467,-3.1467,-3.1467,-3.1467,-3.1467,-3.1467,-3.1467,-3.1467,-3.1467,-3.1467,-3.1467,-3.1467,-3.1467,-3.1467,-3.1467,-0.4678,-0.6949,-0.5738,-0.5911,-0.7094,-0.7078,-0.7153,-0.7139,-0.7139,-0.7139,-0.7139,-0.7139,-0.8372,-1.0574,-1.0626,-1.1563,-1.3294,-1.3822,-1.4088,-1.4088,-1.4088,-1.4088,-1.4088,-1.4088,-1.4088,-1.4088,-1.4088,-1.4614,-1.558,-1.6739,-1.7014,-1.6437,-1.7496,-1.7738,-1.7245,-1.839,-1.8877,-1.8789,-1.8752,-1.939,-2.0566,-2.0596,-2.0029,-1.8828,-1.9437,-1.9923,-1.9844,-2.0313,-2.0576,-2.0576,-2.0576,-2.0576,-2.0576,-2.0576,-2.0576,0.0,0.0,0.0,0.0,0.0,0.0,0.0,0.0,0.0,0.0,0.0,-2.0576,0.0,-2.0576,0.0,-2.3323,-2.3492,-2.3902,-2.4933,-2.5886,-2.6302,-2.5734,-2.6176,-2.6521,-2.6521,-2.6521,-2.6521,-2.6521,-2.6521,-2.6782,-2.7471,-2.7749,-2.7969,-2.8285,-2.9002,-2.9504,-2.9442,-2.9797,-3.0279,-3.0793,-3.1219,-3.1467,-3.1467,-3.1467,-3.1467,-3.1467,-3.1467,-3.1467,-3.1467,-3.1467,-3.1467,-3.1467,-3.1467,-3.1467,-3.1467,-3.1467,-3.1467,-3.1467,-3.1467,-3.1467,-0.7135,-0.7128,-0.7098,-0.7084,-0.7081,-0.7146,-0.7139,-0.7139,-0.7139,-0.7139,-0.7139,-0.7139,-0.8392,-1.0537,-1.0554,-1.13,-1.2589,-1.3646,-1.4088,-1.4088,-1.4088,-1.4088,-1.4088,-1.4088,-1.4088,-1.4088,-1.4088,-1.5231,-1.7276,-1.7549,-1.7622,-1.7585,-1.863,-1.9195,-1.9195,-1.9204,-1.9678,-2.0566,-2.0576,-2.0576,-2.0576,-2.0614,-2.0632,-2.0543,-1.9701,-1.9195,-1.9204,-2.0089,-2.0576,-2.0576,-2.0576,-2.0576,-2.0576,-2.0576,-2.0576,0.0,-2.0576,0.0,0.0,0.0,0.0,0.0,0.0,0.0,0.0,-2.0605,-2.0575,-2.0613,-2.0827,-2.1696,-2.3327,-2.3586,-2.4108,-2.5075,-2.5955,-2.6521,-2.6521,-2.6521,-2.6521,-2.6521,-2.6521,-2.6533,-2.6871,-2.6658,-2.7098,-2.8529,-2.8592,-2.8587,-2.9136,-2.9889,-3.0644,-3.1292,-3.1424,-3.1306,-3.1394,-3.1467,-3.1467,-3.1467,-3.1467,-3.1467,-3.1467,-3.1507,-3.1507,-3.161,-3.1751,-3.1736,-3.1766,-3.1739,-3.1652,-3.1543,-3.1486,-3.1477,-3.1509,-3.1467,-3.1467,-0.7125,-0.7108,-0.7094,-0.7078,-0.7146,-0.7139,-0.7139,-0.7139,-0.7139,-0.7139,-0.7139,-0.7139,-0.836,-1.0544,-1.0616,-1.174,-1.3737,-1.3997,-1.4088,-1.4088,-1.4088,-1.4088,-1.4088,-1.4088,-1.4088,-1.4088,-1.4088,-1.5231,-1.7367,-1.9117,-1.9507,-1.8727,-1.9756,-2.0333,0.0,0.0,0.0,0.0,-2.0576,-2.0576,-2.0576,-2.0605,-2.0625,-2.0635,-2.042,0.0,-2.0323,-2.0479,-2.0576,-2.0576,-2.0576,0.0,0.0,0.0,0.0,0.0,0.0,0.0,0.0,0.0,0.0,0.0,-2.0518,-2.0576,-2.0566,-2.0582,-2.0581,-2.066,-2.2051,-2.3069,-2.3462,-2.4221,-2.5146,-2.6082,-2.6383,-2.6521,-2.6521,-2.6521,-2.6521,-2.6521,-2.6521,-2.7033,-2.8199,-2.7365,-2.7236,-2.8757,-2.9288,-2.9614,-2.9983,-3.0718,-3.1087,-3.0703,-3.1087,-3.1467,-3.1467,-3.1467,-3.1467,-3.1467,-3.1467,-3.1539,-3.1509,-3.152,-3.1723,-3.2235,-3.2531,-3.2772,-3.3066,-3.2788,-3.2206,-3.161,-3.1513,-3.1511,-3.1492,-3.1524,-3.1467,-0.6103,0.0,-0.7078,-0.7149,0.0,0.0,-0.7139,-0.7139,-0.7139,-0.7139,-0.7143,-0.7937,-0.9152,-1.0611,-1.1209,-1.2425,-1.4088,-1.4088,-1.4088,-1.4088,-1.4088,-1.4088,-1.4088,-1.4088,-1.4088,-1.4088,-1.4088,-1.4657,-1.5884,-1.9055,-2.0046,-1.9036,-2.0079,-2.0576,-2.0576,-2.0576,-2.0576,-2.0576,-2.0576,-2.0576,-2.0576,-2.0576,-2.0576,-2.0576,0.0,0.0,0.0,0.0,0.0,0.0,0.0,0.0,0.0,0.0,0.0,-2.0576,-2.0576,-2.0576,-2.0576,-2.0576,-2.0576,-2.0576,-2.0576,-2.0576,-2.0576,-2.1451,-2.2478,-2.3453,-2.4436,-2.4999,-2.4981,-2.5016,-2.537,-2.6383,-2.6521,-2.6521,-2.6521,-2.6521,-2.6521,-2.6521,-2.6521,-2.7126,-2.8745,-2.9118,-2.9094,-2.9588,-3.0248,-3.07,-3.0866,-3.1234,-3.1292,-3.0955,-3.1219,-3.1467,-3.1467,-3.1467,-3.1524,-3.1467,-3.1467,-3.1712,-3.2083,-3.1824,-3.1828,-3.2839,-3.3702,-3.4172,-3.363,-3.3287,-3.2741,-3.1883,-3.205,-3.2776,-3.3232,-3.247,-3.1735,-0.5364,-0.7084,-0.7149,-0.7139,-0.7139,-0.7139,-0.7139,-0.7139,0.0,0.0,0.0,-0.8468,-0.9868,-1.1257,-1.174,-1.2772,-1.4082,-1.4088,-1.4088,-1.4088,-1.4088,-1.4088,-1.4088,-1.4088,-1.4088,-1.4088,-1.4088,-1.4085,-1.4262,-1.8147,-1.965,-1.9143,-2.0079,-2.0576,-2.0576,-2.0576,-2.0576,-2.0576,-2.0576,-2.0576,-2.0576,-2.0576,-2.0576,-2.0576,-2.0576,-2.0576,-2.0576,-2.0576,-2.0576,-2.0576,-2.0576,-2.0576,-2.0576,-2.0576,-2.0576,-2.0576,-2.0576,-2.0576,-2.0576,-2.0576,-2.0576,-2.0576,-2.0934,-2.0971,-2.0651,-2.2035,-2.4007,-2.628,-2.6457,-2.6479,-2.6507,-2.5776,-2.5594,-2.6383,-2.6521,-2.6521,-2.6521,-2.6658,-2.6688,-2.6569,-2.6455,-2.7165,-2.8766,-3.0406,-3.1276,-3.0722,-3.1011,-3.156,-3.1672,-3.1582,-3.1467,-3.1467,-3.1467,-3.1509,-3.1519,-3.1489,-3.1489,-3.1494,-3.1687,-3.215,-3.2687,-3.2353,-3.2447,-3.3537,-3.4787,-3.497,-3.4216,-3.3887,-3.3411,-3.2424,-3.2924,-3.4016,-3.5068,-3.3806,-3.2745,-0.6811,-0.7081,-0.7149,-0.7139,-0.7139,-0.7139,-0.7139,-0.7139,-0.7139,-0.7139,-0.7139,-0.7316,-0.9726,-1.354,-1.1716,-1.1997,-1.4088,-1.4088,-1.4088,0.0,-1.4088,-1.4088,-1.4088,-1.4088,-1.4088,-1.4088,-1.4088,-1.4079,-1.4358,-1.6569,-1.8201,-1.9045,-2.0089,-2.0576,-2.0576,-2.0576,-2.0576,-2.0576,-2.0576,-2.0576,-2.0576,-2.0576,-2.0576,-2.0576,-2.0576,-2.0576,-2.0576,-2.0576,-2.0576,-2.0576,-2.0576,-2.0576,-2.0576,-2.0576,-2.0576,-2.0576,-2.0576,-2.0576,-2.0566,-2.0576,-2.0576,-2.0722,-2.2124,-2.2422,-2.0767,-2.0821,-2.2528,-2.6009,-2.6457,-2.6509,-2.6471,-2.6339,-2.6314,-2.6452,-2.6521,-2.6521,-2.6521,-2.7108,-2.7259,-2.6668,-2.6479,-2.7237,-2.892,-3.0506,-3.1479,-3.1323,-3.1483,-3.1757,-3.215,-3.191,-3.1524,-3.1467,-3.1467,-3.1516,-3.1521,-3.1525,-3.1643,-3.1492,-3.2631,-3.333,-3.3539,-3.3363,-3.3518,-3.4284,-3.5077,-3.5438,-3.5207,-3.4847,-3.4605,-3.4532,-3.4294,-3.4184,-3.5379,-3.5094,-3.4927,-0.7078,-0.7153,-0.7143,-0.7139,-0.7139,-0.7139,-0.7139,-0.7139,-0.7139,-0.7139,-0.7139,-0.7753,-0.8899,-1.0309,-1.1139,-1.2077,-1.3118,-1.3822,-1.4088,-1.4088,-1.4088,-1.4088,-1.4088,-1.4088,-1.4088,-1.4088,-1.4088,-1.4657,-1.5809,-1.6862,-1.79,-1.9045,-2.0089,-2.0576,-2.0576,-2.0576,-2.0576,-2.0576,-2.0576,-2.0576,-2.0576,-2.0576,-2.0576,-2.0576,-2.0576,-2.0576,-2.0576,-2.0576,-2.0576,-2.0576,-2.0576,-2.0576,-2.0576,-2.0576,-2.0576,-2.0576,-2.0576,-2.0576,-2.0576,-2.1078,-2.1593,-2.2124,-2.2999,-2.3178,-2.2291,-2.2186,-2.3387,-2.6153,-2.6509,-2.6521,-2.6521,-2.6521,-2.6521,-2.6521,-2.6521,-2.6521,-2.6589,-2.7229,-2.7749,-2.7815,-2.7873,-2.8526,-3.0179,-3.1037,-3.15,-3.1556,-3.1796,-3.2231,-3.2586,-3.268,-3.2315,-3.1728,-3.2106,-3.2199,-3.1741,-3.2217,-3.2846,-3.3582,-3.422,-3.4637,-3.4659,-3.4365,-3.4329,-3.4968,-3.5407,-3.5577,-3.5639,-3.5362,-3.5362,-3.5407,-3.5211,-3.5069,-3.5481,-3.5639,-3.5593,-0.7071,-0.7139,-0.7139,-0.7139,-0.7139,-0.7139,-0.7139,-0.7139,-0.7139,-0.7139,-0.7228,-0.8101,-0.7986,-0.7512,-1.0489,-1.2066,-1.2419,-1.3561,-1.4088,-1.4088,-1.4088,-1.4088,-1.4088,-1.4088,-1.4088,-1.4088,-1.4088,-1.5231,-1.7078,-1.7458,-1.8175,-1.9283,-2.0157,-2.0576,-2.0576,-2.0576,-2.0576,-2.0576,-2.0576,-2.0576,-2.0576,-2.0576,-2.0576,-2.0576,-2.0576,-2.0722,-2.0867,-2.0712,-2.0712,-2.0857,-2.0712,-2.0576,-2.0576,-2.0576,-2.0615,-2.0633,-2.1041,-2.1225,-2.1308,-2.2113,-2.2925,-2.3441,-2.3963,-2.3959,-2.3601,-2.392,-2.4814,-2.6239,-2.6464,-2.6521,-2.6521,-2.6521,-2.6521,-2.6521,-2.6658,-2.6782,-2.6837,-2.767,-2.843,-2.8985,-2.9331,-3.0064,-3.1112,-3.1515,-3.1664,-3.2049,-3.2348,-3.2641,-3.2986,-3.3547,-3.3281,-3.2944,-3.3134,-3.3323,-3.2549,-3.294,-3.4002,-3.5365,-3.5547,-3.5481,-3.5424,-3.4977,-3.4858,-3.5436,-3.5577,-3.5639,-3.5639,-3.5577,-3.5577,-3.5577,-3.5481,-3.556,-3.556,-3.5639,-3.5594,-0.7143,-0.7139,-0.7139,-0.7139,-0.7139,-0.7139,-0.7139,-0.7139,-0.7139,-0.7139,-0.7139,-0.7228,-0.7288,-0.7428,-0.9716,-1.1295,-1.2328,-1.3555,-1.4088,-1.4088,-1.4088,-1.4088,-1.4088,-1.4088,-1.4088,-1.4088,-1.4264,-1.5504,-1.7252,-1.8023,-1.9074,-2.0333,-2.0566,-2.0576,-2.0576,-2.0576,-2.0576,-2.0576,-2.0576,-2.0576,-2.0576,-2.0576,-2.0576,-2.0576,-2.0644,-2.1011,-2.1811,-2.1078,-2.1001,-2.1735,-2.1078,-2.0644,-2.0644,-2.0644,-2.0604,-2.0671,-2.2218,-2.322,-2.3265,-2.4192,-2.4337,-2.3745,-2.5205,-2.5354,-2.3908,-2.5199,-2.6264,-2.6515,-2.6477,-2.6521,-2.6521,-2.6521,-2.6521,-2.6658,-2.7162,-2.7617,-2.7802,-2.9052,-2.9822,-2.9059,-3.0201,-3.1366,-3.144,-3.1571,-3.2049,-3.3106,-3.299,-3.3145,-3.3987,-3.4382,-3.4671,-3.4745,-3.4431,-3.4201,-3.4595,-3.4201,-3.4394,-3.5388,-3.5593,-3.5609,-3.5542,-3.5554,-3.5515,-3.5498,-3.5639,-3.5639,-3.5639,-3.5639,-3.5639,-3.5639,-3.5639,-3.5639,-3.5639,-3.5639,-3.5639,-0.7139,-0.7139,-0.7139,-0.7139,-0.7139,-0.7139,-0.7139,-0.7139,-0.7139,-0.7139,-0.7139,-0.7139,-0.7132,-0.7288,-0.9557,-1.0864,-1.1386,-1.3215,-1.4088,-1.4088,-1.4088,-1.4088,-1.4088,-1.4088,-1.4088,-1.4453,-1.669,-1.7705,-1.7646,-1.8887,-2.0058,-2.0498,-2.0576,-2.0576,-2.0576,-2.0576,-2.0576,-2.0576,-2.0576,-2.0633,-2.0582,-2.0633,-2.1168,-2.2116,-2.1762,-2.1886,-2.2702,-2.2489,-2.2478,-2.285,-2.2478,-2.2339,-2.2339,-2.121,-2.0612,-2.0754,-2.359,-2.4966,-2.4443,-2.4779,-2.5075,-2.5205,-2.6013,-2.6089,-2.5387,-2.6077,-2.6521,-2.6521,-2.6521,-2.6521,-2.6521,-2.6521,-2.6658,-2.7108,-2.755,-2.7934,-2.8427,-2.9566,-2.9975,-2.9274,-3.0485,-3.1524,-3.1582,-3.191,-3.2686,-3.3715,-3.3822,-3.4053,-3.4544,-3.4941,-3.5316,-3.547,-3.5115,-3.5024,-3.5425,-3.5224,-3.5086,-3.5402,-3.5639,-3.5639,-3.5639,-3.5639,-3.5577,-3.5639,-3.5639,-3.5639,-3.5639,-3.5639,-3.5639,-3.5639,-3.5639,-3.5639,-3.5639,-3.5639,-3.5639,-0.7139,-0.7139,-0.7139,-0.7139,-0.7139,-0.7139,-0.7139,-0.7139,-0.7139,-0.7139,-0.7139,-0.7139,-0.7496,-0.8296,-0.984,-1.0783,-1.13,-1.3209,-1.4088,-1.4088,-1.4088,-1.4088,-1.4088,-1.4088,-1.4088,-1.4621,-1.7183,-1.8331,-1.7819,-1.959,-2.0576,-2.0576,-2.0576,-2.0576,-2.0576,-2.0576,-2.0576,-2.0566,-2.0566,-2.1084,-2.2101,-2.2227,-2.2615,-2.3392,-2.2821,-2.284,-2.3818,-2.3661,-2.3661,-2.3891,-2.3672,-2.3514,-2.343,-2.2144,-2.1659,-2.2361,-2.4847,-2.6212,-2.5465,-2.5441,-2.5734,-2.6383,-2.6521,-2.6521,-2.6508,-2.6501,-2.6506,-2.6561,-2.6909,-2.7255,-2.7194,-2.6969,-2.7162,-2.7934,-2.8233,-2.8684,-2.9303,-3.0133,-3.0393,-2.9911,-3.0806,-3.1894,-3.2502,-3.2998,-3.3504,-3.4457,-3.4628,-3.4736,-3.4894,-3.5299,-3.5577,-3.5639,-3.5577,-3.5577,-3.5639,-3.5515,-3.5639,-3.5639,-3.5639,-3.5639,-3.5639,-3.5639,-3.5639,-3.5639,-3.5639,-3.5639,-3.5639,-3.5639,-3.5639,-3.5639,-3.5639,-3.5639,-3.5639,-3.5639,-3.5639,-0.7139,-0.7139,-0.7139,-0.7139,-0.7139,-0.7139,-0.7139,-0.7139,-0.7139,-0.7139,-0.7139,-0.7139,-0.8304,-1.028,-1.0463,-1.1209,-1.2248,-1.347,-1.4088,-1.4088,-1.4088,-1.4088,-1.4088,-1.4088,-1.4088,-1.4139,-1.4899,-1.6254,-1.8373,-1.9885,-2.0576,-2.0576,-2.0576,-2.0644,-2.0634,-2.0722,-2.0634,-2.0633,-2.0579,-2.2348,-2.5611,-2.6074,-2.5172,-2.3835,-2.3452,-2.3891,-2.4707,-2.4036,-2.3963,-2.4933,-2.412,-2.3588,-2.3514,-2.347,-2.4166,-2.5851,-2.628,-2.6515,-2.6408,-2.6314,-2.644,-2.6533,-2.6577,-2.6508,-2.665,-2.656,-2.6631,-2.6618,-2.8179,-2.8916,-2.8822,-2.812,-2.8051,-2.8876,-2.9642,-3.0072,-3.0194,-3.0837,-3.1394,-3.1317,-3.1576,-3.2734,-3.4884,-3.4694,-3.459,-3.507,-3.5,-3.4847,-3.5316,-3.5577,-3.5577,-3.5639,-3.5639,-3.5639,-3.5639,-3.5639,-3.5639,-3.5639,-3.5639,-3.5639,-3.5639,-3.5639,-3.5639,-3.5639,-3.5639,-3.5639,-3.5639,-3.5639,-3.5639,-3.5639,-3.5639,-3.5639,-3.5639,-3.5639,-3.5639,-0.7139,-0.7139,-0.7139,-0.7139,-0.7139,-0.7139,-0.7139,-0.7139,-0.7139,-0.7139,-0.7139,-0.7139,-0.8368,-1.0564,-1.0626,-1.1209,-1.2328,-1.3555,-1.4088,-1.4088,-1.4088,-1.4088,-1.4088,-1.4088,-1.4105,-1.4268,-1.5509,-1.7404,-1.9552,-2.0391,-2.0576,-2.0576,-2.0576,-2.0857,-2.1375,-2.1517,-2.1202,-2.0652,-2.0575,-2.2475,-2.6081,-2.6456,-2.6139,-2.5465,-2.4779,-2.4921,-2.5955,-2.5581,-2.5581,-2.5955,-2.5581,-2.5417,-2.5417,-2.5429,-2.57,-2.6407,-2.6458,-2.6521,-2.6521,-2.6521,-2.6714,-2.7229,-2.7284,-2.7326,-2.7367,-2.7025,-2.7349,-2.9178,-3.0129,-3.0587,-3.0332,-2.9378,-2.8862,-2.9704,-3.0147,-3.0524,-3.097,-3.1336,-3.1477,-3.1749,-3.2873,-3.4594,-3.502,-3.4857,-3.4659,-3.5408,-3.5371,-3.5379,-3.5532,-3.5639,-3.5639,-3.5622,-3.5639,-3.5639,-3.5639,-3.5639,-3.5639,-3.5639,-3.5639,-3.5639,-3.5639,-3.5639,-3.5639,-3.5639,-3.5639,-3.5639,-3.5639,-3.5639,-3.5639,-3.5639,-3.5639,-3.5639,-3.5639,-3.5639,-3.5639,-0.7139,-0.7139,-0.7139,-0.7139,-0.7139,-0.7139,-0.7139,-0.7139,-0.7139,-0.7139,-0.7139,-0.7139,-0.8444,-1.0351,-1.0611,-1.1472,-1.2851,-1.373,-1.4088,-1.4088,-1.4088,-1.4088,-1.4088,-1.4088,-1.4079,-1.462,-1.7066,-1.9179,-2.0411,-2.0576,-2.0576,-2.0576,-2.0576,-2.1078,-2.1811,-2.2038,-2.1742,-2.1565,-2.1574,-2.3228,-2.6066,-2.647,-2.6507,-2.6433,-2.5873,-2.5816,-2.6452,-2.6521,-2.6521,-2.6521,-2.6521,-2.6521,-2.6521,-2.6521,-2.6521,-2.6533,-2.7033,-2.7156,-2.6985,-2.7175,-2.7537,-2.8051,-2.8117,-2.8204,-2.8307,-2.7746,-2.8602,-3.0211,-3.129,-3.1509,-3.132,-3.0488,-3.0086,-3.0584,-3.0718,-3.0911,-3.1424,-3.1467,-3.1743,-3.2446,-3.4085,-3.5366,-3.5554,-3.5074,-3.5065,-3.556,-3.5639,-3.5639,-3.5639,-3.5639,-3.5711,-3.581,-3.5694,-3.564,-3.5617,-3.56,-3.5681,-3.5677,-3.5739,-3.5694,-3.5633,-3.565,-3.5622,-3.5622,-3.5639,-3.5639,-3.5639,-3.5639,-3.5639,-3.5639,-3.5639,-3.5639,-3.5639,-3.5639,-3.5639,-0.7139,-0.7139,-0.7139,-0.7139,-0.7139,-0.7139,-0.7139,-0.7139,-0.7139,-0.7139,-0.7139,-0.7139,-0.8444,-1.0265,-1.0611,-1.1821,-1.3652,-1.4088,-1.4088,-1.4088,-1.4088,-1.4088,-1.4088,-1.4088,-1.435,-1.4696,-1.8567,-2.0437,-2.0576,-2.0576,-2.0576,-2.0576,-2.0712,-2.1298,-2.2038,-2.2253,-2.2691,-2.3318,-2.3527,-2.4531,-2.6208,-2.6457,-2.649,-2.6452,-2.6383,-2.6383,-2.6521,-2.6521,-2.6521,-2.6521,-2.6521,-2.6521,-2.6521,-2.6483,-2.6521,-2.6926,-2.8039,-2.8425,-2.7921,-2.8427,-2.8748,-2.9002,-2.9002,-2.9052,-2.9205,-2.9097,-2.9199,-2.9714,-3.069,-3.1526,-3.1483,-3.1409,-3.1321,-3.1467,-3.1336,-3.1409,-3.1524,-3.1537,-3.2018,-3.3276,-3.4726,-3.5535,-3.5638,-3.5532,-3.5498,-3.5577,-3.5723,-3.5791,-3.5859,-3.5926,-3.598,-3.6225,-3.6353,-3.631,-3.598,-3.5595,-3.5685,-3.5759,-3.5881,-3.5881,-3.5725,-3.5664,-3.5722,-3.5711,-3.5639,-3.5639,-3.5639,-3.5639,-3.5639,-3.5639,-3.5639,-3.5594,-3.5639,-3.5639,-3.5639,-0.7139,-0.7139,-0.7139,-0.7139,-0.7139,-0.7139,-0.7139,-0.7139,-0.7139,-0.7139,-0.7139,-0.7139,-0.8444,-1.0178,-1.0611,-1.1912,-1.3997,-1.4088,-1.4088,-1.4088,-1.4088,-1.4088,-1.4088,-1.4082,-1.5166,-1.7131,-1.9427,-2.0566,-2.0586,-2.0576,-2.0576,-2.0722,-2.1221,-2.2038,-2.2999,-2.3745,-2.4552,-2.5417,-2.5542,-2.5918,-2.6477,-2.6515,-2.6521,-2.6521,-2.6521,-2.6521,-2.6521,-2.6521,-2.6521,-2.6521,-2.6521,-2.6521,-2.6471,-2.646,-2.7033,-2.8133,-2.8698,-2.8912,-2.8725,-2.8876,-2.9317,-2.9752,-2.9889,-3.0194,-3.0644,-3.0646,-3.0661,-3.0661,-3.1203,-3.1467,-3.1582,-3.1951,-3.2023,-3.1597,-3.1524,-3.1796,-3.2124,-3.1834,-3.2174,-3.342,-3.4781,-3.5525,-3.5661,-3.569,-3.5774,-3.5808,-3.6096,-3.64,-3.6468,-3.6818,-3.7178,-3.7364,-3.7331,-3.7284,-3.705,-3.7058,-3.7281,-3.7481,-3.7515,-3.6748,-3.6371,-3.6346,-3.6251,-3.6007,-3.5858,-3.5768,-3.5751,-3.5628,-3.5616,-3.5628,-3.5599,-3.5628,-3.5594,-3.5774,-3.5977,-0.7139,-0.7139,-0.7139,-0.7139,-0.7139,-0.7139,-0.7139,-0.7139,-0.7139,-0.7139,-0.7139,-0.7139,-0.8444,-1.0265,-1.0611,-1.1912,-1.3913,-1.4088,-1.4088,-1.4088,-1.4088,-1.4088,-1.4062,-1.4115,-1.5403,-1.7904,-1.9803,-2.0576,-2.0576,-2.0576,-2.0576,-2.0722,-2.1517,-2.2478,-2.3514,-2.4492,-2.5511,-2.6314,-2.6452,-2.6521,-2.6521,-2.6521,-2.6521,-2.6602,-2.7114,-2.7237,-2.6998,-2.7229,-2.7284,-2.6963,-2.6649,-2.6483,-2.6511,-2.653,-2.755,-2.9412,-2.9933,-2.9812,-2.9608,-2.9827,-3.0147,-3.0658,-3.0777,-3.0911,-3.1409,-3.1467,-3.1467,-3.1467,-3.1467,-3.17,-3.2246,-3.2404,-3.26,-3.2721,-3.249,-3.2492,-3.2829,-3.257,-3.2644,-3.3664,-3.4745,-3.5677,-3.6287,-3.6485,-3.6485,-3.6552,-3.6891,-3.7195,-3.731,-3.7767,-3.8052,-3.8322,-3.8477,-3.8395,-3.8286,-3.8496,-3.8895,-3.9289,-3.9667,-3.8488,-3.7598,-3.779,-3.7853,-3.723,-3.6956,-3.6713,-3.6608,-3.5857,-3.5605,-3.5614,-3.5763,-3.5602,-3.5719,-3.646,-3.6658,-0.7139,-0.7139,-0.7139,-0.7139,-0.7139,-0.7139,-0.7139,-0.7139,-0.7139,-0.7139,-0.7139,-0.7316,-0.8532,-1.026,-1.0783,-1.2083,-1.3828,-1.4088,-1.4088,-1.4088,-1.4088,-1.4166,-1.4384,-1.4207,-1.5442,-1.7713,-1.9678,-2.0566,-2.0576,-2.0576,-2.0644,-2.0867,-2.1745,-2.2627,-2.3745,-2.4636,-2.5652,-2.6383,-2.6521,-2.6521,-2.6521,-2.6521,-2.6521,-2.6615,-2.7958,-2.8452,-2.7789,-2.8427,-2.862,-2.7827,-2.7207,-2.6903,-2.6757,-2.6691,-2.8538,-3.1117,-3.1474,-3.0977,-3.0671,-3.0837,-3.1278,-3.1336,-3.1336,-3.1467,-3.1467,-3.1467,-3.1467,-3.1554,-3.1908,-3.2475,-3.3364,-3.3466,-3.3729,-3.4563,-3.4322,-3.4002,-3.3829,-3.3811,-3.3843,-3.4056,-3.4949,-3.6413,-3.7868,-3.8034,-3.7936,-3.7753,-3.7821,-3.7956,-3.8102,-3.8452,-3.8725,-3.9121,-3.9684,-4.0063,-4.0103,-4.0376,-4.0782,-4.1035,-4.1379,-4.0486,-3.9509,-3.9722,-3.9244,-3.8591,-3.8461,-3.8061,-3.7525,-3.7072,-3.6435,-3.6293,-3.6175,-3.5827,-3.6498,-3.765,-3.7974,-0.7139,-0.7139,-0.7139,-0.7139,-0.7139,-0.7139,-0.7139,-0.7139,-0.7139,-0.7139,-0.7228,-0.8017,-0.9235,-1.0616,-1.1558,-1.2687,-1.3822,-1.4088,-1.4088,-1.4088,-1.4088,-1.4566,-1.4906,-1.4494,-1.5706,-1.8346,-1.9844,-2.0576,-2.0576,-2.0741,-2.1021,-2.1669,-2.2627,-2.3599,-2.4564,-2.5581,-2.6164,-2.6452,-2.6521,-2.6521,-2.6521,-2.6521,-2.6521,-2.6615,-2.8119,-2.8505,-2.7973,-2.9192,-2.9566,-2.8734,-2.8507,-2.8356,-2.8455,-2.9364,-3.0362,-3.1166,-3.1471,-3.1441,-3.1264,-3.1351,-3.1467,-3.1467,-3.1582,-3.1467,-3.1467,-3.1467,-3.1467,-3.1892,-3.3249,-3.4745,-3.5173,-3.5492,-3.6067,-3.6754,-3.6356,-3.5922,-3.5792,-3.5432,-3.5066,-3.5297,-3.729,-3.8656,-3.9177,-3.933,-3.9044,-3.836,-3.8444,-3.8749,-3.9007,-3.9715,-4.0246,-4.0639,-4.111,-4.1707,-4.208,-4.2377,-4.2646,-4.2827,-4.2937,-4.2667,-4.2102,-4.2168,-4.1067,-3.9891,-4.0811,-4.0772,-3.9799,-3.9012,-3.829,-3.775,-3.8192,-3.8642,-3.9136,-4.0005,-4.001,-0.7139,-0.7139,-0.7139,-0.7139,-0.7139,-0.7139,-0.7139,-0.7139,-0.7139,-0.7139,-0.7404,-0.8364,-1.0135,-1.2003,-1.2277,-1.2948,-1.3997,-1.4088,-1.4088,-1.4166,-1.4566,-1.5137,-1.5486,-1.5405,-1.6726,-1.8841,-2.0079,-2.0566,-2.0819,-2.1343,-2.1935,-2.2199,-2.3441,-2.4409,-2.4933,-2.5943,-2.6521,-2.6521,-2.6521,-2.6521,-2.6521,-2.6521,-2.6807,-2.724,-2.8398,-2.8903,-2.9331,-3.0343,-3.0524,-3.0133,-3.0058,-3.0072,-3.0101,-3.0937,-3.1516,-3.1516,-3.147,-3.1467,-3.1467,-3.1467,-3.1467,-3.1582,-3.1739,-3.1951,-3.1875,-3.1723,-3.1511,-3.1713,-3.4195,-3.6123,-3.7404,-3.7731,-3.792,-3.8216,-3.827,-3.7886,-3.7369,-3.7015,-3.6748,-3.7196,-3.8529,-4.0109,-4.0112,-4.0129,-3.9725,-3.9253,-3.9515,-3.9717,-3.9945,-4.0941,-4.1534,-4.1664,-4.2044,-4.2513,-4.2666,-4.2886,-4.3045,-4.3406,-4.3479,-4.3499,-4.3468,-4.3469,-4.2703,-4.1863,-4.2856,-4.3105,-4.1722,-4.086,-4.0801,-4.0616,-4.1161,-4.1332,-4.1609,-4.1483,-4.159,-0.7139,-0.7139,-0.7139,-0.7139,-0.7139,-0.7139,-0.7228,-0.7316,-0.7404,-0.7305,-0.7471,-0.8615,-1.1121,-1.4004,-1.301,-1.3118,-1.4088,-1.4088,-1.425,-1.4573,-1.5137,-1.5869,-1.6421,-1.6758,-1.7814,-1.9265,-2.0235,-2.0624,-2.1215,-2.2539,-2.3037,-2.3065,-2.4264,-2.5004,-2.537,-2.6094,-2.6452,-2.6521,-2.6521,-2.6458,-2.6476,-2.6531,-2.695,-2.7934,-2.8803,-2.9946,-3.0851,-3.1409,-3.1394,-3.1467,-3.1467,-3.1336,-3.1409,-3.1482,-3.1497,-3.1511,-3.1497,-3.1467,-3.1524,-3.1582,-3.1682,-3.1811,-3.2404,-3.2804,-3.2788,-3.2377,-3.2075,-3.25,-3.4622,-3.738,-3.909,-3.9395,-3.9108,-3.9174,-3.9648,-3.9343,-3.8582,-3.8509,-3.858,-3.8252,-3.9408,-3.9949,-4.012,-4.0205,-4.0254,-3.9987,-4.0328,-4.0654,-4.0961,-4.1601,-4.1937,-4.1979,-4.2523,-4.316,-4.3178,-4.3178,-4.3301,-4.3479,-4.3479,-4.3497,-4.3497,-4.3503,-4.3483,-4.3503,-4.347,-4.3359,-4.2865,-4.249,-4.2481,-4.2503,-4.2291,-4.2803,-4.3297,-4.2832,-4.2693,-0.7139,-0.7139,-0.7139,-0.7139,-0.7139,-0.7139,-0.7665,-0.8452,-0.8456,-0.7971,-0.7914,-1.0206,-1.2392,-1.4078,-1.3789,-1.3906,-1.4082,-1.4166,-1.4489,-1.5372,-1.5538,-1.6764,-1.7696,-1.7763,-1.8488,-1.9788,-2.0401,-2.1001,-2.1807,-2.2886,-2.3828,-2.4383,-2.4696,-2.5441,-2.6094,-2.6302,-2.6521,-2.6521,-2.6508,-2.6481,-2.656,-2.6773,-2.7275,-2.8288,-2.942,-3.045,-3.1219,-3.1467,-3.1467,-3.1467,-3.1467,-3.1467,-3.1467,-3.1467,-3.1467,-3.1467,-3.1467,-3.1467,-3.1582,-3.2007,-3.2398,-3.253,-3.3457,-3.4218,-3.4202,-3.3688,-3.383,-3.4984,-3.7478,-3.917,-3.9902,-3.9969,-3.9783,-3.98,-3.9918,-3.9969,-3.9698,-3.9697,-3.9597,-3.9665,-3.98,-4.0087,-4.0138,-4.0937,-4.1013,-4.0866,-4.1133,-4.1534,-4.1937,-4.2342,-4.2462,-4.2483,-4.2828,-4.3375,-4.3375,-4.3321,-4.341,-4.3479,-4.3479,-4.3479,-4.3479,-4.3479,-4.3479,-4.3497,-4.3499,-4.3304,-4.3178,-4.3214,-4.3068,-4.3214,-4.3251,-4.3395,-4.3503,-4.3487,-4.3468,-0.7139,-0.7139,-0.7139,-0.7139,-0.7139,-0.7139,-0.7749,-0.8715,-0.889,-0.8848,-0.9234,-1.1348,-1.2985,-1.4031,-1.4128,-1.4088,-1.4088,-1.4088,-1.465,-1.5621,-1.6191,-1.7415,-1.87,-1.9006,-1.9565,-2.0537,-2.0564,-2.1156,-2.222,-2.3783,-2.4976,-2.504,-2.5441,-2.5943,-2.6383,-2.6521,-2.6521,-2.6471,-2.6468,-2.6467,-2.6526,-2.8117,-2.9013,-2.9594,-3.0433,-3.1087,-3.1467,-3.1467,-3.1467,-3.1467,-3.1467,-3.1467,-3.1467,-3.1467,-3.1467,-3.1467,-3.1467,-3.1739,-3.2007,-3.2398,-3.2889,-3.3549,-3.4619,-3.5202,-3.5668,-3.5581,-3.5964,-3.7028,-3.8569,-4.0104,-4.0104,-4.007,-4.0087,-4.0087,-4.0087,-4.0087,-4.0087,-4.0087,-4.0087,-4.0087,-4.0037,-4.0121,-4.0423,-4.1181,-4.1348,-4.099,-4.181,-4.2203,-4.2382,-4.2732,-4.2995,-4.3105,-4.3286,-4.3479,-4.3479,-4.3444,-4.3444,-4.3479,-4.3479,-4.3479,-4.3479,-4.3479,-4.3479,-4.3497,-4.3497,-4.3497,-4.341,-4.3479,-4.3479,-4.3411,-4.3394,-4.3463,-4.3481,-4.3468,-4.3487,-0.7139,-0.7139,-0.7139,-0.7139,-0.7139,-0.7312,-0.8101,-0.9148,-0.9323,-1.026,-1.1128,-1.2157,-1.3332,-1.39,-1.4122,-1.4173,-1.4328,-1.4496,-1.5137,-1.6519,-1.7245,-1.823,-1.9274,-1.9982,-2.0324,-2.0556,-2.0589,-2.1196,-2.2914,-2.4905,-2.5779,-2.5501,-2.6013,-2.6383,-2.6452,-2.6521,-2.6521,-2.6483,-2.6518,-2.713,-2.7761,-2.9981,-3.1003,-3.1187,-3.1309,-3.1409,-3.1467,-3.1467,-3.1467,-3.1467,-3.1467,-3.1467,-3.1467,-3.1467,-3.1467,-3.1539,-3.1772,-3.2155,-3.2554,-3.2998,-3.3779,-3.4848,-3.5807,-3.6472,-3.7136,-3.7686,-3.802,-3.8489,-3.9429,-4.0104,-4.0087,-4.0087,-4.0087,-4.0087,-4.0087,-4.0087,-4.0087,-4.0087,-4.0087,-4.0087,-4.0087,-4.0087,-4.047,-4.1043,-4.1111,-4.1391,-4.2198,-4.2826,-4.2939,-4.3069,-4.325,-4.3356,-4.3444,-4.3497,-4.3479,-4.3479,-4.3479,-4.3479,-4.3479,-4.3479,-4.3479,-4.3479,-4.3479,-4.3479,-4.3479,-4.3479,-4.3479,-4.3479,-4.3479,-4.3479,-4.3479,-4.3479,-4.3479,-4.3479,-4.3479,-0.7139,-0.7139,-0.7139,-0.7139,-0.7228,-0.8193,-0.9231,-1.0351,-1.1209,-1.2419,-1.3385,-1.373,-1.3828,-1.4102,-1.4102,-1.458,-1.5304,-1.5545,-1.6437,-1.79,-1.855,-1.9204,-2.0079,-2.043,-2.0574,-2.0635,-2.0943,-2.2168,-2.3822,-2.5636,-2.6239,-2.6295,-2.6383,-2.6452,-2.6521,-2.6521,-2.6577,-2.6625,-2.6616,-2.7536,-2.9672,-3.084,-3.1483,-3.1485,-3.1511,-3.1482,-3.1467,-3.1467,-3.1467,-3.1467,-3.1467,-3.1467,-3.1467,-3.1467,-3.1467,-3.1685,-3.2322,-3.2699,-3.2952,-3.4158,-3.4998,-3.5926,-3.712,-3.8202,-3.8705,-3.9176,-3.9412,-3.9598,-3.98,-4.0087,-4.0087,-4.0087,-4.0087,-4.0087,-4.0087,-4.0087,-4.0087,-4.0087,-4.0087,-4.0087,-4.0087,-4.0255,-4.0734,-4.1192,-4.1463,-4.1888,-4.2598,-4.3087,-4.325,-4.3321,-4.341,-4.3444,-4.3479,-4.3479,-4.3479,-4.3479,-4.3479,-4.3479,-4.3479,-4.3479,-4.3479,-4.3479,-4.3479,-4.3479,-4.3479,-4.3479,-4.3479,-4.3479,-4.3479,-4.3479,-4.3479,-4.3479,-4.3479,-4.3479,-4.3479,-0.7139,-0.7143,-0.7757,-0.8013,-0.8277,-0.9318,-1.0438,-1.1466,-1.2072,-1.2942,-1.3822,-1.4088,-1.4088,-1.4257,-1.4929,-1.565,-1.6363,-1.6519,-1.7496,-1.8798,-1.9045,-1.9599,-2.0527,-2.0584,-2.0631,-2.1226,-2.2527,-2.3654,-2.4578,-2.5832,-2.6407,-2.6515,-2.6521,-2.6521,-2.6658,-2.6973,-2.704,-2.7033,-2.6882,-2.771,-3.0131,-3.0966,-3.1456,-3.1483,-3.1467,-3.1467,-3.1467,-3.1467,-3.1467,-3.1467,-3.1467,-3.1467,-3.1467,-3.1467,-3.1467,-3.1627,-3.222,-3.3075,-3.3504,-3.4788,-3.564,-3.7369,-3.8486,-3.914,-3.9495,-3.9834,-4.007,-4.0087,-4.0087,-4.0087,-4.0087,-4.0087,-4.0087,-4.0087,-4.0087,-4.0087,-4.0087,-4.0087,-4.0087,-4.0087,-4.0087,-4.0406,-4.116,-4.152,-4.1881,-4.2404,-4.3032,-4.3286,-4.3479,-4.3479,-4.3479,-4.3479,-4.3479,-4.3479,-4.3479,-4.3479,-4.3479,-4.3479,-4.3479,-4.3479,-4.3479,-4.3479,-4.3479,-4.3479,-4.3479,-4.3479,-4.3479,-4.3479,-4.3479,-4.3479,-4.3479,-4.3479,-4.3479,-4.3479,-4.3479,-0.7676,-0.7577,-0.8711,-0.9235,-0.9405,-1.0438,-1.1466,-1.2242,-1.2589,-1.3209,-1.3997,-1.4173,-1.4348,-1.4943,-1.5839,-1.6804,-1.7585,-1.7658,-1.8381,-1.9195,-1.9441,-1.9913,-2.0613,-2.0731,-2.0876,-2.2015,-2.4337,-2.5885,-2.5405,-2.6013,-2.6383,-2.6521,-2.6521,-2.6521,-2.6658,-2.7229,-2.7617,-2.7536,-2.7404,-2.7861,-2.9442,-3.0749,-3.1467,-3.1467,-3.1467,-3.1467,-3.1467,-3.1467,-3.1467,-3.1467,-3.1467,-3.1467,-3.1467,-3.1467,-3.1467,-3.1524,-3.1826,-3.3044,-3.4143,-3.5419,-3.6671,-3.8469,-3.9006,-3.9529,-3.9834,-4.0003,-4.0087,-4.0087,-4.0087,-4.0087,-4.0087,-4.0087,-4.0087,-4.0087,-4.0087,-4.0087,-4.0087,-4.0087,-4.0087,-4.0087,-4.007,-4.0588,-4.1353,-4.2184,-4.257,-4.2501,-4.3087,-4.3321,-4.3479,-4.3479,-4.3479,-4.3479,-4.3479,-4.3479,-4.3479,-4.3479,-4.3479,-4.3479,-4.3479,-4.3479,-4.3479,-4.3479,-4.3479,-4.3479,-4.3479,-4.3479,-4.3479,-4.3479,-4.3479,-4.3479,-4.3479,-4.3479,-4.3479,-4.3479,-4.3479,-0.9639,-0.8798,-0.9923,-1.0438,-1.0611,-1.1638,-1.2157,-1.2504,-1.3464,-1.3906,-1.4062,-1.4243,-1.5118,-1.6684,-1.6992,-1.7836,-1.855,-1.8868,-1.9274,-2.0079,-2.0391,-2.0837,-2.1542,-2.0939,-2.1745,-2.295,-2.5266,-2.6309,-2.6144,-2.6358,-2.6521,-2.6521,-2.6521,-2.6521,-2.6714,-2.7471,-2.767,-2.7827,-2.8402,-2.9471,-3.0822,-3.1364,-3.1467,-3.1467,-3.1467,-3.1467,-3.1467,-3.1467,-3.1467,-3.1467,-3.1467,-3.1467,-3.1467,-3.1467,-3.1467,-3.197,-3.2874,-3.419,-3.4929,-3.6138,-3.7552,-3.8906,-3.9546,-3.9901,-4.0037,-4.0087,-4.0087,-4.0087,-4.0087,-4.0087,-4.0087,-4.0087,-4.0087,-4.0087,-4.0087,-4.0087,-4.0087,-4.0087,-4.0087,-4.0103,-4.0119,-4.08,-4.1545,-4.2452,-4.3219,-4.3101,-4.3087,-4.3321,-4.3479,-4.3479,-4.3479,-4.3479,-4.3479,-4.3479,-4.3479,-4.3479,-4.3479,-4.3479,-4.3479,-4.3479,-4.3479,-4.3479,-4.3479,-4.3479,-4.3479,-4.3479,-4.3479,-4.3479,-4.3479,-4.3479,-4.3479,-4.3479,-4.3479,-4.3479,-4.3479,-1.1554,-1.0009,-1.1123,-1.1558,-1.1729,-1.2857,-1.3294,-1.3548,-1.4468,-1.4678,-1.4185,-1.4096,-1.5942,-1.8412,-1.8567,-1.8877,-1.9678,-1.9844,-2.0079,-2.0702,-2.1078,-2.1593,-2.1964,-2.2189,-2.2911,-2.3847,-2.5368,-2.6382,-2.6477,-2.6521,-2.6521,-2.6521,-2.6521,-2.6769,-2.7108,-2.7986,-2.8684,-2.9247,-3.0007,-3.0749,-3.1291,-3.1467,-3.1467,-3.1467,-3.1467,-3.1467,-3.1467,-3.1467,-3.1467,-3.1467,-3.1467,-3.1467,-3.1467,-3.1467,-3.1524,-3.167,-3.3302,-3.4574,-3.5395,-3.6618,-3.802,-3.926,-3.9884,-4.0037,-4.007,-4.0087,-4.0087,-4.0087,-4.0087,-4.0087,-4.0087,-4.0087,-4.0087,-4.0087,-4.0087,-4.0087,-4.0087,-4.0087,-4.0104,-4.0119,-4.0199,-4.0871,-4.1649,-4.2676,-4.3307,-4.3324,-4.325,-4.341,-4.3479,-4.3479,-4.3479,-4.3479,-4.3479,-4.3479,-4.3479,-4.3479,-4.3479,-4.3479,-4.3479,-4.3479,-4.3479,-4.3479,-4.3479,-4.3479,-4.3479,-4.3479,-4.3479,-4.3479,-4.3479,-4.3479,-4.3479,-4.3479,-4.3479,-4.3479,-4.3479,-1.3095,-1.1569,-1.2425,-1.2766,-1.2851,-1.3977,-1.4489,-1.465,-1.5621,-1.5726,-1.5472,-1.5716,-1.7751,-1.9785,-1.9799,-1.9835,-2.0489,-2.0576,-2.0789,-2.1155,-2.1669,-2.2253,-2.2826,-2.344,-2.3672,-2.4249,-2.5693,-2.6465,-2.664,-2.6883,-2.7114,-2.6533,-2.6521,-2.6905,-2.7736,-2.8492,-2.9303,-3.045,-3.0999,-3.1379,-3.1467,-3.1467,-3.1467,-3.1467,-3.1467,-3.1467,-3.1467,-3.1467,-3.1467,-3.1467,-3.1467,-3.1467,-3.1467,-3.1467,-3.1467,-3.1887,-3.331,-3.4782,-3.578,-3.691,-3.8254,-3.9413,-4.0087,-4.0087,-4.0087,-4.0087,-4.0087,-4.0087,-4.0087,-4.0087,-4.0087,-4.0087,-4.0087,-4.0087,-4.0087,-4.0087,-4.0087,-4.0087,-4.007,-4.007,-4.0283,-4.0799,-4.1655,-4.2792,-4.3328,-4.3468,-4.3479,-4.3479,-4.3479,-4.3479,-4.3479,-4.3479,-4.3479,-4.3479,-4.3479,-4.3479,-4.3479,-4.3479,-4.3479,-4.3479,-4.3479,-4.3479,-4.3479,-4.3479,-4.3479,-4.3479,-4.3479,-4.3479,-4.3479,-4.3479,-4.3479,-4.3479,-4.3479,-4.3479,-4.3479,-1.4004,-1.3906,-1.3906,-1.399,-1.4075,-1.5137,-1.5538,-1.5703,-1.6764,-1.7546,-1.8091,-1.9307,-1.9865,-2.0505,-2.0586,-2.0547,-2.0644,-2.0644,-2.1231,-2.1735,-2.2103,-2.3147,-2.3872,-2.4247,-2.4519,-2.582,-2.644,-2.644,-2.6871,-2.7904,-2.7543,-2.6777,-2.6918,-2.7162,-2.792,-2.9066,-3.0011,-3.097,-3.1467,-3.1467,-3.1467,-3.1467,-3.1467,-3.1467,-3.1467,-3.1467,-3.1467,-3.1467,-3.1467,-3.1467,-3.1467,-3.1625,-3.1682,-3.1549,-3.1534,-3.2252,-3.3583,-3.5,-3.5999,-3.7549,-3.9059,-3.98,-4.0087,-4.0087,-4.0087,-4.0087,-4.0087,-4.0087,-4.0087,-4.0087,-4.0087,-4.0087,-4.0087,-4.0087,-4.0087,-4.0087,-4.0087,-4.0087,-4.007,-4.0121,-4.0351,-4.0775,-4.1657,-4.2764,-4.3332,-4.3468,-4.3479,-4.3479,-4.3479,-4.3479,-4.3479,-4.3479,-4.3479,-4.3479,-4.3479,-4.3479,-4.3479,-4.3479,-4.3479,-4.3479,-4.3479,-4.3479,-4.3479,-4.3479,-4.3479,-4.3479,-4.3479,-4.3479,-4.3479,-4.3479,-4.3479,-4.3479,-4.3479,-4.3479,-4.3479,-1.4489,-1.5061,-1.5137,-1.5054,-1.5137,-1.5538,-1.6108,-1.6854,-1.7908,-1.8895,-1.9771,-2.0361,-2.0625,-2.0742,-2.1302,-2.1451,-2.1517,-2.2199,-2.2553,-2.3073,-2.3661,-2.4264,-2.4862,-2.5344,-2.5832,-2.6358,-2.6521,-2.6521,-2.6696,-2.8226,-2.8173,-2.7668,-2.7815,-2.8556,-2.9317,-2.9889,-3.0777,-3.1161,-3.1467,-3.1467,-3.1467,-3.1467,-3.1467,-3.1467,-3.1467,-3.1467,-3.1467,-3.1467,-3.1467,-3.1467,-3.1467,-3.1739,-3.2064,-3.1855,-3.2078,-3.2773,-3.435,-3.5545,-3.6443,-3.7953,-3.9309,-3.9884,-4.0087,-4.0087,-4.0087,-4.0087,-4.0087,-4.0087,-4.0087,-4.0087,-4.0087,-4.0087,-4.0087,-4.0087,-4.0087,-4.0087,-4.0087,-4.0087,-4.007,-4.0121,-4.0286,-4.0625,-4.1635,-4.2797,-4.3198,-4.3468,-4.3483,-4.3479,-4.3479,-4.3479,-4.3479,-4.3479,-4.3479,-4.3479,-4.3479,-4.3479,-4.3479,-4.3479,-4.3479,-4.3479,-4.3479,-4.3479,-4.3479,-4.3479,-4.3479,-4.3479,-4.3479,-4.3479,-4.3479,-4.3479,-4.3479,-4.3479,-4.3479,-4.3479,-4.3479,-1.547,-1.6191,-1.6191,-1.6191,-1.6191,-1.6511,-1.7082,-1.79,-1.8957,-1.9844,-2.0576,-2.0566,-2.0984,-2.1456,-2.169,-2.2264,-2.2478,-2.3073,-2.3588,-2.4036,-2.4492,-2.5146,-2.5581,-2.6,-2.6277,-2.6508,-2.6544,-2.6574,-2.7449,-2.8502,-2.8757,-2.8903,-2.9254,-2.995,-3.0194,-3.1029,-3.1467,-3.1467,-3.1467,-3.1467,-3.1467,-3.1467,-3.1467,-3.1467,-3.1467,-3.1467,-3.1467,-3.1467,-3.1467,-3.1467,-3.1582,-3.191,-3.2342,-3.2726,-3.3033,-3.3982,-3.5261,-3.6519,-3.7102,-3.8321,-3.9495,-4.0003,-4.0087,-4.0087,-4.0087,-4.0087,-4.0087,-4.0087,-4.0087,-4.0087,-4.0087,-4.0087,-4.0087,-4.0087,-4.0087,-4.0087,-4.0087,-4.0087,-4.0087,-4.0121,-4.0286,-4.0431,-4.1133,-4.2214,-4.3113,-4.3414,-4.3465,-4.3479,-4.3479,-4.3479,-4.3479,-4.3479,-4.3479,-4.3479,-4.3479,-4.3479,-4.3479,-4.3479,-4.3479,-4.3479,-4.3479,-4.3479,-4.3479,-4.3479,-4.3479,-4.3479,-4.3479,-4.3479,-4.3479,-4.3479,-4.3479,-4.3479,-4.3479,-4.3479,-4.3479,-1.7269,-1.7261,-1.7261,-1.7253,-1.7496,-1.847,-1.8868,-1.9036,-2.0001,-2.0469,-2.0615,-2.0702,-2.166,-2.2746,-2.2563,-2.2861,-2.3452,-2.3745,-2.4181,-2.4933,-2.5146,-2.5664,-2.6094,-2.6452,-2.6521,-2.6501,-2.6633,-2.7259,-2.8958,-2.9331,-2.9605,-3.0015,-3.051,-3.0896,-3.0464,-3.1102,-3.1482,-3.1467,-3.1467,-3.1467,-3.1467,-3.1467,-3.1467,-3.1467,-3.1467,-3.1467,-3.1467,-3.1467,-3.1467,-3.1467,-3.1467,-3.1951,-3.2641,-3.4279,-3.4521,-3.403,-3.6371,-3.7318,-3.7185,-3.8959,-3.9834,-4.0104,-4.0087,-4.0087,-4.0087,-4.0087,-4.0087,-4.0087,-4.0087,-4.0087,-4.0087,-4.0087,-4.0087,-4.0087,-4.0087,-4.0087,-4.0087,-4.0087,-4.0087,-4.0087,-4.012,-4.0234,-4.0798,-4.1569,-4.2734,-4.3304,-4.3444,-4.3479,-4.3479,-4.3479,-4.3479,-4.3479,-4.3479,-4.3479,-4.3479,-4.3479,-4.3479,-4.3479,-4.3479,-4.3479,-4.3479,-4.3479,-4.3479,-4.3479,-4.3479,-4.3479,-4.3479,-4.3479,-4.3479,-4.3479,-4.3479,-4.3479,-4.3479,-4.3479,-4.3479,-1.9048,-1.8479,-1.839,-1.8868,-1.9353,-1.9116,-1.9362,-2.0001,-2.0391,-2.0613,-2.0725,-2.1197,-2.222,-2.3172,-2.3909,-2.4108,-2.448,-2.5358,-2.5873,-2.5873,-2.5943,-2.6151,-2.6452,-2.6521,-2.6508,-2.6476,-2.6704,-2.804,-3.0679,-3.0497,-3.0312,-3.0597,-3.1087,-3.1278,-3.1219,-3.1424,-3.1467,-3.1467,-3.1467,-3.1467,-3.1467,-3.1467,-3.1467,-3.1467,-3.1467,-3.1467,-3.1524,-3.1524,-3.1582,-3.1625,-3.1625,-3.2201,-3.3203,-3.488,-3.5279,-3.5168,-3.7026,-3.8286,-3.8723,-3.9851,-4.0037,-4.0087,-4.0087,-4.0087,-4.0087,-4.0087,-4.0087,-4.0087,-4.0087,-4.0087,-4.0087,-4.0087,-4.0087,-4.0087,-4.0087,-4.0087,-4.0087,-4.0087,-4.0087,-4.0087,-4.0104,-4.0254,-4.069,-4.1467,-4.2526,-4.3214,-4.3394,-4.3463,-4.3497,-4.3479,-4.3479,-4.3479,-4.3479,-4.3479,-4.3479,-4.3479,-4.3479,-4.3479,-4.3479,-4.3479,-4.3479,-4.3479,-4.3479,-4.3479,-4.3479,-4.3479,-4.3479,-4.3479,-4.3479,-4.3479,-4.3479,-4.3479,-4.3479,-4.3479,-4.3479,-2.0197,-1.9618,-1.952,-1.9923,-2.0411,-1.9844,-2.0148,-2.1001,-2.1364,-2.1237,-2.1022,-2.1924,-2.3383,-2.4391,-2.4838,-2.5358,-2.5511,-2.6094,-2.6452,-2.6521,-2.6452,-2.6452,-2.6452,-2.6496,-2.6476,-2.6485,-2.6881,-2.8166,-3.1176,-3.1448,-3.119,-3.0999,-3.1204,-3.1409,-3.1467,-3.1467,-3.1467,-3.1467,-3.1467,-3.1467,-3.1467,-3.1467,-3.1467,-3.1467,-3.1467,-3.1467,-3.1582,-3.1697,-3.1853,-3.1894,-3.2201,-3.2718,-3.3893,-3.4447,-3.5217,-3.584,-3.7233,-3.8652,-3.9665,-4.0003,-4.0087,-4.0087,-4.0087,-4.0087,-4.0087,-4.0087,-4.0087,-4.0087,-4.0087,-4.0087,-4.0087,-4.0087,-4.0087,-4.0087,-4.0087,-4.0087,-4.0087,-4.0087,-4.0087,-4.0087,-4.0136,-4.0341,-4.0839,-4.1503,-4.24,-4.2918,-4.3342,-4.3394,-4.3444,-4.3479,-4.3479,-4.3479,-4.3479,-4.3479,-4.3479,-4.3479,-4.3479,-4.3479,-4.3479,-4.3479,-4.3479,-4.3479,-4.3479,-4.3479,-4.3479,-4.3479,-4.3479,-4.3479,-4.3479,-4.3479,-4.3479,-4.3479,-4.3479,-4.3479,-4.3479,-2.0644,-2.0644,-2.0634,-2.0712,-2.0712,-2.0924,-2.1375,-2.2113,-2.2999,-2.2377,-2.0969,-2.2853,-2.4452,-2.5863,-2.5503,-2.5594,-2.6164,-2.6452,-2.6452,-2.6521,-2.6521,-2.6521,-2.6564,-2.6595,-2.6477,-2.6568,-2.7296,-2.9039,-3.1362,-3.1501,-3.1425,-3.1409,-3.1409,-3.1467,-3.1467,-3.1467,-3.1467,-3.1467,-3.1467,-3.1467,-3.1467,-3.1467,-3.1467,-3.1467,-3.1467,-3.1467,-3.1682,-3.2007,-3.2382,-3.268,-3.3093,-3.3786,-3.417,-3.394,-3.4601,-3.5944,-3.7877,-3.9056,-3.9868,-4.007,-4.0087,-4.0087,-4.0087,-4.0087,-4.0087,-4.0087,-4.0087,-4.0087,-4.0087,-4.0087,-4.0087,-4.0087,-4.0087,-4.0087,-4.0087,-4.0087,-4.0087,-4.0087,-4.0087,-4.0087,-4.0119,-4.0443,-4.1424,-4.2168,-4.1949,-4.2167,-4.2589,-4.3105,-4.3214,-4.3479,-4.3479,-4.3479,-4.3479,-4.3479,-4.3479,-4.3479,-4.3479,-4.3479,-4.3479,-4.3479,-4.3479,-4.3479,-4.3479,-4.3479,-4.3479,-4.3479,-4.3479,-4.3479,-4.3479,-4.3479,-4.3479,-4.3479,-4.3479,-4.3479,-4.3479,-2.1001,-2.1593,-2.1593,-2.1962,-2.2713,-2.3452,-2.3526,-2.3147,-2.3441,-2.305,-2.2789,-2.3996,-2.5289,-2.6382,-2.6213,-2.6258,-2.6383,-2.6521,-2.6452,-2.6521,-2.6589,-2.6905,-2.7018,-2.6863,-2.6621,-2.7373,-2.8678,-3.0158,-3.1187,-3.1485,-3.1482,-3.1467,-3.1467,-3.1467,-3.1467,-3.1467,-3.1467,-3.1467,-3.1467,-3.1467,-3.1467,-3.1467,-3.1467,-3.1467,-3.1467,-3.1467,-3.1682,-3.2272,-3.2586,-3.2734,-3.3287,-3.3937,-3.4463,-3.4184,-3.4655,-3.8404,-3.9469,-3.9848,-4.0053,-4.0087,-4.0087,-4.0087,-4.0087,-4.0087,-4.0087,-4.0087,-4.0087,-4.0087,-4.0087,-4.0087,-4.0087,-4.0087,-4.0087,-4.0087,-4.0087,-4.0087,-4.0087,-4.0087,-4.007,-4.0087,-4.0102,-4.0314,-4.1371,-4.1555,-4.1374,-4.1493,-4.1855,-4.2474,-4.3014,-4.3286,-4.3479,-4.3479,-4.3479,-4.3479,-4.3479,-4.3479,-4.3479,-4.3479,-4.3479,-4.3479,-4.3479,-4.3479,-4.3479,-4.3479,-4.3479,-4.3479,-4.3479,-4.3479,-4.3479,-4.3479,-4.3479,-4.3479,-4.3479,-4.3479,-4.3479,-2.1155,-2.1962,-2.2038,-2.2776,-2.4036,-2.4707,-2.4779,-2.4696,-2.4684,-2.4708,-2.4719,-2.5332,-2.5955,-2.6396,-2.6465,-2.6452,-2.6452,-2.6521,-2.6521,-2.6521,-2.685,-2.7229,-2.7366,-2.7603,-2.7645,-2.8533,-2.9761,-3.1187,-3.1486,-3.1485,-3.1467,-3.1467,-3.1467,-3.1467,-3.1467,-3.1467,-3.1467,-3.1467,-3.1467,-3.1467,-3.1467,-3.1467,-3.1467,-3.1467,-3.1467,-3.1524,-3.1682,-3.2367,-3.2949,-3.3198,-3.3802,-3.456,-3.5008,-3.475,-3.5939,-3.9166,-3.998,-4.0001,-4.0104,-4.0087,-4.0087,-4.0087,-4.0087,-4.0087,-4.0087,-4.0087,-4.0087,-4.0087,-4.0087,-4.0087,-4.0087,-4.0087,-4.0087,-4.0087,-4.0087,-4.0087,-4.0087,-4.0087,-4.0104,-4.0087,-4.0118,-4.0112,-4.0367,-4.0608,-4.0916,-4.1218,-4.164,-4.2257,-4.2808,-4.325,-4.341,-4.3479,-4.3479,-4.3479,-4.3479,-4.3479,-4.3479,-4.3479,-4.3479,-4.3479,-4.3479,-4.3479,-4.3479,-4.3479,-4.3479,-4.3479,-4.3479,-4.3479,-4.3479,-4.3479,-4.3479,-4.3479,-4.3479,-4.3479,-4.3479,-2.1231,-2.2188,-2.2328,-2.3588,-2.4992,-2.5158,-2.5652,-2.6452,-2.6302,-2.644,-2.6358,-2.644,-2.6452,-2.6521,-2.6521,-2.6521,-2.6589,-2.6658,-2.6769,-2.6658,-2.7484,-2.7986,-2.8363,-2.8616,-2.8844,-2.9633,-3.051,-3.1501,-3.1513,-3.1467,-3.1467,-3.1467,-3.1467,-3.1467,-3.1467,-3.1467,-3.1467,-3.1467,-3.1467,-3.1467,-3.1467,-3.1467,-3.1467,-3.1467,-3.1524,-3.1582,-3.1936,-3.2664,-3.3649,-3.4103,-3.4657,-3.5424,-3.5467,-3.5924,-3.7627,-3.892,-4.0017,-4.012,-4.0121,-4.007,-4.0087,-4.0087,-4.0087,-4.0087,-4.0087,-4.0087,-4.0087,-4.0087,-4.0087,-4.0087,-4.0087,-4.0087,-4.0087,-4.0087,-4.0087,-4.0087,-4.0087,-4.0087,-4.0121,-4.0104,-4.012,-4.0084,-4.0133,-4.0408,-4.0535,-4.092,-4.1508,-4.208,-4.2541,-4.305,-4.3375,-4.3479,-4.3479,-4.3479,-4.3479,-4.3479,-4.3479,-4.3479,-4.3479,-4.3479,-4.3479,-4.3479,-4.3479,-4.3479,-4.3479,-4.3479,-4.3479,-4.3479,-4.3479,-4.3479,-4.3479,-4.3479,-4.3479,-4.3479,-4.3479,-2.1603,-2.3294,-2.4755,-2.5721,-2.6094,-2.6176,-2.6233,-2.6452,-2.6521,-2.6521,-2.6521,-2.6521,-2.6615,-2.6709,-2.6589,-2.6645,-2.6782,-2.7229,-2.7351,-2.767,-2.8312,-2.8925,-2.9414,-2.9605,-3.0067,-3.0793,-3.1322,-3.1485,-3.1497,-3.1467,-3.1467,-3.1467,-3.1467,-3.1467,-3.1467,-3.1467,-3.1467,-3.1467,-3.1467,-3.1467,-3.1467,-3.1467,-3.1467,-3.1467,-3.1524,-3.1853,-3.2312,-3.3024,-3.3836,-3.4431,-3.5098,-3.5492,-3.5614,-3.667,-3.8176,-3.9693,-4.0086,-4.0104,-4.0087,-4.0087,-4.0087,-4.0087,-4.0087,-4.0087,-4.0087,-4.0087,-4.0087,-4.0087,-4.0087,-4.0087,-4.0087,-4.0087,-4.0087,-4.0087,-4.0087,-4.0087,-4.0087,-4.0087,-4.0087,-4.0087,-4.0087,-4.0087,-4.0087,-4.0138,-4.0188,-4.0642,-4.1375,-4.1919,-4.2266,-4.2734,-4.3286,-4.3444,-4.3479,-4.3479,-4.3479,-4.3479,-4.3479,-4.3479,-4.3479,-4.3479,-4.3479,-4.3479,-4.3479,-4.3479,-4.3479,-4.3479,-4.3479,-4.3479,-4.3479,-4.3479,-4.3479,-4.3479,-4.3479,-4.3479,-4.3479,-2.2776,-2.4337,-2.5873,-2.6521,-2.6521,-2.6521,-2.6521,-2.6521,-2.6521,-2.6521,-2.6521,-2.6533,-2.6871,-2.733,-2.7253,-2.7284,-2.7537,-2.8038,-2.8233,-2.8556,-2.9129,-2.969,-3.0136,-3.0422,-3.0822,-3.1394,-3.1467,-3.1482,-3.1467,-3.1467,-3.1467,-3.1467,-3.1467,-3.1467,-3.1467,-3.1467,-3.1467,-3.1467,-3.1467,-3.1467,-3.1467,-3.1467,-3.1467,-3.1467,-3.1582,-3.1951,-3.2586,-3.3235,-3.3887,-3.4544,-3.5207,-3.5518,-3.5937,-3.6956,-3.8464,-3.9611,-4.007,-4.0087,-4.0087,-4.0087,-4.0087,-4.0087,-4.0087,-4.0087,-4.0087,-4.0087,-4.0087,-4.0087,-4.0087,-4.0087,-4.0087,-4.0087,-4.0087,-4.0087,-4.0087,-4.0087,-4.0087,-4.0087,-4.0087,-4.0087,-4.0087,-4.0087,-4.0087,-4.0087,-4.0171,-4.0254,-4.1013,-4.1647,-4.2044,-4.26,-4.3124,-4.3444,-4.3479,-4.3479,-4.3479,-4.3479,-4.3479,-4.3479,-4.3479,-4.3479,-4.3479,-4.3479,-4.3479,-4.3479,-4.3479,-4.3479,-4.3479,-4.3479,-4.3479,-4.3479,-4.3479,-4.3479,-4.3479,-4.3479,-4.3479,-2.4284,-2.5087,-2.6094,-2.6521,-2.6521,-2.6521,-2.6521,-2.6521,-2.6589,-2.662,-2.6569,-2.6812,-2.7799,-2.8292,-2.8133,-2.8509,-2.8798,-2.8989,-2.9129,-2.938,-3.0072,-3.045,-3.0777,-3.1087,-3.1336,-3.1452,-3.1467,-3.1467,-3.1467,-3.1467,-3.1467,-3.1467,-3.1467,-3.1467,-3.1467,-3.1467,-3.1467,-3.1467,-3.1467,-3.1467,-3.1467,-3.1467,-3.1467,-3.1467,-3.1582,-3.1951,-3.2625,-3.3303,-3.3937,-3.4756,-3.5421,-3.5656,-3.6125,-3.7076,-3.8535,-3.9648,-4.0104,-4.0087,-4.0087,-4.0087,-4.0087,-4.0087,-4.0087,-4.0087,-4.0087,-4.0087,-4.0087,-4.0087,-4.0087,-4.0087,-4.0087,-4.0087,-4.0087,-4.0087,-4.0087,-4.0087,-4.0087,-4.0087,-4.0087,-4.0087,-4.0087,-4.0087,-4.0087,-4.0087,-4.0171,-4.0254,-4.0642,-4.1178,-4.1775,-4.2562,-4.325,-4.341,-4.3479,-4.3479,-4.3479,-4.3479,-4.3479,-4.3479,-4.3479,-4.3479,-4.3479,-4.3479,-4.3479,-4.3479,-4.3479,-4.3479,-4.3479,-4.3479,-4.3479,-4.3479,-4.3479,-4.3479,-4.3479,-4.3479,-4.3479,-2.5588,-2.5087,-2.6094,-2.6521,-2.6521,-2.6521,-2.6521,-2.6577,-2.7149,-2.7128,-2.7037,-2.7971,-2.8787,-2.8984,-2.812,-2.8312,-2.9366,-2.9752,-3.0011,-3.0208,-3.0777,-3.1102,-3.1292,-3.1351,-3.1467,-3.1467,-3.1467,-3.1467,-3.1467,-3.1467,-3.1467,-3.1467,-3.1467,-3.1467,-3.1467,-3.1467,-3.1467,-3.1467,-3.1467,-3.1467,-3.1467,-3.1467,-3.1467,-3.1467,-3.1524,-3.2296,-3.3077,-3.3495,-3.435,-3.5218,-3.5958,-3.6051,-3.6377,-3.7047,-3.8353,-3.9681,-4.0087,-4.0087,-4.0087,-4.0087,-4.0087,-4.0087,-4.0087,-4.0087,-4.0087,-4.0087,-4.0087,-4.0087,-4.0087,-4.0087,-4.0087,-4.0087,-4.0087,-4.0087,-4.0087,-4.0087,-4.0087,-4.0087,-4.0087,-4.0087,-4.0087,-4.0087,-4.0087,-4.0087,-4.0087,-4.0336,-4.0814,-4.1358,-4.175,-4.2523,-4.325,-4.341,-4.3479,-4.3479,-4.3479,-4.3479,-4.3479,-4.3479,-4.3479,-4.3479,-4.3479,-4.3479,-4.3479,-4.3479,-4.3479,-4.3479,-4.3479,-4.3479,-4.3479,-4.3479,-4.3479,-4.3479,-4.3479,-4.3479,-4.3479]}]]